     2              OBSERVATION DATA    GPS                 RINEX VERSION / TYPE
teqc 1999Jul19 19991123 02:49:41UTC                         PGM / RUN BY / DATE
                                                            COMMENT
Original Marker Name: 0220                                  COMMENT
Campaign Name: HPGN 1991                                    COMMENT
4-Character Station Name: 0220                              COMMENT
6-Character Antenna Code: TRMSST                            COMMENT
Vertical Measurement Point: TGP                             COMMENT
Vertical Offset to Rinex Ref. Point: 0.0629                 COMMENT
Radial Measurement Point: OGP                               COMMENT
Radial Offset to Rinex Ref. Point: 0.2413                   COMMENT
Antenna Height from Field Measurement: 1.6760 m             COMMENT
                                                            COMMENT
Original XYZ: -2444939.4747 -4172886.9188 4146607.9783      COMMENT
New XYZ position is based on association with SCEC monument COMMENT
E1O7Q7A7+0011. Position of that monument is believed to be  COMMENT
valid to within 1 m horizontally; vertical accuracy         COMMENT
should be no worse than 3-times this value.                 COMMENT
                                                            COMMENT
Revised Rinex header created by UCSD GPS archive for        COMMENT
GSAC on 10-Mar-2000 (2000:070) 04:41:47 GMT                 COMMENT
For assistance contact dagnew@ucsd.edu or hjohnson@ucsd.edu COMMENT
                                                            COMMENT
HPGN CA 0220                                                MARKER NAME
0220                                                        MARKER NUMBER
-Unknown- CALIF DEPT TRANSPORTATION                         OBSERVER / AGENCY
483 TRIMBLE 4000 SST NP 4.30 / SP 4.20                      REC # / TYPE / VERS
19 TR 4000SST L1/L2 GEO                                     ANT # / TYPE
 -2444937.2056 -4172888.8509  4146610.1766                  APPROX POSITION XYZ
        1.5956        0.0000        0.0000                  ANTENNA: DELTA H/E/N
     1     1     0                                          WAVELENGTH FACT L1/2
     5    C1    L1    L2    S1    S2                        # / TYPES OF OBSERV
     0                                                      INTERVAL
  1991     6    18    15    59   15.000000                  TIME OF FIRST OBS
  1991     6    18    21    59   60.000000                  TIME OF LAST OBS
                                                            END OF HEADER
 91  6 18 15 59 15.0000000  0  5G18G 2G11G16G19
  20608843.664          -0.38017                        26.750
  24244471.211          -0.46115                         8.000
  24132898.953          -0.48615                         8.500
  24055840.813          -0.72015                         9.500
  20481908.039          -0.18017                        21.000
 91  6 18 15 59 30.0000000  0  5G18G 2G11G16G19
  20613258.414       23196.219 7        -0.13833        26.500           2.594
  24234841.586      -50603.688 5        -0.09831         9.250           0.281
  24125413.969      -39340.992 5                         8.750
  24049705.695      -32216.407 5                         9.750
  20481236.219       -3524.519 7                        20.500
 91  6 18 15 59 45.0000000  0  5G18G 2G11G16G19
  20617676.094       46419.413 7     18095.84623        26.250           2.594
  24225202.594     -101259.732 5    -39472.28521         8.250           0.344
  24117925.422      -78691.488 5        -0.15931         9.000           0.313
  24043582.805      -64404.282 5        -0.44331        11.000           0.469
  20480563.258       -7067.875 7        -0.43432        20.750           1.563
 91  6 18 16  0  0.0000000  0  5G18G 2G11G16G19
  20622104.820       69694.258 7     36232.08223        26.250           2.688
  24215554.273     -151943.182 5    -78965.77621         8.000           0.250
  24110444.133     -118026.512 5    -30650.78021         9.750           0.344
  24037470.227      -96538.984 5    -25040.44121        11.500           0.438
  20479889.883      -10605.184 7     -2756.78522        20.250           1.500
 91  6 18 16  0 15.0000000  0  5G18G 2G11G16G19
  20626545.492       93026.640 7     54413.14923        26.500           2.563
  24205910.109     -202647.888 5   -118475.87821         8.500           0.281
  24102960.828     -157339.555 5    -61284.26021         9.250           0.281
  24031364.820     -128614.046 5    -50033.98521        10.500           0.500
  20479217.898      -14130.330 7     -5503.65322        21.000           1.500
 91  6 18 16  0 30.0000000  0  5G18G 2G11G16G19
  20630999.102      116425.473 7     72645.99923        27.250           2.594
  24196257.656     -253364.590 5   -157995.30721         8.250           0.344
  24095484.516     -196621.307 5    -91893.37421         9.000           0.406
  24025276.516     -160620.477 5    -74974.02621        10.250           0.375
  20478552.453      -17634.375 7     -8234.07222        20.000           1.656
 91  6 18 16  0 45.0000000  0  5G18G 2G11G16G19
  20635469.563      139918.178 7     90951.99323        26.750           2.594
  24186610.344     -304065.836 5   -197502.70221         8.000           0.156
  24088023.594     -235843.977 5   -122456.43821         9.500           0.375
  24019201.094     -192530.568 5    -99839.00221        10.250           0.344
  20477893.469      -21089.954 7    -10926.73522        21.000           1.656
 91  6 18 16  1  0.0000000  0  5G18G 2G11G16G19
  20639954.336      163485.732 7    109316.31023        27.000           2.563
  24176961.016     -354770.129 5   -237012.48421         7.500           0.188
  24080564.453     -275025.929 5   -152987.80521         9.500           0.313
  24013144.930     -224362.862 5   -124643.37021        10.750           0.281
  20477243.023      -24516.110 7    -13596.46022        20.250           1.594
 91  6 18 16  1 15.0000000  0  5G18G 2G11G16G19
  20644453.117      187131.662 7    127741.70123        26.500           2.625
  24167311.297     -405473.835 5   -276521.75821         7.750           0.188
  24073118.797     -314163.412 5   -183484.49121         9.750           0.313
  24007104.883     -256113.689 5   -149384.25321        10.500           0.250
  20476596.227      -27909.314 7    -16240.50922        20.750           1.656
 91  6 18 16  1 30.0000000  0  5G18G 2G11G16G19
  20648970.281      210864.910 7    146235.12623        27.000           2.594
  24157665.961     -456167.805 5   -316023.51821         8.500           0.156
  24065680.039     -353247.043 5   -213939.24321         9.500           0.281
  24001079.109     -287773.867 5   -174054.49821        10.500           0.375
  20475959.813      -31260.527 7    -18851.84922        20.250           1.531
 91  6 18 16  1 45.0000000  0  5G18G 2G11G16G19
  20653501.727      234682.469 7    164794.25923        26.500           2.688
  24148020.984     -506854.791 5   -355519.80021         8.000           0.281
  24058251.453     -392279.283 5   -244353.94521         9.500           0.313
  23995070.523     -319346.088 5   -198656.19421         9.750           0.375
  20475328.539      -34572.765 7    -21432.81122        21.000           1.594
 91  6 18 16  2  0.0000000  0  5G18G 2G11G16G19
  20658052.570      258591.592 7    183424.73423        27.000           2.750
  24138374.875     -557527.260 5   -395004.76121         7.750           0.344
  24050835.000     -431252.400 5   -274722.55821         9.500           0.406
  23989079.633     -350822.718 5   -223183.41521        10.000           0.375
  20474707.594      -37838.743 7    -23977.72822        20.250           1.688
 91  6 18 16  2 15.0000000  0  5G18G 2G11G16G19
  20662619.398      282593.545 7    202127.54123        26.500           2.656
  24128735.445     -608183.700 5   -434477.25121         8.750           0.313
  24043429.852     -470164.715 5   -305043.79021        10.000           0.375
  23983105.086     -382202.281 5   -247635.00221         9.500           0.344
  20474093.797      -41057.237 7    -26485.64622        20.250           1.594
 91  6 18 16  2 30.0000000  0  5G18G 2G11G16G19
  20667202.734      306679.699 7    220895.96023        26.250           2.656
  24119096.977     -658832.467 5   -473943.75221         9.250           0.219
  24036034.672     -509024.300 5   -335323.94721         9.250           0.344
  23977154.711     -413493.057 5   -272017.37921        10.250           0.469
  20473490.211      -44236.703 7    -28963.15122        20.250           1.625
 91  6 18 16  2 45.0000000  0  5G18G 2G11G16G19
  20671803.391      330854.538 7    239733.48423        26.250           2.719
  24109458.438     -709468.594 5   -513400.41521         8.750           0.344
  24028651.164     -547825.974 5   -365558.96421         9.750           0.375
  23971218.328     -444690.040 5   -296326.69221        10.500           0.469
  20472892.438      -47372.448 7    -31406.58822        21.000           1.531
 91  6 18 16  3  0.0000000  0  5G18G 2G11G16G19
  20676420.547      355118.954 7    258640.80823        26.750           2.531
  24099829.859     -760091.143 5   -552846.49221         9.500           0.406
  24021280.078     -586568.414 5   -395747.84321         9.250           0.281
  23965299.383     -475792.059 5   -320562.02021        10.250           0.344
  20472308.453      -50463.681 6    -33815.33822        19.750           1.531
 91  6 18 16  3 15.0000000  0  5G18G 2G11G16G19
  20681054.469      379471.213 7    277616.58523        26.250           2.656
  24090198.570     -810701.413 5   -592283.00921         9.250           0.313
  24013920.742     -625253.009 5   -425891.64121         9.750           0.406
  23959398.828     -506800.732 5   -344724.60821        10.250           0.406
  20471723.977      -53512.061 7    -36190.70322        20.750           1.656
 91  6 18 16  3 30.0000000  0  5G18G 2G11G16G19
  20685704.969      403908.760 7    296658.81623        26.500           2.719
  24080570.078     -861301.642 5   -631711.70421         9.250           0.281
  24006565.508     -663881.579 5   -455991.77621         9.500           0.313
  23953515.469     -537717.873 5   -368815.84821        10.250           0.375
  20471156.609      -56520.007 6    -38534.55722        19.250           1.563
 91  6 18 16  3 45.0000000  0  5G18G 2G11G16G19
  20690371.844      428433.071 7    315768.66123        26.750           2.750
  24070939.148     -911890.259 5   -671131.35821         9.000           0.313
  23999229.203     -702452.416 5   -486046.92921        10.000           0.375
  23947649.211     -568542.141 5   -392834.73921        10.250           0.438
  20470588.164      -59486.076 7    -40845.78022        21.250           1.563
 91  6 18 16  4  0.0000000  0  5G18G 2G11G16G19
  20695055.344      453047.199 7    334948.48823        26.500           2.656
  24061320.117     -962463.875 5   -710539.30421         9.250           0.375
  23991900.000     -740961.975 5   -516054.35321        10.250           0.438
  23941803.719     -599269.897 5   -416778.43721        10.750           0.344
  20470034.195      -62407.142 6    -43121.93721        19.750           1.469
 91  6 18 16  4 15.0000000  0  5G18G 2G11G16G19
  20699756.086      477749.246 7    354196.82123        26.500           2.688
  24051697.516    -1013024.070 5   -749936.80121         9.000           0.344
  23984583.258     -779411.548 5   -546015.00521        10.000           0.406
  23935973.945     -629902.609 5   -440648.06221        10.500           0.438
  20469483.297      -65284.924 7    -45364.36422        21.000           1.531
 91  6 18 16  4 30.0000000  0  5G18G 2G11G16G19
  20704472.344      502537.994 7    373512.71323        26.750           2.813
  24042078.609    -1063571.744 5   -789324.52621         8.500           0.313
  23977277.258     -817801.937 5   -575929.55821         9.750           0.344
  23930164.109     -660441.172 5   -464444.33121        10.250           0.438
  20468945.023      -68120.592 7    -47573.97422        20.750           1.500
 91  6 18 16  4 45.0000000  0  5G18G 2G11G16G19
  20709208.086      527415.167 7    392897.51623        26.750           2.688
  24032460.320    -1114104.996 5   -828701.02321         8.250           0.219
  23969983.820     -856130.993 5   -605796.30721        10.000           0.375
  23924368.461     -690883.639 5   -488165.70921        10.750           0.438
  20468413.438      -70912.425 7    -49749.42922        21.000           1.531
 91  6 18 16  5  0.0000000  0  5G18G 2G11G16G19
  20713957.336      552379.072 7    412349.89723        26.500           2.750
  24022849.719    -1164625.362 5   -868067.47021         8.750           0.406
  23962701.727     -894400.067 5   -635616.32021         9.750           0.438
  23918594.750     -721231.770 5   -511813.58121        11.000           0.406
  20467893.820      -73662.268 7    -51892.16522        20.250           1.531
 91  6 18 16  5 15.0000000  0  5G18G 2G11G16G19
  20718725.172      577427.691 7    431868.29023        26.750           2.781
  24013238.547    -1215134.629 5   -907425.26721         8.750           0.344
  23955432.867     -932610.611 5   -665390.71621        10.250           0.469
  23912833.727     -751486.867 5   -535388.97721        10.250           0.344
  20467374.727      -76372.096 7    -54003.72022        20.500           1.563
 91  6 18 16  5 30.0000000  0  5G18G 2G11G16G19
  20723508.211      602566.847 7    451457.22623        26.500           2.813
  24003631.352    -1265626.602 5   -946769.61221         8.250           0.344
  23948172.367     -970756.385 5   -695114.65721         9.750           0.469
  23907097.656     -781642.898 5   -558887.17621        10.250           0.406
  20466868.320      -79036.000 7    -56079.48521        21.250           1.438
 91  6 18 16  5 45.0000000  0  5G18G 2G11G16G19
  20728308.930      627791.367 7    471112.68823        26.750           2.781
  23994022.477    -1316106.252 5   -986104.33821         8.500           0.344
  23940925.648    -1008842.152 5   -724791.83821        10.000           0.406
  23901375.992     -811705.032 5   -582312.21521         9.500           0.344
  20466368.641      -81659.171 7    -58123.51721        21.250           1.469
 91  6 18 16  6  0.0000000  0  5G18G 2G11G16G19
  20733125.234      653104.881 7    490837.48823        26.750           2.875
  23984418.875    -1366569.468 5  -1025426.26521         8.000           0.406
  23933687.031    -1046863.634 5   -754418.91421         9.500           0.375
  23895673.875     -841669.061 5   -605660.78721        10.000           0.375
  20465883.375      -84237.725 6    -60132.77822        19.750           1.531
 91  6 18 16  6 15.0000000  0  5G18G 2G11G16G19
  20737958.195      678500.469 7    510626.25223        27.250           2.688
  23974820.055    -1417023.041 5  -1064740.65521         8.250           0.406
  23926464.445    -1084827.226 5   -784000.89421        10.000           0.406
  23889988.094     -871541.678 5   -628938.11021        10.000           0.406
  20465392.797      -86778.569 7    -62112.65722        21.250           1.500
 91  6 18 16  6 30.0000000  0  5G18G 2G11G16G19
  20742807.281      703984.527 7    530483.94723        26.500           2.781
  23965221.898    -1467460.192 5  -1104042.26221         8.750           0.406
  23919251.977    -1122726.015 5   -813532.36921         9.500           0.375
  23884324.648     -901315.833 5   -652138.74621        10.500           0.438
  20464918.805      -89275.323 7    -64058.17722        21.500           1.563
 91  6 18 16  6 45.0000000  0  5G18G 2G11G16G19
  20747674.781      729559.501 7    550412.48123        26.750           2.875
  23955624.117    -1517878.011 5  -1143328.81221         9.000           0.438
  23912055.734    -1160557.025 5   -843011.01921        10.250           0.469
  23878678.211     -930988.661 5   -675260.43221        10.500           0.406
  20464452.203      -91725.249 7    -65967.20922        21.250           1.563
 91  6 18 16  7  0.0000000  0  5G18G 2G11G16G19
  20752556.883      755221.545 7    570408.87223        26.000           2.719
  23946036.883    -1568280.305 5  -1182603.28021         9.000           0.406
  23904867.648    -1198323.670 5   -872439.55321        10.000           0.406
  23873050.680     -960563.987 5   -698306.10821        10.750           0.344
  20463994.633      -94132.207 7    -67842.76122        21.250           1.563
 91  6 18 16  7 15.0000000  0  5G18G 2G11G16G19
  20757458.000      780969.044 7    590471.84223        26.000           2.813
  23936448.023    -1618668.671 5  -1221866.87121         9.250           0.313
  23897692.961    -1236027.368 5   -901818.98821        10.500           0.313
  23867444.313     -990043.426 5   -721277.09421        11.000           0.469
  20463544.555      -96497.989 7    -69686.22922        21.500           1.500
 91  6 18 16  7 30.0000000  0  5G18G 2G11G16G19
  20762373.781      806803.088 7    610602.25623        26.250           2.781
  23926861.383    -1669041.448 5  -1261118.34121         8.750           0.344
  23890528.922    -1273666.361 5   -931148.05121        10.500           0.406
  23861848.992    -1019425.514 5   -744172.20621        10.250           0.500
  20463101.813      -98821.127 7    -71496.47022        20.500           1.500
 91  6 18 16  7 45.0000000  0  5G18G 2G11G16G19
  20767304.719      832721.980 7    630798.78023        25.750           2.813
  23917279.727    -1719399.977 5  -1300358.68421         9.250           0.344
  23883380.484    -1311241.737 5   -960427.51621        11.000           0.438
  23856275.039    -1048711.464 5   -766992.41821        10.750           0.375
  20462667.375     -101103.329 7    -73274.80822        21.250           1.563
 91  6 18 16  8  0.0000000  0  5G18G 2G11G16G19
  20772253.992      858729.431 7    651064.31323        25.750           2.750
  23907698.898    -1769740.602 5  -1339585.09121         9.250           0.313
  23876241.078    -1348749.464 5   -989654.28221        10.250           0.344
  23850721.438    -1077897.664 5   -789734.88721        10.750           0.375
  20462244.953     -103341.107 6    -75018.53522        19.750           1.500
 91  6 18 16  8 15.0000000  0  5G18G 2G11G16G19
  20777221.086      884825.453 7    671398.86323        25.500           2.656
  23898122.469    -1820062.622 5  -1378797.00721         9.500           0.313
  23869116.203    -1386188.832 5  -1018827.76421        10.750           0.313
  23845189.453    -1106982.954 5   -812398.73321        10.500           0.438
  20461823.508     -105533.912 7    -76727.21422        21.250           1.500
 91  6 18 16  8 30.0000000  0  5G18G 2G11G16G19
  20782203.563      911009.741 7    691802.19423        25.750           2.656
  23888551.367    -1870366.272 5  -1417994.61321        10.000           0.250
  23862005.961    -1423559.965 5  -1047948.09821        11.250           0.500
  23839670.672    -1135967.728 5   -834984.24521        10.500           0.438
  20461416.617     -107682.141 7    -78401.15921        20.500           1.406
 91  6 18 16  8 45.0000000  0  5G18G 2G11G16G19
  20787202.578      937281.826 7    712273.93423        25.750           2.656
  23878981.875    -1920651.755 5  -1457178.05221         9.250           0.406
  23854909.000    -1460862.769 5  -1077015.17021        10.750           0.344
  23834173.984    -1164851.922 5   -857491.39121        10.250           0.563
  20461016.148     -109786.316 7    -80040.77522        21.000           1.688
 91  6 18 16  9  0.0000000  0  5G18G 2G11G16G19
  20792219.297      963645.153 7    732816.77423        25.500           2.719
  23869414.297    -1970915.322 5  -1496344.42121         8.500           0.344
  23847822.602    -1498093.219 5  -1106025.85821        11.250           0.344
  23828697.539    -1193631.909 5   -879917.34521        10.750           0.438
  20460626.992     -111842.922 6    -81643.32722        19.750           1.531
 91  6 18 16  9 15.0000000  0  5G18G 2G11G16G19
  20797252.211      990096.047 7    753427.84523        25.500           2.719
  23859855.617    -2021160.085 5  -1535496.10921         9.500           0.344
  23840748.766    -1535254.334 5  -1134982.54521        10.250           0.313
  23823240.586    -1222311.136 5   -902264.78021        10.750           0.625
  20460240.852     -113855.158 7    -83211.30322        20.750           1.563
 91  6 18 16  9 30.0000000  0  5G18G 2G11G16G19
  20802303.203     1016633.470 7    774106.34223        25.750           2.719
  23850296.477    -2071387.107 5  -1574634.01821         9.250           0.344
  23833693.453    -1572346.870 5  -1163885.75821        10.750           0.406
  23817805.570    -1250890.003 5   -924534.01821        11.000           0.563
  20459868.570     -115824.248 7    -84745.66122        20.000           1.531
 91  6 18 16  9 45.0000000  0  5G18G 2G11G16G19
  20807370.383     1043259.263 7    794853.70323        26.000           2.688
  23840744.156    -2121594.301 5  -1613756.44421         9.750           0.313
  23826648.289    -1609368.420 5  -1192733.70421        10.750           0.313
  23812379.883    -1279366.585 5   -946723.52921        10.750           0.531
  20459500.156     -117748.388 7    -86244.99222        20.500           1.500
 91  6 18 16 10  0.0000000  0  5G18G 2G11G16G19
  20812453.055     1069975.500 7    815671.53423        25.750           2.688
  23831192.531    -2171779.182 5  -1652861.49721         9.250           0.375
  23819617.344    -1646316.391 5  -1221524.27821        10.250           0.313
  23806986.086    -1307738.603 6   -968831.60021        12.000           0.563
  20459145.086     -119625.467 6    -87707.65222        19.500           1.500
 91  6 18 16 10 15.0000000  0  5G18G 2G11G16G19
  20817553.078     1096775.051 7    836554.28723        25.500           2.719
  23821647.227    -2221948.656 5  -1691954.52121         9.750           0.406
  23812598.750    -1683197.498 5  -1250262.76721        10.500           0.375
  23801603.422    -1336012.742 6   -990863.36521        12.000           0.500
  20458793.383     -121462.548 7    -89139.14122        20.500           1.594
 91  6 18 16 10 30.0000000  0  5G18G 2G11G16G19
  20822670.523     1123662.939 7    857505.87423        26.000           2.750
  23812101.828    -2272097.527 5  -1731031.52221         9.500           0.406
  23805594.461    -1720006.433 5  -1278945.00421        10.500           0.219
  23796242.617    -1364183.763 6  -1012814.80621        12.500           0.563
  20458455.180     -123254.613 6    -90535.56321        19.750           1.469
 91  6 18 16 10 45.0000000  0  5G18G 2G11G16G19
  20827802.219     1150640.519 7    878527.35823        25.000           2.719
  23802564.563    -2322224.057 5  -1770091.09721        10.250           0.406
  23798603.125    -1756741.249 5  -1307569.49021        10.750           0.375
  23790902.891    -1392250.209 6  -1034684.74221        13.000           0.563
  20458121.313     -125000.159 7    -91895.72422        20.250           1.500
 91  6 18 16 11  0.0000000  0  5G18G 2G11G16G19
  20832954.289     1177703.939 7    899615.71823        25.500           2.719
  23793027.953    -2372331.772 5  -1809136.00421        10.250           0.344
  23791626.078    -1793405.200 5  -1336138.76221        10.750           0.281
  23785581.266    -1420215.326 6  -1056475.74221        13.250           0.625
  20457797.094     -126702.785 6    -93222.44421        19.750           1.469
 91  6 18 16 11 15.0000000  0  5G18G 2G11G16G19
  20838121.148     1204859.354 7    920775.77223        25.250           2.594
  23783500.867    -2422414.003 5  -1848161.07421        10.750           0.406
  23784664.984    -1829991.442 5  -1364647.48321        11.000           0.344
  23780280.234    -1448072.460 6  -1078182.60421        12.500           0.594
  20457480.648     -128356.250 6    -94510.86021        19.750           1.469
 91  6 18 16 11 30.0000000  0  5G18G 2G11G16G19
  20843307.055     1232108.746 7    942009.04823        25.750           2.688
  23773977.320    -2472468.694 5  -1887164.67121        10.750           0.406
  23777717.836    -1866497.607 5  -1393093.81821        11.000           0.281
  23775001.336    -1475819.800 6  -1099803.89121        12.000           0.594
  20457179.633     -129958.600 6    -95759.44622        19.000           1.500
 91  6 18 16 11 45.0000000  0  5G18G 2G11G16G19
  20848509.461     1259450.610 7    963314.38323        25.500           2.688
  23764453.141    -2522497.064 5  -1926147.75121        10.250           0.438
  23770785.031    -1902924.894 5  -1421478.66921        11.000           0.344
  23769740.789    -1503458.205 5  -1121340.29121        11.750           0.594
  20456882.164     -131511.394 7    -96969.41621        20.000           1.469
 91  6 18 16 12  0.0000000  0  5G18G 2G11G16G19
  20853731.109     1286886.198 7    984692.74723        25.750           2.625
  23754936.625    -2572497.585 5  -1965109.15321        10.000           0.438
  23763867.578    -1939271.519 5  -1449800.68221        11.000           0.344
  23764502.484    -1530986.236 6  -1142790.68921        12.000           0.688
  20456596.242     -133013.056 6    -98139.54822        19.250           1.531
 91  6 18 16 12 15.0000000  0  5G18G 2G11G16G19
  20858969.203     1314414.468 7   1006143.33423        25.500           2.563
  23745428.867    -2622470.930 5  -2004049.36521        10.500           0.313
  23756967.750    -1975538.022 5  -1478060.25921        11.250           0.344
  23759285.344    -1558404.573 6  -1164155.61421        12.250           0.563
  20456318.930     -134464.641 7    -99270.65122        20.000           1.531
 91  6 18 16 12 30.0000000  0  5G18G 2G11G16G19
  20864225.398     1342038.238 7   1027668.33523        25.750           2.719
  23735926.656    -2672413.902 5  -2042965.92321        11.000           0.406
  23750083.305    -2011721.002 5  -1506254.74021        11.500           0.375
  23754087.313    -1585710.260 5  -1185432.74821        11.750           0.656
  20456054.648     -135863.094 6   -100360.36021        19.250           1.469
 91  6 18 16 12 45.0000000  0  5G18G 2G11G16G19
  20869499.414     1369755.384 7   1049266.10123        25.500           2.656
  23726427.500    -2722328.689 5  -2081860.51721        10.500           0.375
  23743212.133    -2047822.398 5  -1534385.67521        11.250           0.438
  23748914.430    -1612905.072 6  -1206623.50121        12.250           0.656
  20455797.367     -137210.675 7   -101410.42222        20.250           1.500
 91  6 18 16 13  0.0000000  0  5G18G 2G11G16G19
  20874791.914     1397562.583 7   1070934.03423        25.750           2.688
  23716934.711    -2772218.355 5  -2120735.51721         9.750           0.313
  23736356.453    -2083844.969 5  -1562455.15921        11.250           0.313
  23743759.008    -1639991.921 6  -1227730.12421        12.000           0.563
  20455550.641     -138510.719 6   -102423.44722        19.500           1.531
 91  6 18 16 13 15.0000000  0  5G18G 2G11G16G19
  20880101.109     1425461.850 7   1092673.70823        25.750           2.688
  23707444.414    -2822080.204 5  -2159588.86221        10.000           0.344
  23729518.133    -2119786.032 5  -1590461.14321        11.500           0.469
  23738627.578    -1666968.197 6  -1248750.58421        12.250           0.625
  20455312.063     -139760.888 7   -103397.60822        20.000           1.500
 91  6 18 16 13 30.0000000  0  5G18G 2G11G16G19
  20885427.875     1453454.569 7   1114486.20223        25.750           2.625
  23697961.180    -2871912.608 5  -2198419.25021        10.500           0.469
  23722694.563    -2155643.654 5  -1618402.11921        11.250           0.344
  23733512.227    -1693832.532 6  -1269683.82721        12.250           0.656
  20455084.680     -140959.605 6   -104331.67721        19.250           1.438
 91  6 18 16 13 45.0000000  0  5G18G 2G11G16G19
  20890771.289     1481540.321 7   1136371.19023        25.250           2.625
  23688485.555    -2921715.861 5  -2237226.94721        10.750           0.344
  23715886.617    -2191417.878 5  -1646278.09621        11.000           0.438
  23728422.438    -1720584.994 6  -1290529.87521        12.250           0.719
  20454865.063     -142107.282 6   -105225.97221        19.750           1.406
 91  6 18 16 14  0.0000000  0  5G18G 2G11G16G19
  20896134.102     1509720.691 7   1158329.90323        25.750           2.719
  23679011.930    -2971488.079 5  -2276010.45621        10.000           0.406
  23709096.461    -2227106.561 5  -1674087.42321        11.250           0.313
  23723353.789    -1747223.626 6  -1311287.24121        12.250           0.750
  20454658.289     -143202.310 6   -106079.24421        19.500           1.375
 91  6 18 16 14 15.0000000  0  5G18G 2G11G16G19
  20901515.109     1537994.483 7   1180361.41323        26.250           2.688
  23669548.594    -3021230.090 5  -2314770.42021        10.250           0.406
  23702320.359    -2262710.553 5  -1701830.76121        11.500           0.313
  23718303.969    -1773749.599 6  -1331956.82321        12.000           0.656
  20454458.375     -144245.784 6   -106892.34021        19.750           1.438
 91  6 18 16 14 30.0000000  0  5G18G 2G11G16G19
  20906912.813     1566364.167 7   1202467.64823        25.500           2.656
  23660089.430    -3070939.452 5  -2353504.92021        10.750           0.406
  23695561.664    -2298226.887 5  -1729505.79621        11.750           0.344
  23713282.344    -1800159.974 6  -1352536.32621        12.500           0.719
  20454270.984     -145235.360 6   -107663.44021        19.250           1.406
 91  6 18 16 14 45.0000000  0  5G18G 2G11G16G19
  20912329.938     1594830.418 7   1224649.12723        25.500           2.563
  23650637.266    -3120614.515 5  -2392212.72721        10.750           0.375
  23688818.852    -2333653.950 5  -1757111.27521        11.250           0.438
  23708276.180    -1826453.238 6  -1373024.56621        12.250           0.719
  20454092.852     -146169.812 7   -108391.58921        20.000           1.406
 91  6 18 16 15  0.0000000  0  5G18G 2G11G16G19
  20917765.945     1623395.437 7   1246907.56923        25.500           2.500
  23641193.414    -3170252.958 5  -2430891.98621        11.500           0.500
  23682096.703    -2368989.349 5  -1784645.30821        11.750           0.406
  23703296.328    -1852627.508 6  -1393420.10321        12.250           0.688
  20453926.063     -147046.950 6   -109075.06921        19.250           1.344
 91  6 18 16 15 15.0000000  0  5G18G 2G11G16G19
  20923219.680     1652051.329 7   1269236.81523        25.500           2.688
  23631748.109    -3219862.506 5  -2469548.73921        10.000           0.563
  23675388.492    -2404240.630 5  -1812113.80921        11.750           0.344
  23698338.766    -1878690.183 6  -1413728.65721        12.750           0.719
  20453768.008     -147874.634 6   -109720.02221        19.500           1.375
 91  6 18 16 15 30.0000000  0  5G18G 2G11G16G19
  20928689.570     1680800.648 7   1291638.86923        25.250           2.688
  23622314.109    -3269440.426 5  -2508180.81021        10.000           0.563
  23668696.781    -2439404.869 6  -1839514.47921        12.000           0.406
  23693398.477    -1904638.632 6  -1433948.22421        12.750           0.563
  20453622.352     -148650.491 6   -110324.58421        18.750           1.469
 91  6 18 16 15 45.0000000  0  5G18G 2G11G16G19
  20934178.914     1709644.406 7   1314114.51223        25.250           2.563
  23612886.938    -3318985.205 5  -2546787.08321        11.000           0.625
  23662021.352    -2474480.235 6  -1866845.89921        12.000           0.406
  23688483.234    -1930471.054 6  -1454077.36821        12.250           0.531
  20453482.563     -149373.146 6   -110887.69321        19.750           1.375
 91  6 18 16 16  0.0000000  0  5G18G 2G11G16G19
  20939686.766     1738584.270 7   1336665.04123        25.500           2.688
  23603463.211    -3368495.177 5  -2585366.22821        11.000           0.469
  23655363.594    -2509464.908 6  -1894106.65721        12.000           0.344
  23683589.891    -1956185.877 6  -1474114.88321        12.250           0.656
  20453360.625     -150041.104 6   -111408.17721        18.250           1.406
 91  6 18 16 16 15.0000000  0  5G18G 2G11G16G19
  20945211.797     1767624.799 7   1359294.00423        25.000           2.625
  23594052.383    -3417965.527 5  -2623914.50721        10.750           0.594
  23648725.758    -2544353.828 5  -1921292.79221        11.750           0.469
  23678720.891    -1981778.559 6  -1494057.21021        12.250           0.656
  20453239.734     -150649.628 7   -111882.35721        20.000           1.344
 91  6 18 16 16 30.0000000  0  5G18G 2G11G16G19
  20950757.078     1796763.213 7   1381999.25023        25.250           2.625
  23584643.813    -3467398.507 5  -2662433.66821        11.000           0.469
  23642102.375    -2579148.788 5  -1948405.73521        11.000           0.438
  23673873.234    -2007250.799 6  -1513905.70021        12.000           0.563
  20453137.578     -151201.023 6   -112312.01721        19.000           1.469
 91  6 18 16 16 45.0000000  0  5G18G 2G11G16G19
  20956320.703     1825998.397 7   1404779.89323        24.750           2.594
  23575244.398    -3516794.879 5  -2700924.28921        11.250           0.563
  23635502.047    -2613850.685 5  -1975446.11821        11.500           0.438
  23669048.016    -2032603.715 6  -1533661.19621        12.000           0.656
  20453039.867     -151696.519 7   -112698.11721        20.000           1.438
 91  6 18 16 17  0.0000000  0  5G18G 2G11G16G19
  20961901.352     1855329.428 7   1427635.23123        25.250           2.563
  23565849.711    -3566155.303 5  -2739386.90521        11.250           0.625
  23628916.367    -2648460.108 5  -2002414.47621        11.500           0.438
  23664247.602    -2057837.771 6  -1553324.08621        12.000           0.719
  20452957.664     -152137.010 6   -113041.35921        19.500           1.344
 91  6 18 16 17 15.0000000  0  5G18G 2G11G16G19
  20967500.383     1884752.612 7   1450562.36922        24.750           2.438
  23556465.664    -3615483.127 5  -2777824.11021        11.250           0.500
  23622346.516    -2682979.997 5  -2029313.07421        11.500           0.375
  23659465.133    -2082956.393 5  -1572897.03221        11.750           0.750
  20452883.133     -152526.058 7   -113344.51421        20.250           1.344
 91  6 18 16 17 30.0000000  0  5G18G 2G11G16G19
  20973118.383     1914270.450 7   1473563.26823        25.250           2.656
  23547085.727    -3664775.542 5  -2816233.74721        11.250           0.563
  23615794.570    -2717407.341 5  -2056139.53821        11.750           0.563
  23654708.305    -2107956.967 5  -1592377.97921        11.250           0.656
  20452820.453     -152860.979 6   -113605.49521        19.000           1.344
 91  6 18 16 17 45.0000000  0  5G18G 2G11G16G19
  20978752.195     1943883.136 7   1496638.07023        24.500           2.563
  23537711.055    -3714032.269 5  -2854615.57121        11.250           0.594
  23609259.766    -2751741.650 6  -2082893.52721        12.000           0.375
  23649973.523    -2132838.698 5  -1611766.33421        11.500           0.688
  20452765.227     -153141.602 7   -113824.15721        20.000           1.344
 91  6 18 16 18  0.0000000  0  5G18G 2G11G16G19
  20984407.172     1973591.852 7   1519787.70723        25.000           2.500
  23528345.078    -3763251.895 5  -2892968.48121        11.000           0.531
  23602745.508    -2785981.309 5  -2109573.76121        11.750           0.406
  23645261.836    -2157600.650 5  -1631061.33921        11.250           0.688
  20452721.992     -153366.666 6   -113999.53521        19.750           1.313
 91  6 18 16 18 15.0000000  0  5G18G 2G11G16G19
  20990077.633     2003394.511 7   1543010.54223        24.750           2.625
  23518985.914    -3812435.988 5  -2931293.67521        10.750           0.625
  23596245.352    -2820127.803 6  -2136181.39921        12.000           0.344
  23640572.359    -2182244.175 5  -1650264.07621        11.250           0.750
  20452689.477     -153537.889 7   -114132.95421        20.250           1.469
 91  6 18 16 18 30.0000000  0  5G18G 2G11G16G19
  20995767.258     2033289.168 7   1566305.05823        25.000           2.594
  23509632.844    -3861586.162 5  -2969592.45821        11.250           0.594
  23589767.172    -2854182.467 6  -2162717.46921        12.250           0.344
  23635905.188    -2206771.069 5  -1669375.91721        11.750           0.719
  20452671.516     -153657.371 6                        18.500
 91  6 18 16 18 45.0000000  0  5G18G 2G11G16G19
  21001473.977     2063280.337 7   1589674.78223        24.500           2.625
  23500285.117    -3910697.628 5  -3007861.08921        11.250           0.594
  23583303.977    -2888140.394 5  -2189178.17921        11.750           0.344
  23631262.266    -2231176.474 6  -1688393.10721        12.000           0.688
  20452656.180     -153720.451 7                        20.000
 91  6 18 16 19  0.0000000  0  5G18G 2G11G16G19
  21007199.281     2093365.851 7   1613118.01923        24.750           2.750
  23490945.875    -3959772.360 5  -3046101.09721        10.750           0.531
  23576861.047    -2922003.520 6  -2215565.00121        12.250           0.531
  23626637.906    -2255462.199 5  -1707317.04521        11.750           0.563
  20452653.023     -153729.283 7                        20.250
 91  6 18 16 19 15.0000000  0  5G18G 2G11G16G19
  21012941.945     2123551.794 7   1636639.51723        24.500           2.594
  23481618.617    -4008803.819 5  -3084307.36821        10.750           0.594
  23570435.891    -2955764.924 6  -2241872.57621        12.000           0.406
  23622041.266    -2279621.699 5  -1726142.61821        11.750           0.688
  20452664.000     -153677.328 7                        20.000
 91  6 18 16 19 30.0000000  0  5G18G 2G11G16G19
  21018705.094     2153832.369 7   1660234.75322        24.500           2.406
  23472293.242    -4057797.432 5  -3122484.14821        10.750           0.594
  23564028.375    -2989429.879 6  -2268104.97621        12.250           0.469
  23617468.031    -2303660.689 5  -1744874.28421        11.750           0.688
  20452685.422     -153570.415 7                        20.000
 91  6 18 16 19 45.0000000  0  5G18G 2G11G16G19
  21024486.008     2184204.948 7   1683901.68123        24.500           2.500
  23462977.258    -4106755.877 5  -3160633.54621        11.250           0.500
  23557642.195    -3023000.746 6  -2294264.06921        12.500           0.500
  23612915.477    -2327581.714 5  -1763514.03521        11.750           0.625
  20452713.227     -153411.167 7                        20.250
 91  6 18 16 20  0.0000000  0  5G18G 2G11G16G19
  21030283.195     2214677.193 7   1707646.26922        24.500           2.406
  23453671.617    -4155671.053 5  -3198749.22921        11.500           0.594
  23551271.797    -3056469.344 6  -2320343.46921        12.250           0.406
  23608389.648    -2351376.365 6  -1782055.31921        12.000           0.719
  20452756.914     -153191.858 6                        19.750
 91  6 18 16 20 15.0000000  0  5G18G 2G11G16G19
  21036100.727     2245244.285 7   1731464.77022        24.250           2.469
  23444368.742    -4204547.374 5  -3236834.61821        11.000           0.625
  23544923.516    -3089839.847 6  -2346346.43121        12.500           0.438
  23603884.828    -2375049.412 5  -1800501.83021        11.750           0.750
  20452807.570     -152917.018 7   -113649.17921        20.250           1.438
 91  6 18 16 20 30.0000000  0  5G18G 2G11G16G19
  21041934.273     2275905.050 7   1755356.25722        24.000           2.469
  23435076.203    -4253385.667 5  -3274890.37821        11.500           0.625
  23538590.000    -3123112.952 6  -2372273.50421        12.750           0.344
  23599404.344    -2398601.888 5  -1818854.40121        11.750           0.625
  20452874.539     -152587.636 6   -113392.51422        18.750           1.531
 91  6 18 16 20 45.0000000  0  5G18G 2G11G16G19
  21047788.133     2306664.708 7   1779324.80422        24.500           2.438
  23425790.281    -4302180.452 6  -3312912.23821        12.000           0.594
  23532278.789    -3156283.086 6  -2398120.32721        12.750           0.531
  23594939.688    -2422028.078 5  -1837108.55721        10.750           0.656
  20452944.648     -152198.545 7   -113089.33121        20.000           1.344
 91  6 18 16 21  0.0000000  0  5G18G 2G11G16G19
  21053660.773     2337521.756 7   1803369.23922        24.250           2.406
  23416512.875    -4350932.766 5  -3350901.01821        11.750           0.625
  23525986.813    -3189351.192 6  -2423887.66021        12.750           0.469
  23590511.625    -2445328.705 5  -1855264.88621        11.250           0.656
  20453030.914     -151751.025 6   -112740.62221        19.250           1.375
 91  6 18 16 21 15.0000000  0  5G18G 2G11G16G19
  21059551.094     2368475.708 7   1827489.18222        24.000           2.375
  23407243.477    -4399642.755 5  -3388856.81721        11.250           0.625
  23519712.820    -3222317.207 6  -2449575.44021        12.500           0.500
  23586096.227    -2468504.234 5  -1873323.72521        10.500           0.625
  20453126.547     -151245.306 7   -112346.55621        20.250           1.375
 91  6 18 16 21 30.0000000  0  5G18G 2G11G16G19
  21065460.148     2399525.956 7   1851684.16722        24.000           2.406
  23397982.898    -4448310.805 5  -3426779.91021        11.500           0.656
  23513457.430    -3255181.112 6  -2475183.64321        12.000           0.500
  23581713.906    -2491555.141 5  -1891285.46421        11.500           0.625
  20453236.938     -150681.859 6   -111907.50421        19.000           1.344
 91  6 18 16 21 45.0000000  0  5G18G 2G11G16G19
  21071385.469     2430670.524 7   1875952.64722        23.750           2.438
  23388726.602    -4496938.887 5  -3464671.88221        11.250           0.625
  23507223.430    -3287944.737 6  -2500713.70821        12.500           0.469
  23577349.773    -2514483.254 5  -1909151.51721        11.500           0.625
  20453350.219     -150062.926 7   -111425.22421        20.000           1.406
 91  6 18 16 22  0.0000000  0  5G18G 2G11G16G19
  21077331.156     2461911.489 7   1900296.23522        23.750           2.250
  23379482.875    -4545524.512 5  -3502530.76321        11.750           0.500
  23501010.148    -3320605.300 6  -2526163.47321        12.750           0.531
  23573010.977    -2537285.941 5  -1926919.84721        11.750           0.625
  20453480.391     -149386.130 6   -110897.85621        19.500           1.313
 91  6 18 16 22 15.0000000  0  6G18G 2G11G16G19G 6
  21083293.578     2493247.700 7   1924714.04622        23.750           2.406
  23370244.039    -4594068.350 5  -3540357.09221        11.250           0.656
  23494812.406    -3353163.423 6  -2551533.41021        12.750           0.500
  23568695.164    -2559964.156 5  -1944591.17721        11.750           0.500
  20453620.633     -148652.400 7   -110326.12321        20.250           1.344
  24370106.867          -0.49415                         8.000
 91  6 18 16 22 30.0000000  0  6G18G 2G11G16G19G 6
  21089275.594     2524680.646 7   1949207.23222        23.750           2.344
  23361016.039    -4642568.682 5  -3578149.51421        11.250           0.625
  23488638.164    -3385617.263 6  -2576822.08921        12.750           0.625
  23564403.891    -2582516.062 6  -1962164.07921        12.250           0.563
  20453772.984     -147860.385 6   -109708.97221        19.750           1.438
  24362389.805      -40573.017 5                         8.250
 91  6 18 16 22 45.0000000  0  6G18G 2G11G16G19G 6
  21095274.602     2556207.410 7   1973773.51922        23.750           2.406
  23351794.211    -4691028.108 5  -3615910.06321        11.000           0.688
  23482480.445    -3417969.184 6  -2602031.35021        12.750           0.531
  23560137.727    -2604944.420 6  -1979640.71821        12.500           0.625
  20453933.398     -147012.683 7   -109048.42921        20.750           1.406
  24354671.891      -81130.868 5                         8.000
 91  6 18 16 23  0.0000000  0  6G18G 2G11G16G19G 6
  21101291.922     2587830.291 7   1998414.71122        23.500           2.406
  23342582.883    -4739444.029 5  -3653636.70421        11.250           0.656
  23476346.820    -3450216.508 6  -2627159.11121        13.250           0.469
  23555891.289    -2627246.795 6  -1997019.17821        12.250           0.531
  20454106.758     -146107.039 7   -108342.73922        20.250           1.563
  24346959.180     -121671.821 5                         8.500
 91  6 18 16 23 15.0000000  0  6G18G 2G11G16G19G 6
  21107328.148     2619548.599 7   2023130.25722        23.250           2.313
  23333374.313    -4787816.661 5  -3691329.62621        11.500           0.594
  23470228.844    -3482359.271 6  -2652205.38221        12.500           0.469
  23551672.625    -2649423.330 6  -2014299.58321        12.750           0.563
  20454286.992     -145143.906 7   -107592.24821        21.000           1.375
  24339247.102     -162196.165 5                         8.000
 91  6 18 16 23 30.0000000  0  6G18G 2G11G16G19G 6
  21113383.266     2651362.631 7   2047920.38622        24.000           2.344
  23324178.680    -4836145.773 5  -3728988.62921        11.500           0.531
  23464131.570    -3514397.069 6  -2677169.87321        12.750           0.531
  23547475.125    -2671473.891 6  -2031481.82521        13.250           0.531
  20454482.070     -144123.010 7   -106796.75121        20.250           1.438
  24331536.070     -202703.966 5        -0.03331         7.750           0.250
 91  6 18 16 23 45.0000000  0  6G18G 2G11G16G19G 6
  21119454.289     2683272.943 7   2072785.55022        23.500           2.281
  23314992.227    -4884430.326 5  -3766612.91721        11.500           0.656
  23458053.320    -3546328.605 6  -2702051.55521        12.500           0.469
  23543304.328    -2693397.213 6  -2048564.93221        13.250           0.469
  20454686.258     -143043.589 7   -105955.64121        20.750           1.406
  24323832.195     -243194.251 5    -31550.88321         7.750           0.250
 91  6 18 16 24  0.0000000  0  6G18G 2G11G16G19G 6
  21125544.773     2715277.359 7   2097724.03322        23.500           2.469
  23305811.188    -4932671.965 5  -3804203.76621        11.750           0.688
  23452001.086    -3578155.368 6  -2726851.60121        13.250           0.438
  23539156.148    -2715194.938 6  -2065550.16021        12.750           0.531
  20454905.859     -141907.494 6   -105070.37921        19.250           1.406
  24316139.156     -283668.839 5    -63089.50421         8.250           0.281
 91  6 18 16 24 14.9990000  0  6G18G 2G11G16G19G 6
  21131652.370     2747375.253 7   2122735.36022        23.750           2.344
  23296640.144    -4980865.819 6  -3841757.36721        12.000           0.688
  23445962.690    -3609873.386 6  -2751566.92121        12.500           0.531
  23535031.730    -2736864.091 6  -2082435.19221        13.250           0.594
  20455129.894     -140713.260 7   -104139.80621        20.500           1.406
  24308418.230     -324123.518 4    -94612.59821         6.250           0.281
 91  6 18 16 24 29.9990000  0  6G18G 2G11G16G19G 6
  21137779.308     2779573.184 7   2147824.63523        23.750           2.500
  23287477.714    -5029015.716 6  -3879276.73021        12.000           0.594
  23439949.214    -3641484.141 6  -2776198.63321        13.250           0.594
  23530931.581    -2758404.775 6  -2099220.13621        12.750           0.656
  20455370.190     -139458.343 7   -103161.95421        20.000           1.469
  24300738.284     -364561.244 4   -126122.47521         7.000           0.281
 91  6 18 16 24 44.9990000  0  6G18G 2G11G16G19G 6
  21143925.081     2811866.122 7   2172987.94522        24.000           2.438
  23278321.972    -5077120.941 5  -3916761.28721        11.500           0.719
  23433952.901    -3672987.931 6  -2800747.01821        12.750           0.594
  23526855.792    -2779818.367 6  -2115906.04321        13.250           0.500
  20455619.011     -138145.426 7   -102138.90922        20.500           1.500
  24293046.667     -404982.104 4   -157619.23121         7.000           0.250
 91  6 18 16 24 59.9990000  0  6G18G 2G11G16G19G 6
  21150087.573     2844250.480 7   2198222.48922        23.500           2.438
  23269175.753    -5125184.822 6  -3954213.61721        12.000           0.688
  23427978.190    -3704387.708 6  -2825214.34621        12.500           0.500
  23522805.995    -2801108.046 6  -2132495.40621        13.500           0.563
  20455880.120     -136778.005 7   -101073.39122        20.000           1.500
  24285360.683     -445389.483 5   -189105.46421         7.500           0.250
 91  6 18 16 25 14.9990000  0  6G18G 2G11G16G19G 6
  21156268.448     2876733.480 7   2223533.89322        23.500           2.375
  23260041.667    -5173199.871 6  -3991627.89021        12.250           0.719
  23422023.370    -3735675.883 6  -2849594.70921        12.500           0.500
  23518781.972    -2822266.244 6  -2148982.30721        13.750           0.438
  20456151.472     -135348.586 7    -99959.56121        20.500           1.438
  24277671.261     -485776.042 4   -220575.46221         7.250           0.156
 91  6 18 16 25 29.9990000  0  6G18G 2G11G16G19G 6
  21162469.651     2909315.586 7   2248922.52722        23.750           2.469
  23250910.940    -5221165.315 6  -4029003.52821        12.000           0.719
  23416091.214    -3766851.556 6  -2873887.40721        12.500           0.563
  23514777.690    -2843292.433 6  -2165366.35321        13.250           0.688
  20456436.730     -133856.793 6    -98797.13221        19.750           1.469
  24269991.815     -526141.173 5   -252028.78721         7.750           0.313
 91  6 18 16 25 44.9990000  0  6G18G 2G11G16G19G 6
  21168687.823     2941994.707 7   2274386.75622        24.250           2.469
  23241794.644    -5269082.665 5  -4066341.67521        11.500           0.688
  23410179.128    -3797916.112 6  -2898093.52721        12.000           0.531
  23510802.667    -2864188.134 6  -2181648.71121        13.000           0.500
  20456730.237     -132304.463 7    -97587.52921        20.500           1.469
  24262313.472     -566486.681 5   -283466.80721         8.000           0.219
 91  6 18 16 25 59.9990000  0  6G18G 2G11G16G19G 6
  21174925.292     2974771.670 7   2299927.23023        24.250           2.531
  23232684.894    -5316951.021 5  -4103641.64621        11.500           0.781
  23404289.011    -3828868.550 6  -2922212.27521        12.500           0.594
  23506849.159    -2884952.337 6  -2197828.59621        13.000           0.531
  20457040.034     -130690.949 6    -96330.25221        19.750           1.469
  24254637.605     -606812.001 5   -314889.11721         8.250           0.313
 91  6 18 16 26 14.9990000  0  6G18G 2G11G16G19G 6
  21181180.214     3007643.741 7   2325541.80422        24.000           2.438
  23223585.175    -5364772.803 6  -4140905.33521        12.000           0.719
  23398423.206    -3859710.932 6  -2946245.26621        13.000           0.563
  23502927.042    -2905587.437 6  -2213907.90521        13.250           0.594
  20457356.401     -129018.705 7    -95027.21021        20.500           1.438
  24246973.980     -647119.491 5   -346297.51121         9.250           0.250
 91  6 18 16 26 29.9990000  0  6G18G 2G11G16G19G 6
  21187453.144     3040607.486 7   2351227.81623        23.750           2.500
  23214493.628    -5412551.272 6  -4178135.26321        12.250           0.656
  23392570.511    -3890446.219 6  -2970194.81221        12.500           0.500
  23499021.964    -2926096.670 6  -2229889.12421        13.500           0.656
  20457686.464     -127290.949 6    -93680.91022        19.750           1.500
  24239295.050     -687412.417 5   -377694.60221         8.250           0.313
 91  6 18 16 26 44.9990000  0  6G18G 2G11G16G19G 6
  21193744.245     3073667.818 7   2376989.08922        24.000           2.469
  23205409.737    -5460280.945 6  -4215327.18021        12.250           0.656
  23386744.558    -3921068.921 6  -2994056.63521        12.500           0.500
  23495145.112    -2946474.607 6  -2245768.03521        13.500           0.625
  20458025.355     -125502.514 7    -92287.33321        20.500           1.438
  24231632.253     -727685.648 5   -409076.29621         8.250           0.344
 91  6 18 16 26 59.9990000  0  6G18G 2G11G16G19G 6
  21200053.417     3106824.385 7   2402825.35522        24.250           2.375
  23196336.230    -5507961.919 6  -4252481.14821        12.750           0.688
  23380938.308    -3951579.019 6  -3017830.69821        12.500           0.500
  23491292.425    -2966721.540 6  -2261544.85821        13.750           0.688
  20458378.737     -123653.823 6    -90846.80221        19.750           1.344
  24223969.120     -767939.590 5   -440442.99121         7.750           0.219
 91  6 18 16 27 14.9990000  0  6G18G 2G11G16G19G 6
  21206381.683     3140076.091 7   2428735.75122        24.250           2.406
  23187271.940    -5555594.741 6  -4289597.59221        12.500           0.594
  23375152.362    -3981977.045 6  -3041517.43521        12.000           0.500
  23487462.753    -2986838.339 6  -2277220.28521        13.750           0.688
  20458740.542     -121745.651 7    -89359.91821        20.250           1.406
  24216317.565     -808175.019 5   -471795.25721         8.500           0.250
 91  6 18 16 27 29.9990000  0  6G18G 2G11G16G19G 6
  21212727.214     3173421.558 7   2454719.20622        24.500           2.375
  23178218.417    -5603180.861 6  -4326677.64821        12.500           0.594
  23369388.714    -4012264.048 6  -3065117.65821        12.500           0.563
  23483661.526    -3006826.049 6  -2292795.11721        14.000           0.594
  20459114.706     -119779.473 6    -87827.83621        19.500           1.406
  24208666.886     -848393.297 5   -503134.14121         9.250           0.188
 91  6 18 16 27 44.9990000  0  6G18G 2G11G16G19G 6
  21219091.237     3206864.281 7   2480778.45022        24.250           2.406
  23169171.581    -5650716.305 6  -4363718.21621        12.750           0.563
  23363648.253    -4042435.861 6  -3088628.13921        12.250           0.406
  23479883.808    -3026680.957 6  -2308266.47121        14.000           0.625
  20459500.315     -117751.525 7    -86247.62321        20.000           1.344
  24201022.448     -888590.757 5   -534456.82921         9.500           0.250
 91  6 18 16 27 59.9990000  0  6G18G 2G11G16G19G 6
  21225473.761     3240405.183 7   2506914.19622        24.750           2.375
  23160136.026    -5698199.657 6  -4400718.20321        12.500           0.688
  23357931.425    -4072491.118 6  -3112047.78921        12.750           0.375
  23476129.847    -3046401.773 6  -2323633.33221        13.750           0.656
  20459901.073     -115660.621 6    -84618.35221        18.750           1.313
  24193370.698     -928766.303 5   -565762.43621         9.000           0.281
 91  6 18 16 28 14.9990000  0  6G18G 2G11G16G19G 6
  21231874.370     3274041.178 7   2533124.04222        24.750           2.406
  23151108.464    -5745633.725 6  -4437679.77521        12.500           0.563
  23352231.417    -4102432.396 6  -3135378.61421        12.500           0.469
  23472402.878    -3065990.931 6  -2338897.62121        14.000           0.656
  20460306.776     -113509.652 7    -82942.27221        20.000           1.406
  24185724.925     -968922.757 5   -597053.14721         8.000           0.156
 91  6 18 16 28 29.9990000  0  6G18G 2G11G16G19G 6
  21238293.980     3307774.135 7   2559409.43822        24.750           2.250
  23142094.956    -5793016.620 6  -4474601.46621        13.250           0.563
  23346556.480    -4132257.533 6  -3158618.96321        12.750           0.375
  23468698.167    -3085446.941 6  -2354058.14121        13.750           0.625
  20460732.714     -111296.763 6    -81217.95021        18.250           1.344
  24178090.019    -1009058.332 5   -628327.59121         8.000           0.250
 91  6 18 16 28 44.9990000  0  6G18G 2G11G16G19G 6
  21244730.886     3341600.561 7   2585767.66922        25.000           2.313
  23133086.120    -5840351.145 6  -4511485.49121        12.750           0.625
  23340901.964    -4161969.184 6  -3181770.86621        12.500           0.469
  23465020.034    -3104772.521 6  -2369117.03921        14.000           0.625
  20461159.847     -109025.098 6    -79447.82321        19.750           1.375
  24170455.347    -1049176.022 5   -659588.10021         8.000           0.250
 91  6 18 16 28 59.9990000  0  6G18G 2G11G16G19G 6
  21251185.581     3375523.140 7   2612200.82622        24.500           2.250
  23124086.745    -5887634.499 6  -4548329.62321        13.000           0.594
  23335270.480    -4191564.447 6  -3204832.08421        12.500           0.406
  23461370.347    -3123964.995 6  -2384072.21121        14.000           0.469
  20461607.839     -106692.140 6    -77629.94021        19.000           1.344
  24162825.151    -1089273.306 5   -690832.74021         8.000           0.313
 91  6 18 16 29 14.9990000  0  6G18G 2G11G16G19G 6
  21257659.105     3409536.257 7   2638704.52822        25.000           2.094
  23115098.323    -5934872.053 6  -4585138.07021        13.500           0.813
  23329659.847    -4221048.510 6  -3227806.64721        12.500           0.500
  23457739.362    -3143029.557 6  -2398927.72121        13.000           0.500
  20462059.472     -104303.331 6    -75768.53721        19.750           1.469
  24155197.722    -1129355.708 5   -722065.73621         7.500           0.375
 91  6 18 16 29 29.9990000  0  6G18G 2G11G16G19G 6
  21264147.620     3443639.379 7   2665278.37522        24.250           2.313
  23106117.753    -5982063.957 6  -4621910.93621        14.000           0.781
  23324071.058    -4250421.412 6  -3250694.59721        12.750           0.406
  23454137.940    -3161966.312 6  -2413683.62621        13.500           0.531
  20462525.776     -101859.040 6    -73863.89721        19.500           1.406
  24147577.612    -1169423.401 5   -753287.28621         8.000           0.344
 91  6 18 16 29 44.9990000  0  6G18G 2G11G16G19G 6
  21270656.800     3477839.079 7   2691927.46722        24.500           2.313
  23097148.292    -6029203.179 6  -4658642.77021        14.250           0.719
  23318503.948    -4279675.762 6  -3273490.16421        12.750           0.500
  23450557.597    -3180768.280 6  -2428334.51221        13.000           0.625
  20463000.425      -99352.320 6    -71910.61521        19.750           1.406
  24139955.253    -1209469.597 5   -784492.05221         8.000           0.344
 91  6 18 16 29 59.9990000  0  6G18G 2G11G16G19G 6
  21277181.167     3512128.487 7   2718646.46222        24.000           2.188
  23088185.628    -6076296.559 6  -4695338.87221        14.500           0.656
  23312957.558    -4308818.278 6  -3296198.57521        13.000           0.375
  23447005.776    -3199442.494 6  -2442885.84721        13.250           0.625
  20463492.355      -96790.117 6    -69914.09921        18.750           1.438
  24132332.737    -1249501.140 5   -815685.45921         8.000           0.250
 91  6 18 16 30 14.9990000  0  6G18G 2G11G16G19G 6
  21283724.276     3546509.768 7   2745437.04222        24.000           2.344
  23079235.948    -6123341.237 6  -4731997.02521        15.500           0.750
  23307434.894    -4337846.138 6  -3318817.67421        13.000           0.438
  23443478.370    -3217986.270 6  -2457335.54621        13.750           0.594
  20463986.269      -94169.880 6    -67872.36521        19.500           1.469
  24124722.651    -1289515.554 5   -846865.51221         8.500           0.125
 91  6 18 16 30 29.9990000  0  6G18G 2G11G16G19G 6
  21290283.987     3580986.108 7   2772301.69622        23.750           2.250
  23070292.253    -6170333.839 6  -4768614.60421        14.750           0.656
  23301931.870    -4366755.726 6  -3341344.60721        12.500           0.375
  23439972.308    -3236396.220 6  -2471680.96621        13.500           0.719
  20464497.097      -91488.436 6    -65782.93521        19.750           1.438
  24117113.394    -1329509.593 5   -878029.68021         9.000           0.281
 91  6 18 16 30 44.9990000  0  6G18G 2G11G16G19G 6
  21296862.378     3615553.134 7   2799237.01822        23.750           2.000
  23061358.605    -6217278.450 6  -4805194.77821        14.500           0.719
  23296452.050    -4395550.945 6  -3363782.41421        12.250           0.375
  23436497.190    -3254676.764 6  -2485925.54521        13.500           0.531
  20465019.151      -88750.068 7    -63649.14921        20.000           1.313
  24109509.245    -1369487.567 5   -909181.30121         9.000           0.313
 91  6 18 16 30 59.9990000  0  6G18G 2G11G16G19G 6
  21303458.261     3650211.632 7   2826243.61722        24.000           2.125
  23052434.362    -6264174.051 6  -4841736.78521        15.000           0.719
  23290996.183    -4424230.551 6  -3386130.13721        12.750           0.406
  23433042.909    -3272826.451 6  -2500068.15821        13.500           0.563
  20465555.026      -85953.763 6    -61470.21521        18.250           1.344
  24101902.409    -1409448.534 5   -940319.71321         9.000           0.188
 91  6 18 16 31 14.9990000  0  6G18G 2G11G16G19G 6
  21310069.675     3684959.626 7   2853319.95122        23.500           2.125
  23043519.448    -6311022.280 6  -4878241.86921        14.250           0.656
  23285559.206    -4452796.067 6  -3408388.94021        12.750           0.438
  23429613.206    -3290846.898 6  -2514110.06221        14.000           0.469
  20466093.151      -83101.383 7    -59247.59021        20.000           1.438
  24094301.073    -1449394.243 5   -971446.23321         9.000           0.219
 91  6 18 16 31 29.9990000  0  6G18G 2G11G16G19G 6
  21316700.034     3719798.329 7   2880466.96422        24.000           2.063
  23034613.761    -6357821.631 6  -4914708.85321        14.250           0.875
  23280145.620    -4481245.807 6  -3430557.54821        12.250           0.469
  23426208.886    -3308737.170 6  -2528050.54421        14.000           0.656
  20466647.792      -80191.450 7    -56980.11821        20.250           1.344
  24086701.355    -1489323.386 5  -1002559.79821         8.500           0.219
 91  6 18 16 31 44.9990000  0  6G18G 2G11G16G19G 6
  21323346.378     3754728.828 7   2907685.51722        23.000           1.938
  23025717.323    -6404570.636 6  -4951136.60121        14.500           0.719
  23274755.558    -4509578.114 6  -3452634.64321        12.750           0.469
  23422829.315    -3326495.491 6  -2541888.19321        14.000           0.594
  20467211.839      -77222.686 7    -54666.80321        20.250           1.406
  24079104.284    -1529234.678 5  -1033659.47921         8.250           0.125
 91  6 18 16 31 59.9990000  0  6G18G 2G11G16G19G 6
  21330010.440     3789749.517 7   2934974.33822        23.250           2.000
  23016832.245    -6451270.410 6  -4987526.00921        14.750           0.719
  23269384.237    -4537794.068 6  -3474621.06621        12.500           0.500
  23419475.362    -3344123.129 6  -2555624.01821        14.250           0.719
  20467788.253      -74196.535 7    -52308.76821        20.250           1.375
  24071515.190    -1569129.500 5  -1064746.37421         8.250           0.219
 91  6 18 16 32 14.9990000  0  6G18G 2G11G16G19G 6
  21336691.472     3824859.813 7   2962332.98922        23.250           1.938
  23007951.784    -6497921.273 6  -5023877.30721        14.000           0.688
  23264039.487    -4565893.672 6  -3496516.83821        13.000           0.375
  23416146.745    -3361620.213 6  -2569258.11521        14.250           0.688
  20468375.128      -71113.406 7    -49906.33721        20.500           1.438
  24063930.526    -1609008.286 5  -1095820.70921         8.000           0.188
 91  6 18 16 32 29.9990000  0  6G18G 2G11G16G19G 6
  21343390.300     3860065.172 7   2989765.71322        23.000           2.000
  22999086.651    -6544517.632 6  -5060186.12221        14.000           0.875
  23258713.644    -4593871.345 6  -3518317.59621        12.750           0.469
  23412842.831    -3378981.408 6  -2582786.32521        14.500           0.750
  20468974.011      -67967.841 7    -47455.25321        20.000           1.438
  24056342.698    -1648865.569 5  -1126878.29821         8.250           0.156
 91  6 18 16 32 44.9990000  0  6G18G 2G11G16G19G 6
  21350106.901     3895357.975 7   3017266.57122        23.000           1.938
  22990228.956    -6591066.421 6  -5096457.85821        14.500           0.906
  23253412.050    -4621733.987 6  -3540028.71421        12.750           0.281
  23409562.237    -3396213.501 6  -2596213.93521        14.250           0.656
  20469582.831      -64767.103 7    -44961.18121        20.250           1.344
  24048758.636    -1688708.584 5  -1157924.79821         7.750           0.188
 91  6 18 16 32 59.9990000  0  6G18G 2G11G16G19G 6
  21356839.323     3930740.822 7   3044837.59422        22.250           1.906
  22981381.190    -6637564.786 6  -5132690.32621        14.750           0.813
  23248132.190    -4649478.477 6  -3561647.77721        12.250           0.438
  23406308.675    -3413313.832 6  -2609538.86921        14.250           0.563
  20470205.378      -61508.512 6    -42422.02221        19.250           1.438
  24041179.003    -1728534.605 5  -1188958.02121         7.500           0.219
 91  6 18 16 33 14.9990000  0  6G18G 2G11G16G19G 6
  21363593.855     3966225.883 7   3072488.25522        22.750           1.938
  22972542.745    -6684000.419 6  -5168873.90921        14.000           0.875
  23242878.112    -4677092.161 6  -3583164.89521        12.750           0.563
  23403081.190    -3430270.230 6  -2622751.64621        14.250           0.719
  20470836.214      -58179.690 7    -39828.14321        20.250           1.375
  24033604.183    -1768331.305 4  -1219968.38721         7.250           0.281
 91  6 18 16 33 29.9990000  0  6G18G 2G11G16G19G 6
  21370362.909     4001800.083 7   3100208.39422        22.500           1.969
  22963716.472    -6730386.183 6  -5205018.61921        14.250           0.813
  23237646.128    -4704587.738 6  -3604589.99621        12.750           0.375
  23399878.503    -3447095.807 6  -2635862.48621        13.750           0.625
  20471481.644      -54793.664 6    -37189.68421        19.750           1.344
  24026038.331    -1808111.774 5  -1250966.13421         7.500           0.281
 91  6 18 16 33 44.9990000  0  6G18G 2G11G16G19G 6
  21377150.308     4037463.288 7   3127997.86822        22.500           1.969
  22954900.042    -6776721.574 6  -5241124.08821        14.500           0.906
  23232435.136    -4731964.648 6  -3625922.62821        12.250           0.469
  23396700.690    -3463789.914 6  -2648870.86921        13.750           0.688
  20472135.105      -51350.271 7    -34506.52821        20.250           1.375
  24018469.417    -1847875.651 5  -1281950.95321         7.750           0.156
 91  6 18 16 33 59.9990000  0  6G18G 2G11G16G19G 6
  21383953.995     4073216.572 7   3155857.54522        23.250           1.938
  22946089.565    -6823005.395 6  -5277189.37421        14.000           0.844
  23227250.315    -4759221.771 6  -3647161.90821        12.750           0.438
  23393548.972    -3480351.437 6  -2661775.96621        13.500           0.781
  20472803.886      -47848.510 6    -31777.88521        18.750           1.344
  24010907.597    -1887622.114 5  -1312922.19721         8.250           0.250
 91  6 18 16 34 14.9990000  0  6G18G 2G11G16G19G 6
  21390773.698     4109054.753 7   3183783.37822        22.500           1.938
  22937292.472    -6869242.572 6  -5313218.30521        14.000           0.844
  23222084.784    -4786363.559 6  -3668311.33921        13.000           0.438
  23390422.995    -3496785.208 6  -2674581.50521        13.500           0.750
  20473478.612      -44293.376 7    -29007.66022        20.000           1.500
  24003347.698    -1927356.015 5  -1343883.64021         8.250           0.313
 91  6 18 16 34 29.9990000  0  6G18G 2G11G16G19G 6
  21397609.440     4144977.416 7   3211775.02922        23.000           1.969
  22928504.355    -6915433.149 6  -5349210.93521        14.750           0.969
  23216941.417    -4813389.989 6  -3689370.86621        13.000           0.469
  23387319.198    -3513091.400 6  -2687287.63721        13.250           0.813
  20474165.659      -40685.008 6    -26195.95122        19.250           1.500
  23995786.159    -1967077.595 5  -1374835.50421         8.000           0.188
 91  6 18 16 34 44.9990000  0  6G18G 2G11G16G19G 6
  21404460.253     4180985.940 7   3239833.59022        22.250           1.875
  22919721.362    -6961575.144 6  -5385165.70321        14.250           0.938
  23211820.190    -4840299.103 6  -3710338.98521        13.000           0.500
  23384242.401    -3529268.280 6  -2699893.00021        13.500           0.688
  20474861.425      -37021.770 7    -23341.48621        20.000           1.375
  23988231.370    -2006785.176 5  -1405776.42521         8.000           0.250
 91  6 18 16 34 59.9990000  0  6G18G 2G11G16G19G 6
  21411328.925     4217080.630 7   3267959.29622        22.500           1.844
  22910950.839    -7007668.095 6  -5421082.25421        13.750           1.031
  23206721.878    -4867090.288 6  -3731215.20921        13.000           0.500
  23381188.909    -3545315.205 6  -2712397.09421        13.500           0.813
  20475572.050      -33303.263 6    -20443.95521        19.500           1.344
  23980677.511    -2046478.305 5  -1436706.11321         8.250           0.344
 91  6 18 16 35 14.9990000  0  6G18G 2G11G16G19G 6
  21418214.972     4253263.960 7   3296154.06822        22.500           1.875
  22902188.808    -7053709.308 6  -5456958.48521        13.500           0.969
  23201645.323    -4893760.616 6  -3751997.25021        12.750           0.500
  23378162.362    -3561229.758 6  -2724798.04921        13.750           0.688
  20476289.933      -29526.873 7    -17501.31921        20.250           1.438
  23973129.761    -2086154.581 5  -1467622.68221         8.500           0.156
 91  6 18 16 35 29.9990000  0  6G18G 2G11G16G19G 6
  21425116.730     4289535.548 7   3324417.61322        22.250           1.875
  22893437.644    -7099698.943 6  -5492794.52621        14.250           0.906
  23196594.433    -4920309.927 6  -3772685.00521        13.000           0.469
  23375156.323    -3577011.926 6  -2737095.85021        13.500           0.719
  20477019.034      -25692.891 6    -14513.80621        19.500           1.344
  23965581.065    -2125814.138 5  -1498526.20721         8.250           0.188
 91  6 18 16 35 44.9990000  0  6G18G 2G11G16G19G 6
  21432035.534     4325891.862 7   3352747.17722        23.000           1.844
  22884698.480    -7145640.045 6  -5528592.76221        14.250           0.906
  23191563.667    -4946741.368 6  -3793280.90421        12.750           0.500
  23372180.222    -3592664.832 6  -2749292.93021        13.750           0.719
  20477758.222      -21804.677 6    -11484.03121        19.750           1.375
  23958037.886    -2165460.224 5  -1529419.25121         8.250           0.281
 91  6 18 16 35 59.9990000  0  6G18G 2G11G16G19G 6
  21438971.151     4362333.624 7   3381143.33122        22.500           1.844
  22875963.425    -7191531.339 6  -5564352.17821        14.250           0.969
  23186557.323    -4973053.480 6  -3813783.82221        13.250           0.406
  23369224.261    -3608187.392 6  -2761388.43721        13.500           0.750
  20478509.917      -17861.070 6     -8411.09721        19.750           1.469
  23950493.081    -2205091.825 5  -1560300.96621         8.250           0.219
 91  6 18 16 36 14.9990000  0  6G18G 2G11G16G19G 6
  21445921.034     4398859.915 7   3409605.33922        22.500           1.906
  22867239.370    -7237373.386 6  -5600073.21521        14.750           0.813
  23181573.878    -4999246.681 6  -3834194.08721        13.500           0.469
  23366294.690    -3623580.201 6  -2773382.83621        13.000           0.719
  20479269.690      -13862.865 6     -5295.61821        19.750           1.406
  23942956.956    -2244709.618 5  -1591171.95821         9.000           0.313
 91  6 18 16 36 29.9990000  0  6G18G 2G11G16G19G 6
  21452887.362     4435468.478 7   3438131.46622        22.500           1.906
  22858525.714    -7283168.372 6  -5635757.59421        15.250           0.906
  23176610.300    -5025322.945 6  -3854513.22421        12.750           0.563
  23363390.347    -3638845.695 6  -2785278.04221        14.000           0.625
  20480043.894       -9812.293 6     -2139.33422        19.000           1.500
  23935416.065    -2284315.981 5  -1622034.03521         8.750           0.250
 91  6 18 16 36 44.9990000  0  6G18G 2G11G16G19G 6
  21459870.409     4472164.714 7   3466725.89622        22.250           2.000
  22849822.362    -7328910.388 6  -5671400.70121        14.750           0.906
  23171673.339    -5051276.418 6  -3874736.68821        13.250           0.531
  23360508.909    -3653978.144 6  -2797069.55521        13.000           0.781
  20480821.886       -5703.751 7      1062.12421        20.250           1.406
  23927885.800    -2323905.283 5  -1652882.81821         9.000           0.250
 91  6 18 16 36 59.9990000  0  6G18G 2G11G16G19G 6
  21466869.581     4508944.863 7   3495385.72222        22.750           1.906
  22841123.636    -7374602.923 6  -5707005.23821        15.000           0.938
  23166757.323    -5077110.402 6  -3894867.03421        13.500           0.438
  23357655.292    -3668980.722 6  -2808759.88721        13.500           0.719
  20481616.058       -1540.892 6      4305.90322        19.500           1.563
  23920350.401    -2363481.150 5  -1683721.12521         9.000           0.313
 91  6 18 16 37 14.9990000  0  6G18G 2G11G16G19G 6
  21473885.636     4545811.758 7   3524113.14222        22.500           1.750
  22832442.308    -7420242.724 6  -5742568.69321        15.500           0.844
  23161863.409    -5102821.412 6  -3914901.56421        13.500           0.438
  23354827.136    -3683850.405 6  -2820346.65721        13.750           0.750
  20482417.284        2679.564 6      7594.56321        19.750           1.375
  23912829.394    -2403040.374 5  -1714546.45521        10.000           0.313
 91  6 18 16 37 29.9990000  0  6G18G 2G11G16G19G 6
  21480915.940     4582766.109 7   3552908.70822        22.250           1.906
  22823766.933    -7465828.974 6  -5778090.42321        15.000           0.844
  23156995.714    -5128408.503 6  -3934839.53221        13.750           0.500
  23352021.198    -3698586.403 6  -2831829.25521        13.250           0.875
  20483232.636        6958.408 6     10928.72721        19.500           1.438
  23905299.948    -2442582.314 5  -1745358.34821         9.750           0.281
 91  6 18 16 37 44.9990000  0  6G18G 2G11G16G19G 6
  21487966.722     4619806.604 7   3581771.39822        22.750           1.813
  22815101.448    -7511362.691 6  -5813571.20621        15.250           0.906
  23152148.894    -5153872.335 6  -3954681.46321        13.000           0.594
  23349244.519    -3713189.731 6  -2843208.47621        13.500           0.781
  20484056.737       11294.436 6     14307.44821        19.750           1.438
  23897776.503    -2482107.898 5  -1776157.46621         9.750           0.375
 91  6 18 16 37 59.9990000  0  6G18G 2G11G16G19G 6
  21495030.120     4656931.038 7   3610699.49822        22.750           1.844
  22806446.308    -7556845.541 6  -5849012.35921        15.500           1.000
  23147326.784    -5179214.715 6  -3974428.75621        13.250           0.594
  23346491.081    -3727662.065 6  -2854485.62221        13.250           0.781
  20484893.542       15685.604 6     17729.13022        19.250           1.563
  23890265.089    -2521619.153 5  -1806945.43721        10.250           0.406
 91  6 18 16 38 14.9990000  0  6G18G 2G11G16G19G 6
  21502111.284     4694141.750 7   3639694.83122        22.500           1.938
  22797800.745    -7602274.934 6  -5884411.85721        14.750           1.031
  23142527.894    -5204432.842 6  -3994079.21321        13.750           0.563
  23343759.370    -3742001.100 6  -2865658.90221        13.250           0.750
  20485738.792       20134.446 6     21195.75421        19.750           1.406
  23882746.175    -2561113.665 5  -1837720.37321        10.500           0.406
 91  6 18 16 38 29.9990000  0  6G18G 2G11G16G19G 6
  21509208.808     4731437.286 7   3668756.24822        22.500           1.906
  22789165.628    -7647652.032 6  -5919770.59421        15.500           1.000
  23137753.175    -5229527.670 6  -4013633.60621        14.000           0.625
  23341055.667    -3756207.993 6  -2876729.21521        12.750           0.750
  20486598.651       24639.496 6     24706.17821        19.250           1.469
  23875233.808    -2600592.638 5  -1868483.17321         9.750           0.375
 91  6 18 16 38 44.9990000  0  6G18G 2G11G16G19G 6
  21516322.425     4768817.779 7   3697883.87322        22.500           2.000
  22780542.542    -7692976.346 6  -5955088.21821        15.750           0.938
  23133000.167    -5254498.700 6  -4033091.51721        13.250           0.563
  23338377.698    -3770282.305 6  -2887696.22021        12.750           0.781
  20487465.526       29200.987 7     28260.58821        20.000           1.438
  23867717.151    -2640055.952 5  -1899233.75921         9.500           0.344
 91  6 18 16 38 59.9990000  0  6G18G 2G11G16G19G 6
  21523451.698     4806286.585 7   3727080.30922        22.500           1.906
  22771928.136    -7738244.011 6  -5990361.69621        16.000           0.969
  23128273.253    -5279341.868 6  -4052449.80921        13.000           0.625
  23335725.526    -3784220.287 6  -2898556.98821        12.750           0.750
  20488343.542       33822.843 6     31862.02321        19.250           1.406
  23860216.081    -2679499.835 5  -1929969.21821         9.750           0.281
 91  6 18 16 39 14.9990000  0  6G18G 2G11G16G19G 6
  21530598.847     4843843.272 7   3756345.22722        22.500           1.906
  22763323.925    -7783455.211 6  -6025591.18321        15.500           0.938
  23123568.956    -5304057.257 6  -4071708.53121        13.250           0.500
  23333100.073    -3798022.355 6  -2909311.85821        13.000           0.844
  20489235.706       38504.654 7     35510.18521        20.250           1.438
  23852712.972    -2718924.615 5  -1960689.80221         9.500           0.250
 91  6 18 16 39 29.9990000  0  6G18G 2G11G16G19G 6
  21537763.355     4881490.631 7   3785680.79722        22.500           1.813
  22754731.940    -7828607.016 6  -6060774.36521        16.000           0.969
  23118892.042    -5328641.738 6  -4090865.24421        13.500           0.531
  23330499.394    -3811685.498 6  -2919958.45521        12.500           0.781
  20490139.690       43249.337 6     39207.33721        19.750           1.469
  23845218.565    -2758327.414 5  -1991393.24521        10.000           0.375
 91  6 18 16 39 44.9990000  0  6G18G 2G11G16G19G 6
  21544945.589     4919232.267 7   3815089.83122        22.250           1.813
  22746151.636    -7873695.251 6  -6095908.03021        16.000           1.000
  23114238.323    -5353090.956 6  -4109916.57521        13.750           0.500
  23327928.042    -3825205.455 6  -2930493.49421        12.500           0.844
  20491053.315       48060.934 7     42956.62621        20.250           1.469
  23837723.823    -2797704.270 5  -2022076.48621         9.250           0.313
 91  6 18 16 39 59.9990000  0  6G18G 2G11G16G19G 6
  21552144.120     4957064.393 7   3844569.37422        21.750           1.844
  22737583.909    -7918723.628 6  -6130995.04321        16.250           1.031
  23109611.073    -5377408.543 6  -4128865.32321        13.500           0.594
  23325381.815    -3838586.072 6  -2940919.95621        12.500           0.719
  20491981.237       52935.484 6     46754.97221        19.500           1.375
  23830238.581    -2837059.007 5  -2052742.48621        10.250           0.281
 91  6 18 16 40 14.9990000  0  6G18G 2G11G16G19G 6
  21559360.581     4994986.738 7   3874119.21722        22.500           1.750
  22729027.308    -7963691.774 6  -6166035.13221        16.250           1.000
  23105008.378    -5401594.173 6  -4147711.24221        13.250           0.625
  23322860.511    -3851827.315 6  -2951237.80921        12.250           0.813
  20492920.495       57873.131 7     50602.48421        20.000           1.406
  23822748.831    -2876391.336 5  -2083391.02421        10.500           0.219
 91  6 18 16 40 29.9990000  0  6G18G 2G11G16G19G 6
  21566594.495     5033000.304 7   3903740.14922        22.500           1.750
  22720480.581    -8008598.562 6  -6201027.40521        16.500           1.000
  23100433.261    -5425646.390 6  -4166453.19621        13.500           0.625
  23320369.909    -3864928.110 6  -2961446.22721        12.500           0.906
  20493875.698       62875.150 6     54500.15622        18.500           1.500
  23815268.769    -2915700.401 5  -2114021.46221        10.500           0.375
 91  6 18 16 40 44.9990000  0  6G18G 2G11G16G19G 6
  21573845.269     5071106.278 7   3933433.08122        22.500           1.813
  22711946.769    -8053442.254 6  -6235970.51421        16.250           0.969
  23095880.605    -5449563.429 6  -4185089.82721        13.500           0.438
  23317901.722    -3877886.726 6  -2971543.84921        12.250           0.813
  20494836.995       67942.880 6     58449.02921        19.750           1.406
  23807796.433    -2954984.628 5  -2144632.52821        11.000           0.313
 91  6 18 16 40 59.9990000  0  6G18G 2G11G16G19G 6
  21581115.136     5109305.123 7   3963198.38322        22.250           1.875
  22703426.003    -8098222.202 6  -6270863.95221        16.500           0.969
  23091355.472    -5473344.493 6  -4203620.50521        13.750           0.688
  23315462.620    -3890702.653 6  -2981530.28621        12.250           0.781
  20495818.714       73076.914 6     62449.57622        18.000           1.500
  23800324.753    -2994243.443 5  -2175223.80421        11.250           0.375
 91  6 18 16 41 14.9990000  0  6G18G 2G11G16G19G 6
  21588402.909     5147599.941 7   3993038.46422        22.750           1.750
  22694917.487    -8142934.963 6  -6305705.03721        16.250           1.031
  23086858.394    -5496986.070 6  -4222042.49621        13.750           0.563
  23313049.292    -3903372.605 6  -2991402.99321        12.250           0.625
  20496803.511       78280.509 6     66504.32022        19.250           1.500
  23792857.917    -3033473.676 5  -2205792.78821        11.000           0.500
 91  6 18 16 41 29.9990000  0  6G18G 2G11G16G19G 6
  21595707.792     5185991.263 7   4022953.74722        22.250           1.813
  22686421.144    -8187579.779 6  -6340493.17121        16.250           0.906
  23082384.659    -5520487.299 6  -4240355.12521        13.500           0.531
  23310673.425    -3915895.702 6  -3001161.25221        12.250           0.719
  20497811.792       83554.271 6     70613.74221        18.750           1.438
  23785399.214    -3072674.754 5  -2236339.05121        10.750           0.313
 91  6 18 16 41 44.9990000  0  6G18G 2G11G16G19G 6
  21603032.261     5224480.606 7   4052945.40922        22.500           1.750
  22677938.409    -8232154.536 6  -6375226.72921        16.000           1.063
  23077938.901    -5543845.798 6  -4258556.52421        13.750           0.594
  23308316.495    -3928269.887 6  -3010803.47921        12.250           0.781
  20498825.401       88900.181 6     74779.38522        19.500           1.500
  23777944.394    -3111844.445 5  -2266860.85421         9.500           0.438
 91  6 18 16 41 59.9990000  0  6G18G 2G11G16G19G 6
  21610375.331     5263068.447 7   4083013.82622        22.000           1.656
  22669470.433    -8276658.733 6  -6409905.29721        16.500           1.063
  23073522.081    -5567061.062 6  -4276646.31921        14.000           0.594
  23305988.995    -3940494.944 5  -3020329.50321        11.750           0.750
  20499858.136       94318.721 6     79001.61921        19.000           1.438
  23770500.019    -3150982.481 5  -2297358.00221         9.500           0.438
 91  6 18 16 42 14.9990000  0  6G18G 2G11G16G19G 6
  21617737.112     5301754.717 7   4113158.93422        22.000           1.781
  22661014.472    -8321092.001 6  -6444528.58921        16.750           1.000
  23069129.870    -5590132.487 6  -4294624.03621        13.750           0.594
  23303689.792    -3952570.537 6  -3029739.06121        12.250           0.813
  20500901.401       99810.160 6     83280.65521        19.500           1.469
  23763054.464    -3190088.767 5  -2327830.38521         9.250           0.563
 91  6 18 16 42 29.9990000  0  6G18G 2G11G16G19G 6
  21625119.175     5340544.564 7   4143384.75322        22.750           1.719
  22652573.917    -8365448.645 6  -6479092.18921        16.750           0.969
  23064769.534    -5613054.401 6  -4312485.24721        13.500           0.531
  23301424.956    -3964491.279 6  -3039027.96621        12.500           0.656
  20501962.464      105379.661 6     87620.51921        18.500           1.406
  23755620.284    -3229157.642 5  -2358273.63621         9.000           0.531
 91  6 18 16 42 44.9990000  0  6G18G 2G11G16G19G 6
  21632519.589     5379435.652 7   4173689.46722        22.250           1.750
  22644146.980    -8409730.987 6  -6513597.87921        17.250           0.938
  23060434.901    -5635828.878 6  -4330231.57421        13.000           0.531
  23299181.862    -3976259.192 6  -3048197.76921        12.000           0.781
  20503035.050      111025.110 6     92019.56721        19.500           1.344
  23748191.456    -3268191.613 5  -2388689.67721         8.250           0.438
 91  6 18 16 42 59.9990000  0  6G18G 2G11G16G19G 6
  21639939.698     5418430.198 7   4204074.79122        22.500           1.750
  22635735.808    -8453936.303 6  -6548043.55521        17.250           0.969
  23056132.065    -5658453.061 6  -4347860.79821        13.750           0.563
  23296974.675    -3987871.489 6  -3057246.32621        12.250           0.656
  20504125.151      116748.923 6     96479.67321        19.250           1.469
  23740772.769    -3307188.026 5  -2419076.44221         9.000           0.406
 91  6 18 16 43 14.9990000  0  6G18G 2G11G16G19G 6
  21647380.605     5457531.934 7   4234543.65022        21.750           1.688
  22627338.261    -8498060.419 6  -6582425.96121        17.250           0.969
  23051855.495    -5680922.855 6  -4365369.70721        13.750           0.531
  23294791.901    -3999324.485 6  -3066170.75521        12.500           0.719
  20505227.683      122555.006 6    101003.88821        19.000           1.406
  23733357.995    -3346143.012 5  -2449430.96421         9.250           0.375
 91  6 18 16 43 29.9990000  0  6G18G 2G11G16G19G 6
  21654841.300     5496740.253 7   4265095.54322        21.750           1.688
  22618958.105    -8542103.729 6  -6616745.40621        17.250           1.031
  23047608.440    -5703238.461 6  -4382758.47021        13.750           0.563
  23292644.753    -4010618.782 6  -3074971.52321        12.750           0.625
  20506353.089      128443.056 6    105591.97421        17.750           1.438
  23725955.425    -3385057.095 5  -2479753.58321         9.750           0.375
 91  6 18 16 43 44.9990000  0  6G18G 2G11G16G19G 6
  21662324.261     5536056.166 7   4295731.28322        22.000           1.656
  22610591.730    -8586064.922 6  -6651000.84821        17.250           1.094
  23043391.097    -5725398.283 6  -4400025.85021        13.750           0.688
  23290526.534    -4021753.048 6  -3083647.57921        12.250           0.688
  20507486.128      134414.227 6    110244.83022        19.250           1.531
  23718555.659    -3423929.023 5  -2510043.38921         9.000           0.344
 91  6 18 16 43 59.9990000  0  6G18G 2G11G16G19G 6
  21669825.253     5575478.957 7   4326450.31122        21.250           1.688
  22602242.081    -8629944.285 6  -6685192.53121        17.500           1.094
  23039202.440    -5747402.499 6  -4417171.97521        13.500           0.656
  23288436.808    -4032727.402 6  -3092199.03121        12.250           0.688
  20508637.706      140468.272 6    114962.25821        19.000           1.344
  23711165.253    -3462759.107 5  -2540300.57221         9.500           0.344
 91  6 18 16 44 14.9990000  0  6G18G 2G11G16G19G 6
  21677349.831     5615016.909 7   4357259.06922        22.000           1.594
  22593907.995    -8673732.991 6  -6719313.58221        16.750           1.063
  23035048.519    -5769242.327 6  -4434189.99321        14.000           0.563
  23286380.440    -4043533.316 6  -3100619.23121        12.500           0.781
  20509807.331      146613.556 6    119750.78221        19.000           1.438
  23703791.198    -3501538.955 5  -2570518.62521        10.000           0.281
 91  6 18 16 44 29.9990000  0  6G18G 2G11G16G19G 6
  21684894.065     5654670.882 7   4388158.24122        21.500           1.594
  22585594.105    -8717430.279 6  -6753363.38321        16.750           1.031
  23030924.105    -5790916.826 6  -4451079.20221        14.000           0.688
  23284359.331    -4054170.232 6  -3108907.75221        13.000           0.781
  20510995.190      152850.871 6    124611.02321        19.000           1.438
  23696420.800    -3540267.693 5  -2600696.85521         9.250           0.313
 91  6 18 16 44 44.9990000  0  6G18G 2G11G16G19G 6
  21692462.362     5694440.902 7   4419147.83322        21.500           1.563
  22577296.042    -8761035.674 6  -6787341.58821        16.750           1.156
  23026830.480    -5812425.357 6  -4467839.07721        14.000           0.594
  23282362.636    -4064637.790 6  -3117064.30921        12.750           0.750
  20512198.011      159180.491 6    129543.18621        19.000           1.438
  23689059.042    -3578945.001 5  -2630834.99221         8.750           0.406
 91  6 18 16 44 59.9990000  0  6G18G 2G11G16G19G 6
  21700053.808     5734333.569 7   4450233.00022        21.500           1.625
  22569018.097    -8804542.115 6  -6821242.68621        16.250           1.125
  23022770.511    -5833760.963 6  -4484464.21621        14.250           0.719
  23280408.808    -4074929.015 6  -3125083.45221        12.750           0.781
  20513421.542      165609.166 6    134552.53621        18.750           1.375
  23681706.745    -3617564.164 5  -2660927.81421         8.750           0.281
 91  6 18 16 45 14.9990000  0  6G18G 2G11G16G19G 6
  21707667.050     5774344.348 7   4481410.19322        21.250           1.625
  22560755.245    -8847953.553 6  -6855069.74021        16.500           1.125
  23018743.144    -5854927.442 6  -4500957.55421        13.750           0.594
  23278480.089    -4085048.050 6  -3132968.42221        12.500           0.750
  20514664.534      172132.632 6    139635.75021        19.500           1.406
  23674370.362    -3656129.280 5  -2690978.52621         8.500           0.438
 91  6 18 16 45 29.9990000  0  6G18G 2G11G16G19G 6
  21715305.425     5814482.128 7   4512686.34422        21.250           1.625
  22552513.589    -8891260.913 6  -6888815.71721        16.500           1.125
  23014747.901    -5875915.551 6  -4517311.91521        13.750           0.594
  23276590.144    -4094985.727 6  -3140712.07421        13.000           0.688
  20515928.480      178760.167 6    144800.05321        18.250           1.375
  23667045.308    -3694631.392 5  -2720980.14921         8.000           0.344
 91  6 18 16 45 44.9990000  0  6G18G 2G11G16G19G 6
  21722969.089     5854748.999 7   4544063.09022        21.500           1.594
  22544293.636    -8934461.812 6  -6922478.72921        16.000           1.188
  23010790.980    -5896722.704 6  -4533525.26021        14.250           0.563
  23274735.706    -4104739.832 6  -3148312.69021        12.750           0.781
  20517206.128      185494.209 6    150047.35221        19.250           1.406
  23659732.097    -3733068.089 5  -2750930.79021         8.500           0.469
 91  6 18 16 45 59.9990000  0  6G18G 2G11G16G19G 6
  21730655.097     5895143.133 7   4575539.00622        21.250           1.531
  22536094.886    -8977557.757 6  -6956059.94021        17.000           1.094
  23006862.394    -5917350.401 6  -4549598.77721        14.250           0.656
  23272909.534    -4114311.985 6  -3155771.51321        12.750           0.844
  20518509.253      192332.855 6    155376.16221        18.750           1.375
  23652426.901    -3771441.119 5  -2780831.81721         9.000           0.406
 91  6 18 16 46 14.9990000  0  6G18G 2G11G16G19G 6
  21738367.761     5935670.212 7   4607118.51122        21.750           1.500
  22527913.940    -9020542.720 6  -6989554.70721        16.750           1.063
  23002973.534    -5937792.465 6  -4565527.66121        14.750           0.594
  23271129.378    -4123696.211 6  -3163083.90921        12.750           0.813
  20519830.409      199282.064 6    160791.12521        19.000           1.281
  23645137.026    -3809744.601 5  -2810678.67321         9.250           0.469
 91  6 18 16 46 29.9990000  0  6G18G 2G11G16G19G 6
  21746105.175     5976332.068 7   4638803.04521        21.500           1.375
  22519754.144    -9063414.869 6  -7022961.53821        16.500           1.031
  22999119.323    -5958046.733 6  -4581310.19921        14.500           0.656
  23269377.831    -4132890.556 6  -3170248.34521        12.750           0.656
  20521176.815      206343.788 6    166293.76221        18.000           1.438
  23637862.792    -3847976.587 5  -2840469.79921         9.250           0.469
 91  6 18 16 46 44.9990000  0  6G18G 2G11G16G19G 6
  21753870.292     6017134.409 7   4670597.04521        20.750           1.406
  22511619.167    -9106167.857 6  -7056275.53521        17.250           1.219
  22995303.331    -5978106.976 6  -4596941.55121        14.250           0.688
  23267665.433    -4141889.152 6  -3177260.24421        12.750           0.719
  20522540.331      213523.837 6    171888.59221        18.750           1.469
  23630602.026    -3886131.079 5  -2870200.55121        10.250           0.281
 91  6 18 16 46 59.9990000  0  6G18G 2G11G16G19G 6
  21761660.987     6058079.170 7   4702502.01321        21.000           1.375
  22503506.386    -9148799.680 6  -7089495.11621        16.750           1.156
  22991522.300    -5997971.101 6  -4612420.07221        14.500           0.625
  23265990.472    -4150690.042 6  -3184118.08221        12.500           0.688
  20523930.190      220824.212 6    177577.19221        18.750           1.469
  23623357.112    -3924206.192 5  -2899869.45621        10.500           0.469
 91  6 18 16 47 14.9990000  0  6G18G 2G11G16G19G 6
  21769480.730     6099170.086 7   4734520.87521        20.750           1.375
  22495416.355    -9191306.224 6  -7122617.07621        16.750           1.156
  22987780.597    -6017634.809 6  -4627742.43521        14.750           0.719
  23264355.847    -4159289.147 6  -3190818.70021        12.750           0.781
  20525342.315      228248.942 6    183362.68521        19.000           1.375
  23616129.472    -3962197.922 5  -2929473.38621        10.250           0.219
 91  6 18 16 47 29.9990000  0  6G18G 2G11G16G19G 6
  21777327.862     6140409.068 7   4766655.10721        20.750           1.469
  22487352.808    -9233684.829 6  -7155639.34221        17.250           1.188
  22984077.597    -6037095.305 6  -4642906.45121        14.750           0.563
  23262756.112    -4167683.911 6  -3197360.08021        12.250           0.719
  20526781.050      235800.476 6    189246.98721        18.250           1.438
  23608917.292    -4000103.756 5  -2959010.37121        10.250           0.250
 91  6 18 16 47 44.9990000  0  6G18G 2G11G16G19G 6
  21785203.214     6181798.158 7   4798906.30321        21.000           1.469
  22479314.050    -9275933.160 6  -7188560.10321        17.000           1.031
  22980412.159    -6056350.334 6  -4657910.35521        14.750           0.688
  23261200.550    -4175872.328 6  -3203740.67521        12.250           0.719
  20528242.136      243481.091 6    195231.87821        19.000           1.438
  23601721.034    -4037921.612 5  -2988478.81821        10.500           0.219
 91  6 18 16 47 59.9990000  0  6G18G 2G11G16G19G 6
  21793109.792     6223345.131 7   4831280.52921        21.250           1.406
  22471299.933    -9318042.997 6  -7221372.93621        16.500           1.156
  22976789.894    -6075391.639 6  -4672747.73421        14.750           0.719
  23259680.401    -4183846.106 5  -3209954.02721        11.750           0.688
  20529727.964      251298.760 6    201323.55622        18.750           1.500
  23594540.964    -4075643.419 5  -3017872.43721        10.500           0.406
 91  6 18 16 48 14.9990000  0  6G18G 2G11G16G19G 6
  21801047.409     6265047.728 7   4863776.01821        21.250           1.313
  22463313.222    -9360016.513 6  -7254079.54721        16.750           1.156
  22973205.355    -6094221.031 6  -4687419.97621        14.250           0.625
  23258201.409    -4191607.803 6  -3216002.11021        12.000           0.781
  20531242.761      259251.246 6    207520.28221        19.250           1.406
  23587377.565    -4113271.319 5  -3047192.85321        10.250           0.375
 91  6 18 16 48 29.9990000  0  6G18G 2G11G16G19G 6
  21809012.737     6306911.702 7   4896397.25721        21.250           1.375
  22455353.339    -9401847.830 6  -7286675.35321        16.750           1.281
  22969664.230    -6112832.611 6  -4701922.49421        14.250           0.719
  23256768.128    -4199151.022 6  -3221879.95421        12.000           0.844
  20532782.870      267344.481 6    213826.69121        19.000           1.406
  23580238.167    -4150799.577 5  -3076435.62921        10.250           0.375
 91  6 18 16 48 44.9990000  0  6G18G 2G11G16G19G 6
  21817008.636     6348934.363 7   4929142.15421        20.750           1.313
  22447421.042    -9443539.058 6  -7319161.98821        17.750           1.156
  22966163.612    -6131228.561 6  -4716256.99121        14.500           0.656
  23255373.190    -4206478.597 6  -3227589.75721        12.250           0.750
  20534348.503      275576.037 6    220240.88421        19.000           1.406
  23573113.995    -4188230.556 5  -3105602.62021        10.250           0.281
 91  6 18 16 48 59.9990000  0  6G18G 2G11G16G19G 6
  21825037.542     6391121.543 7   4962015.24321        21.000           1.281
  22439513.480    -9485083.831 6  -7351534.51321        17.750           1.188
  22962707.362    -6149402.420 6  -4730418.43021        15.000           0.625
  23254023.940    -4213584.163 6  -3233126.57521        12.250           0.813
  20535945.175      283951.996 6    226767.59621        17.750           1.406
  23566010.706    -4225558.068 5  -3134688.96021        10.000           0.313
 91  6 18 16 49 14.9990000  0  6G18G 2G11G16G19G 6
  21833096.558     6433476.209 7   4995018.84521        21.000           1.344
  22431637.737    -9526479.086 6  -7383790.53221        18.250           1.156
  22959292.011    -6167350.868 6  -4744404.23021        14.750           0.625
  23252715.894    -4220464.822 6  -3238488.13321        12.500           0.875
  20537564.480      292475.460 6    233409.25022        18.750           1.500
  23558927.253    -4262778.986 5  -3163692.24521        10.750           0.375
 91  6 18 16 49 29.9990000  0  6G18G 2G11G16G19G 6
  21841188.847     6475999.039 7   5028153.47521        21.000           1.313
  22423787.722    -9567723.650 6  -7415929.12921        18.500           1.250
  22955917.870    -6185072.685 6  -4758213.43321        14.250           0.719
  23251447.261    -4227119.339 6  -3243673.48921        12.500           0.813
  20539215.339      301147.395 6    240166.59021        18.250           1.438
  23551867.745    -4299892.407 5  -3192611.77521        11.250           0.406
 91  6 18 16 49 44.9990000  0  6G18G 2G11G16G19G 6
  21849313.800     6518694.406 7   5061422.56021        21.000           1.281
  22415969.448    -9608812.791 6  -7447946.62421        18.750           1.219
  22952589.308    -6202562.992 6  -4771842.23521        14.000           0.594
  23250222.737    -4233542.969 6  -3248678.92321        12.000           0.781
  20540893.823      309972.439 6    247043.23921        18.750           1.438
  23544825.284    -4336893.616 5  -3221443.85221        11.000           0.344
 91  6 18 16 49 59.9990000  0  6G18G 2G11G16G19G 6
  21857471.323     6561560.659 7   5094824.79421        21.250           1.281
  22408180.456    -9649748.043 6  -7479844.20121        19.000           1.156
  22949305.308    -6219823.137 6  -4785291.69021        14.750           0.625
  23249046.401    -4239737.629 5  -3253505.94321        11.750           0.813
  20542602.620      318949.065 6    254038.00321        18.250           1.344
  23537804.495    -4373784.332 5  -3250189.84921        10.750           0.375
 91  6 18 16 50 14.9990000  0  6G18G 2G11G16G19G 6
  21865661.534     6604601.667 7   5128363.20121        21.000           1.281
  22400420.386    -9690525.307 6  -7511618.66521        19.250           1.250
  22946064.612    -6236849.059 6  -4798558.62321        14.500           0.750
  23247910.862    -4245699.207 5  -3258151.34321        11.500           0.750
  20544340.058      328081.137 6    261153.89522        18.750           1.531
  23530808.409    -4410560.489 5  -3278846.55721        10.750           0.344
 91  6 18 16 50 29.9990000  0  6G18G 2G11G16G19G 6
  21873884.706     6647808.999 7   5162031.21521        21.500           1.313
  22392689.339    -9731152.591 6  -7543276.26621        19.250           1.219
  22942868.097    -6253648.750 6  -4811649.29621        14.500           0.688
  23246817.151    -4251436.172 5  -3262621.72521        11.500           0.688
  20546104.956      337360.471 6    268384.53822        18.250           1.500
  23523830.565    -4447230.286 5  -3307420.39521        10.750           0.344
 91  6 18 16 50 44.9990000  0  6G18G 2G11G16G19G 6
  21882139.526     6691191.857 7   5195836.00221        21.000           1.313
  22384987.253    -9771619.996 6  -7574809.29021        19.250           1.281
  22939716.386    -6270212.224 6  -4824555.89121        14.000           0.750
  23245772.933    -4256938.488 5  -3266909.25021        11.750           0.875
  20547900.925      346796.860 6    275737.55922        18.750           1.500
  23516873.355    -4483784.090 5  -3335903.85021        10.750           0.406
 91  6 18 16 50 59.9990000  0  6G18G 2G11G16G19G 6
  21890427.136     6734748.158 7   5229775.93621        20.750           1.219
  22377317.315    -9811929.389 6  -7606219.18021        19.500           1.250
  22936609.222    -6286541.312 6  -4837279.84221        14.000           0.688
  23244768.253    -4262208.302 6  -3271015.60721        12.000           0.781
  20549727.753      356388.242 6    283211.36022        18.500           1.500
  23509938.440    -4520223.850 5  -3364298.42221        11.250           0.375
 91  6 18 16 51 14.9990000  0  6G18G 2G11G16G19G 6
  21898750.089     6778478.382 7   5263851.39321        21.000           1.281
  22369676.605    -9852080.131 6  -7637505.44821        18.750           1.219
  22933544.730    -6302635.170 6  -4849820.50521        13.500           0.656
  23243814.480    -4267244.974 6  -3274940.30421        12.500           0.813
  20551581.526      366135.416 6    290806.54821        18.750           1.375
  23503027.722    -4556548.912 5  -3392603.65321        11.250           0.313
 91  6 18 16 51 29.9990000  0  6G18G 2G11G16G19G 6
  21907104.347     6822381.378 7   5298061.48521        20.750           1.219
  22362067.159    -9892072.799 6  -7668668.54021        19.250           1.219
  22930527.917    -6318494.447 6  -4862178.37321        14.000           0.625
  23242903.276    -4272049.228 6  -3278683.88121        12.500           0.781
  20553467.417      376037.548 6    298522.48821        18.250           1.406
  23496132.659    -4592760.255 5  -3420820.25521        11.750           0.406
 91  6 18 16 51 44.9990000  0  6G18G 2G11G16G19G 6
  21915491.651     6866458.091 7   5332406.93421        20.750           1.281
  22354485.839    -9931906.237 6  -7699707.56221        19.250           1.219
  22927554.839    -6334117.846 6  -4874352.45521        13.750           0.563
  23242024.901    -4276619.973 6  -3282245.51721        12.250           0.688
  20555380.331      386095.781 6    306360.06721        19.000           1.406
  23489267.230    -4628856.657 6  -3448947.28621        12.250           0.344
 91  6 18 16 51 59.9990000  0  6G18G 2G11G16G19G 6
  21923911.112     6910706.272 7   5366885.99821        20.500           1.219
  22346936.628    -9971582.459 6  -7730624.07721        19.500           1.156
  22924626.565    -6349507.181 6  -4886344.13121        14.000           0.625
  23241202.980    -4280959.408 6  -3285626.91421        12.000           0.781
  20557324.972      396307.767 6    314317.45021        18.000           1.406
  23482416.128    -4664840.212 6  -3476986.40321        12.500           0.406
 91  6 18 16 52 14.9990000  0  6G18G 2G11G16G19G 6
  21932364.089     6955127.109 7   5401499.59321        20.500           1.250
  22339417.175   -10011099.730 7  -7761416.73321        20.000           1.156
  22921742.487    -6364660.697 6  -4898152.05721        13.750           0.688
  23240421.823    -4285066.048 6  -3288826.90221        12.000           0.688
  20559295.745      406675.169 6    322395.94022        18.750           1.500
  23475593.292    -4700709.385 6  -3504936.37321        12.500           0.500
 91  6 18 16 52 29.9990000  0  6G18G 2G11G16G19G 6
  21940850.878     6999718.827 7   5436246.35321        20.750           1.219
  22331926.901   -10050459.564 6  -7792086.71921        19.500           1.250
  22918905.433    -6379579.870 6  -4909777.37521        14.500           0.625
  23239684.847    -4288941.534 5  -3291846.77321        11.750           0.688
  20561300.573      417196.485 6    330594.36321        18.000           1.469
  23468792.237    -4736465.820 6  -3532798.49321        12.500           0.531
 91  6 18 16 52 44.9990000  0  6G18G 2G11G16G19G 6
  21949368.394     7044481.926 7   5471126.64721        20.750           1.250
  22324467.519   -10089661.133 7  -7822633.36521        20.000           1.219
  22916108.831    -6394263.768 6  -4921219.36921        14.000           0.656
  23238989.370    -4292585.130 5  -3294685.94221        11.250           0.781
  20563330.183      427872.360 6    338913.21821        18.750           1.438
  23462005.667    -4772108.853 6  -3560572.25121        12.250           0.531
 91  6 18 16 52 59.9990000  0  6G18G 2G11G16G19G 6
  21957918.105     7089415.490 7   5506139.77321        20.000           1.281
  22317037.011   -10128705.151 7  -7853057.26121        20.000           1.281
  22913360.894    -6408712.877 6  -4932478.40521        14.750           0.688
  23238337.300    -4295997.503 5  -3297344.94321        11.500           0.781
  20565394.206      438701.898 6    347351.81222        17.750           1.500
  23455246.151    -4807639.218 5  -3588258.21521        11.500           0.563
 91  6 18 16 53 14.9990000  0  6G18G 2G11G16G19G 6
  21966499.628     7134512.178 7   5541280.00221        20.500           1.281
  22309635.565   -10167598.513 7  -7883363.75921        20.000           1.281
  22910655.378    -6422934.133 6  -4943559.89821        14.750           0.656
  23237735.925    -4299185.620 5  -3299829.19821        11.750           0.688
  20567478.542      449678.078 6    355904.67021        18.500           1.406
  23448504.651    -4843063.894 5  -3615861.83321        11.000           0.438
 91  6 18 16 53 29.9990000  0  6G18G 2G11G16G19G 6
  21975113.605     7179771.876 7   5576547.26421        20.500           1.313
  22302263.706   -10206340.800 7  -7913552.52121        20.250           1.219
  22907990.855    -6436926.981 6  -4954463.41821        14.750           0.719
  23237174.136    -4302149.486 5  -3302138.71821        11.500           0.750
  20569600.347      460801.311 6    364572.11021        17.000           1.469
  23441784.073    -4878382.565 5  -3643382.82721        11.000           0.500
 91  6 18 16 53 44.9990000  0  6G18G 2G11G16G19G 6
  21983754.784     7225185.743 7   5611934.64421        20.500           1.219
  22294916.519   -10244940.944 6  -7943630.54421        19.250           1.219
  22905370.862    -6450700.159 6  -4965195.76221        14.500           0.813
  23236647.331    -4304898.147 5  -3304280.54921        11.750           0.719
  20571738.808      472062.634 6    373347.16821        19.000           1.406
  23435081.901    -4913604.232 5  -3670828.25621        11.000           0.531
 91  6 18 16 53 59.9990000  0  6G18G 2G11G16G19G 6
  21992427.190     7270755.351 7   5647443.39121        20.500           1.188
  22287600.214   -10283396.599 6  -7973595.96521        19.750           1.219
  22902791.550    -6464251.629 6  -4975755.34421        14.250           0.625
  23236162.112    -4307429.570 6  -3306253.08321        12.000           0.781
  20573912.464      483463.919 6    382231.27621        17.500           1.281
  23428395.401    -4948726.994 5  -3698196.60321        10.750           0.469
 91  6 18 16 54 14.9990000  0  6G18G 2G11G16G19G 6
  22001127.331     7316477.716 6   5683071.16921        19.750           1.219
  22280308.737   -10321710.488 6  -8003450.92521        19.500           1.219
  22900254.034    -6477583.926 6  -4986144.13621        14.500           0.688
  23235730.745    -4309746.436 6  -3308058.44821        12.250           0.719
  20576104.940      495002.331 6    391222.24021        18.750           1.469
  23421730.355    -4983753.629 5  -3725490.06721        10.750           0.469
 91  6 18 16 54 29.9990000  0  6G18G 2G11G16G19G 6
  22009856.042     7362351.704 6   5718817.08821        19.750           1.344
  22273043.714   -10359883.612 6  -8033196.18821        19.250           1.375
  22897759.050    -6490697.735 6  -4996362.68321        14.500           0.719
  23235318.722    -4311849.809 6  -3309697.44921        12.250           0.656
  20578327.394      506676.979 6    400319.36222        18.000           1.500
  23415083.815    -5018684.980 5  -3752709.26221        11.250           0.563
 91  6 18 16 54 44.9990000  0  6G18G 2G11G16G19G 6
  22018613.503     7408368.573 6   5754674.35421        19.250           1.094
  22265806.065   -10397924.124 7  -8062838.12021        20.250           1.406
  22895306.261    -6503601.435 6  -5006417.50521        14.750           0.625
  23234957.089    -4313748.195 6  -3311176.71821        12.000           0.656
  20580570.550      518479.478 6    409516.10821        18.750           1.469
  23408452.136    -5053529.700 5  -3779860.98521        10.750           0.406
 91  6 18 16 54 59.9990000  0  6G18G 2G11G16G19G 6
  22027397.206     7454525.456 6   5790640.70421        19.750           1.188
  22258590.784   -10435834.636 6  -8092378.75221        19.000           1.375
  22892887.847    -6516297.565 6  -5016310.60321        14.500           0.750
  23234637.815    -4315444.244 6  -3312498.32321        12.250           0.656
  20582844.730      530406.919 6    418810.21222        17.500           1.500
  23401841.144    -5088290.373 5  -3806947.17721        11.250           0.531
 91  6 18 16 55 14.9990000  0  6G18G 2G11G16G19G 6
  22036206.019     7500816.546 7   5826711.64321        20.000           1.281
  22251401.065   -10473620.617 6  -8121822.34421        19.250           1.406
  22890511.784    -6528791.295 6  -5026045.95521        14.750           0.656
  23234355.933    -4316943.504 6  -3313666.59321        12.250           0.750
  20585133.995      542454.096 6    428197.61421        18.500           1.469
  23395239.589    -5122972.371 5  -3833972.08321        10.750           0.563
 91  6 18 16 55 29.9990000  0  6G18G 2G11G16G19G 6
  22045039.503     7547237.790 6   5862883.99721        19.750           1.344
  22244233.487   -10511285.513 6  -8151171.59121        19.500           1.281
  22888170.776    -6541086.135 6  -5035626.36121        14.750           0.688
  23234100.972    -4318249.696 6  -3314684.41521        12.000           0.656
  20587449.456      554617.228 6    437675.37321        18.750           1.344
  23388656.276    -5157579.446 5  -3860938.59821        10.750           0.531
 91  6 18 16 55 44.9990000  0  6G18G 2G11G16G19G 6
  22053897.253     7593783.120 7   5899153.03221        20.000           1.250
  22237087.222   -10548835.472 6  -8180431.27721        19.500           1.375
  22885866.933    -6553188.074 6  -5045056.43421        14.500           0.688
  23233889.425    -4319368.839 5  -3315556.50821        11.750           0.719
  20589784.011      566890.182 6    447238.70421        19.000           1.469
  23382081.409    -5192117.719 5  -3887851.51621        10.750           0.563
 91  6 18 16 55 59.9990000  0  6G18G 2G11G16G19G 6
  22062777.980     7640449.235 6   5935516.20221        19.500           1.219
  22229964.159   -10586273.452 7  -8209603.69221        20.250           1.469
  22883600.636    -6565099.951 6  -5054338.41021        14.750           0.656
  23233713.206    -4320304.098 5  -3316285.29221        11.750           0.688
  20592145.003      579269.794 6    456885.14821        17.250           1.438
  23375521.855    -5226590.363 5  -3914713.27421        10.750           0.563
 91  6 18 16 56 14.9990000  0  6G18G 2G11G16G19G 6
  22071679.448     7687231.544 6   5971969.90321        19.500           1.250
  22222860.190   -10623603.622 6  -8238692.12721        19.750           1.438
  22881369.425    -6576825.879 6  -5063475.49721        15.000           0.688
  23233570.722    -4321059.836 5  -3316874.19121        11.750           0.656
  20594513.675      591751.984 6    466611.52521        18.750           1.281
  23368973.972    -5261001.520 5  -3941527.13721        11.000           0.531
 91  6 18 16 56 29.9990000  0  6G18G 2G11G16G19G 6
  22080603.823     7734127.736 6   6008512.34121        19.250           1.188
  22215777.409   -10660827.752 7  -8267697.92121        20.250           1.344
  22879175.159    -6588367.845 6  -5072469.23721        15.250           0.656
  23233460.823    -4321638.461 6  -3317325.08721        12.250           0.688
  20596909.581      604334.717 6    476416.23821        18.500           1.281
  23362433.612    -5295353.298 5  -3968294.72121        10.250           0.469
 91  6 18 16 56 44.9990000  0  6G18G 2G11G16G19G 6
  22089549.706     7781134.323 6   6045140.81421        19.000           1.219
  22208712.097   -10697949.082 7  -8296623.60521        20.250           1.344
  22877012.831    -6599728.933 6  -5081322.02421        15.250           0.688
  23233381.128    -4322042.993 6  -3317640.31621        12.500           0.594
  20599322.081      617014.531 6    486296.60521        18.500           1.344
  23355908.878    -5329649.001 5  -3995018.61321        11.000           0.500
 91  6 18 16 56 59.9990000  0  6G18G 2G11G16G19G 6
  22098513.261     7828240.235 6   6081846.66921        19.000           1.219
  22201666.183   -10734978.263 7  -8325477.49721        20.000           1.406
  22874882.753    -6610919.562 6  -5090041.99521        15.250           0.813
  23233338.917    -4322284.135 6  -3317828.23321        12.500           0.719
  20601753.589      629780.753 6    496244.30421        18.250           1.313
  23349391.644    -5363899.258 5  -4021707.09521        11.000           0.563
 91  6 18 16 57 14.9990000  0  6G18G 2G11G16G19G 6
  22107496.026     7875449.267 6   6118632.87821        19.000           1.250
  22194636.651   -10771911.234 7  -8354256.40921        20.000           1.438
  22872785.628    -6621935.711 6  -5098626.00721        15.500           0.656
  23233320.917    -4322358.083 6                        12.250
  20604199.206      642637.467 6    506262.51222        18.750           1.500
  23342884.558    -5398100.205 5  -4048357.15721        11.000           0.594
 91  6 18 16 57 29.9990000  0  6G18G 2G11G16G19G 6
  22116497.237     7922748.492 6   6155489.36821        18.500           1.156
  22187625.440   -10808760.779 6  -8382970.32821        19.750           1.438
  22870721.503    -6632789.918 6  -5107083.82921        15.500           0.781
  23233337.620    -4322277.674 6                        12.750
  20606660.667      655571.790 6    516341.19521        18.250           1.406
  23336382.308    -5432264.605 5  -4074978.74321        11.250           0.594
 91  6 18 16 57 44.9990000  0  6G18G 2G11G16G19G 6
  22125515.425     7970138.589 6   6192416.66521        18.750           1.344
  22180630.128   -10845525.988 6  -8411618.51521        19.750           1.313
  22868684.878    -6643481.336 6  -5115414.80821        15.000           0.719
  23233379.573    -4322042.065 6                        12.250
  20609136.300      668584.471 6    526480.94221        18.750           1.344
  23329888.222    -5466391.673 5  -4101571.25221        11.250           0.500
 91  6 18 16 57 59.9990000  0  6G18G 2G11G16G19G 6
  22134550.534     8017620.098 6   6229415.19521        19.000           1.250
  22173650.276   -10882205.821 7  -8440200.18221        20.000           1.469
  22866682.292    -6654008.901 6  -5123618.10521        14.750           0.594
  23233459.901    -4321650.642 6                        13.000
  20611631.019      681676.355 6    536682.40421        17.250           1.406
  23323400.698    -5500480.592 5  -4128134.00421        10.750           0.500
 91  6 18 16 58 14.9990000  0  6G18G 2G11G16G19G 6
  22143601.933     8065186.360 6   6266479.76921        18.500           1.188
  22166685.808   -10918806.438 6  -8468720.11521        19.750           1.438
  22864709.409    -6664378.807 6  -5131698.54121        15.000           0.688
  23233560.222    -4321109.419 6  -3316912.93321        12.250           0.750
  20614132.823      694841.270 6    546940.77321        18.750           1.469
  23316920.987    -5534537.681 5  -4154671.97321        11.000           0.531
 91  6 18 16 58 29.9990000  0  6G18G 2G11G16G19G 6
  22152670.151     8112834.011 6   6303607.75021        18.500           1.125
  22159735.276   -10955330.927 6  -8497180.73721        19.500           1.406
  22862764.167    -6674594.067 6  -5139658.48521        14.750           0.719
  23233691.269    -4320422.123 6  -3316377.37921        13.000           0.750
  20616651.761      708075.880 6    557253.44622        18.000           1.500
  23310444.050    -5568566.108 5  -4181187.60421        11.000           0.531
 91  6 18 16 58 44.9990000  0  6G18G 2G11G16G19G 6
  22161751.534     8160558.020 6   6340795.23721        18.500           1.156
  22152797.612   -10991783.765 7  -8525585.52122        20.000           1.594
  22860849.480    -6684659.109 6  -5147501.37621        15.000           0.719
  23233847.558    -4319593.324 6  -3315731.57321        12.750           0.750
  20619181.097      721375.435 6    567616.72821        18.500           1.344
  23303975.995    -5602570.622 5  -4207684.57921        11.250           0.531
 91  6 18 16 58 59.9990000  0  6G18G 2G11G16G19G 6
  22170845.995     8208355.149 6   6378039.70321        18.500           1.188
  22145874.823   -11028168.012 6  -8553936.86122        19.500           1.500
  22858962.526    -6694576.920 6  -5155229.53721        15.000           0.750
  23234033.261    -4318625.916 6  -3314977.77121        13.000           0.750
  20621727.987      734736.976 6    578028.31421        17.500           1.469
  23297503.925    -5636554.093 5  -4234165.18321        11.500           0.531
 91  6 18 16 59 14.9990000  0  6G18G 2G11G16G19G 6
  22179957.573     8256227.778 6   6415343.00421        18.250           1.031
  22138963.800   -11064480.843 7  -8582232.54322        20.250           1.531
  22857105.190    -6704344.559 6  -5162840.69321        15.000           0.625
  23234246.581    -4317517.398 6  -3314113.99121        13.250           0.781
  20624279.964      748163.410 6    588490.46721        18.250           1.406
  23291047.620    -5670513.882 6  -4260627.33421        12.000           0.563
 91  6 18 16 59 29.9990000  0  6G18G 2G11G16G19G 6
  22189080.026     8304172.346 6   6452702.35821        18.250           1.063
  22132067.815   -11100725.544 7  -8610475.15822        20.000           1.563
  22855272.636    -6713965.338 6  -5170337.39221        14.500           0.656
  23234481.503    -4316271.043 6  -3313142.81721        13.500           0.656
  20626848.214      761651.122 6    599000.36121        17.750           1.469
  23284585.245    -5704453.433 5  -4287073.70121        11.750           0.563
 91  6 18 16 59 44.9990000  0  6G18G 2G11G16G19G 6
  22198217.886     8352187.469 6   6490116.68421        18.500           1.156
  22125181.901   -11136902.942 7  -8638665.31721        20.250           1.406
  22853469.565    -6723440.093 6  -5177720.32321        14.750           0.750
  23234746.401    -4314888.338 6  -3312065.40421        12.750           0.750
  20629424.034      775199.067 6    609557.19821        18.250           1.406
  23278132.026    -5738373.820 6  -4313505.13921        12.250           0.500
 91  6 18 16 59 59.9990000  0  6G18G 2G11G16G19G 6
  22207367.589     8400273.609 6   6527586.35921        18.000           1.156
  22118311.987   -11173012.594 7  -8666802.68922        21.000           1.563
  22851695.050    -6732768.358 6  -5184989.10421        14.500           0.750
  23235031.480    -4313368.661 6  -3310881.26421        12.500           0.688
  20632016.542      788807.735 6    620161.34621        17.250           1.438
  23271679.409    -5772274.597 6  -4339921.30821        12.250           0.469
 91  6 18 17  0 14.9990000  0  6G18G 2G11G16G19G 6
  22216531.667     8448429.298 6   6565110.21421        18.250           1.188
  22111450.784   -11209055.759 7  -8694888.24922        20.000           1.500
  22849946.261    -6741951.149 6  -5192144.51621        14.250           0.781
  23235348.769    -4311713.619 6  -3309591.63521        12.500           0.625
  20634613.511      802475.865 6    630811.83222        18.000           1.500
  23265234.698    -5806156.913 6  -4366323.08321        12.750           0.500
 91  6 18 17  0 29.9990000  0  6G18G 2G11G16G19G 6
  22225708.409     8496653.083 6   6602687.13821        17.250           1.156
  22104606.534   -11245033.103 7  -8722922.53022        20.750           1.500
  22848228.565    -6750989.380 6  -5199187.29721        14.750           0.781
  23235692.425    -4309924.285 6  -3308197.37021        12.500           0.719
  20637228.097      816202.393 6    641507.82021        17.500           1.406
  23258789.409    -5840021.877 6  -4392711.34721        12.750           0.531
 91  6 18 17  0 44.9990000  0  6G18G 2G11G16G19G 6
  22234897.550     8544944.166 6   6640316.48321        18.000           1.219
  22097772.862   -11280945.088 7  -8750905.87922        20.500           1.563
  22846534.331    -6759883.265 6  -5206117.61021        14.500           0.844
  23236054.230    -4308000.808 6  -3306698.56721        12.000           0.656
  20639849.792      829987.006 6    652249.07221        18.250           1.438
  23252346.284    -5873869.917 6  -4419086.42021        12.250           0.500
 91  6 18 17  0 59.9990000  0  6G18G 2G11G16G19G 6
  22244099.253     8593299.648 6   6677996.02721        17.750           1.125
  22090950.550   -11316794.601 7  -8778840.54321        21.000           1.469
  22844868.511    -6768635.619 6  -5212937.61521        14.750           0.719
  23236446.308    -4305946.364 6  -3305097.72821        12.500           0.688
  20642485.581      843826.675 6    663033.22221        17.750           1.406
  23245908.784    -5907703.972 6  -4445450.57321        12.250           0.563
 91  6 18 17  1 14.9990000  0  6G18G 2G11G16G19G 6
  22253312.511     8641720.643 6   6715726.62221        17.500           1.125
  22084139.425   -11352580.164 7  -8806725.38321        20.750           1.406
  22843233.237    -6777244.914 6  -5219646.16321        14.750           0.719
  23236860.886    -4303759.387 6  -3303393.61921        12.500           0.813
  20645128.292      857722.922 6    673861.45521        18.250           1.375
  23239475.847    -5941522.555 6  -4471802.69621        12.000           0.563
 91  6 18 17  1 29.9990000  0  6G18G 2G11G16G19G 6
  22262538.933     8690202.709 6   6753504.79221        17.750           1.063
  22077343.347   -11388305.631 7  -8834563.39222        21.000           1.688
  22841619.323    -6785715.061 6  -5226246.27721        14.500           0.813
  23237305.620    -4301443.954 6  -3301589.41221        13.000           0.719
  20647785.722      871671.672 6    684730.60121        17.000           1.406
  23233040.136    -5975329.725 5  -4498145.90021        11.750           0.625
 91  6 18 17  1 44.9990000  0  6G18G 2G11G16G19G 6
  22271777.558     8738748.141 6   6791332.35021        17.750           1.156
  22070555.542   -11423968.503 7  -8862352.62322        20.500           1.563
  22840034.972    -6794043.403 6  -5232735.89821        14.500           0.719
  23237766.815    -4298997.998 6  -3299683.49221        12.750           0.813
  20650447.362      885675.380 6    695642.57421        18.500           1.438
  23226608.511    -6009123.071 6  -4524478.34321        12.250           0.531
 91  6 18 17  1 59.9990000  0  6G18G 2G11G16G19G 6
  22281028.698     8787356.533 6   6829208.96421        17.750           1.125
  22063780.730   -11459568.905 7  -8890093.18022        20.500           1.563
  22838477.167    -6802230.109 6  -5239115.14921        15.250           0.750
  23238262.323    -4296422.025 6  -3297676.26121        12.750           0.813
  20653124.964      899733.805 6    706597.17821        18.000           1.344
  23220183.112    -6042902.899 6  -4550800.26421        12.000           0.594
 91  6 18 17  2 14.9990000  0  6G18G 2G11G16G19G 6
  22290288.464     8836027.378 6   6867134.24921        17.000           1.125
  22057018.784   -11495106.916 7  -8917785.11322        20.750           1.625
  22836946.230    -6810275.119 6  -5245384.00021        15.250           0.813
  23238774.448    -4293715.974 6  -3295567.68021        12.500           0.813
  20655807.565      913846.671 6    717594.20621        18.250           1.469
  23213756.628    -6076669.253 6  -4577111.66921        12.000           0.563
 91  6 18 17  2 29.9990000  0  6G18G 2G11G16G19G 6
  22299562.073     8884758.545 6   6905106.52521        17.250           1.094
  22050266.847   -11530584.263 7  -8945429.77922        20.750           1.656
  22835441.151    -6818180.289 6  -5251543.87021        15.000           0.750
  23239310.425    -4290881.819 6  -3293359.26221        12.500           0.750
  20658505.448      928012.015 6    728632.12222        17.500           1.500
  23207334.339    -6110424.212 6  -4603414.21021        12.750           0.313
 91  6 18 17  2 44.9990000  0  6G18G 2G11G16G19G 6
  22308847.050     8933546.344 6   6943122.94221        17.500           1.031
  22043527.276   -11566004.344 7  -8973029.82622        20.750           1.656
  22833962.831    -6825948.980 6  -5257597.40321        15.000           0.750
  23239876.675    -4287923.132 6  -3291053.80921        12.750           0.688
  20661207.425      942226.417 6    739708.27121        18.000           1.375
  23200910.808    -6144171.121 6  -4629710.47321        12.250           0.406
 91  6 18 17  2 59.9990000  0  6G18G 2G11G16G19G 6
  22318141.401     8982391.621 6   6981184.13821        17.250           1.188
  22036797.355   -11601366.000 7  -9000584.34822        21.000           1.500
  22832511.558    -6833579.774 6  -5263543.48721        15.000           0.813
  23240465.097    -4284838.760 6  -3288650.43921        12.750           0.781
  20663924.315      956491.092 6    750823.59121        17.500           1.313
  23194493.198    -6177908.820 6  -4655999.55321        12.750           0.469
 91  6 18 17  3 14.9990000  0  6G18G 2G11G16G19G 6
  22327446.815     9031295.261 6   7019290.80721        17.250           1.031
  22030080.065   -11636667.910 7  -9028092.30722        20.500           1.500
  22831086.042    -6841071.583 6  -5269381.26321        15.000           0.781
  23241072.753    -4281627.869 6  -3286148.46721        12.250           0.781
  20666646.472      970807.234 6    761979.01621        18.000           1.344
  23188073.753    -6211636.092 6  -4682280.52021        12.500           0.500
 91  6 18 17  3 29.9990000  0  6G18G 2G11G16G19G 6
  22336764.308     9080255.158 6   7057441.31921        17.750           1.094
  22023374.089   -11671911.847 7  -9055555.10022        20.750           1.531
  22829686.183    -6848426.222 6  -5275112.16021        15.000           0.906
  23241709.464    -4278292.382 6  -3283549.40821        12.250           0.750
  20669381.026      985172.902 6    773173.03421        17.250           1.375
  23181657.534    -6245355.023 6  -4708554.99321        12.500           0.500
 91  6 18 17  3 44.9990000  0  6G18G 2G11G16G19G 6
  22346092.159     9129270.082 6   7095634.71521        17.750           1.063
  22016676.058   -11707098.636 6  -9082973.35921        19.750           1.469
  22828312.245    -6855644.391 6  -5280736.71121        15.000           0.781
  23242366.323    -4274833.471 6  -3280854.18721        13.000           0.688
  20672122.144      999587.327 6    784405.03621        17.750           1.375
  23175242.862    -6279066.401 6  -4734823.56921        13.250           0.531
 91  6 18 17  3 59.9990000  0  6G18G 2G11G16G19G 6
  22355429.620     9178339.430 6   7133870.50721        17.500           1.031
  22009992.401   -11742228.850 7  -9110347.53422        20.000           1.625
  22826964.753    -6862726.543 6  -5286255.27821        15.000           0.781
  23243048.128    -4271251.611 6  -3278063.14621        12.750           0.625
  20674877.472     1014049.710 6    795674.41821        17.250           1.469
  23168826.956    -6312770.886 6  -4761086.77321        12.750           0.563
 91  6 18 17  4 14.9990000  0  6G18G 2G11G16G19G 6
  22364777.839     9227463.288 6   7172148.78321        17.500           0.938
  22003317.042   -11777301.748 6  -9137677.04722        19.500           1.563
  22825642.659    -6869672.024 6  -5291667.34921        15.000           0.781
  23243756.034    -4267546.334 6  -3275175.94721        13.000           0.688
  20677636.308     1028560.653 6    806981.63221        17.500           1.438
  23162415.034    -6346467.854 6  -4787344.11921        13.000           0.594
 91  6 18 17  4 29.9990000  0  6G18G 2G11G16G19G 6
  22374134.105     9276635.686 6   7210464.88521        17.250           1.031
  21996653.831   -11812322.861 7  -9164966.20622        20.250           1.594
  22824347.058    -6876486.325 6  -5296977.19721        15.250           0.688
  23244482.980    -4263723.410 6  -3272197.05721        13.000           0.719
  20680409.003     1043114.574 6    818322.33622        17.250           1.531
  23156000.917    -6380162.882 6  -4813599.96321        12.750           0.625
 91  6 18 17  4 44.9990000  0  6G18G 2G11G16G19G 6
  22383500.722     9325859.650 6   7248821.16121        17.500           0.938
  21989999.573   -11847289.220 6  -9192212.70422        19.500           1.625
  22823076.112    -6883166.293 6  -5302182.36721        15.250           0.875
  23245231.495    -4259779.742 6  -3269124.09721        13.000           0.750
  20683185.589     1057714.469 6    829698.86321        18.000           1.375
  23149592.175    -6413852.968 6  -4839851.95021        13.500           0.500
 91  6 18 17  4 59.9990000  0  6G18G 2G11G16G19G 6
  22392880.737     9375141.000 6   7287222.14721        17.750           1.000
  21983358.605   -11882194.476 7  -9219411.58622        20.000           1.688
  22821829.690    -6889705.698 6  -5307278.01421        15.250           0.813
  23246000.519    -4255709.375 6  -3265952.39821        12.750           0.656
  20685975.292     1072366.422 6    841115.95621        17.250           1.469
  23143181.683    -6447532.056 6  -4866095.36621        13.500           0.438
 91  6 18 17  5 14.9990000  0  6G18G 2G11G16G19G 6
  22402268.597     9424478.612 6   7325666.98421        17.750           0.969
  21976727.065   -11917039.522 7  -9246563.55422        20.000           1.625
  22820612.745    -6896105.315 6  -5312264.72921        15.250           0.781
  23246803.933    -4251513.220 6  -3262682.69921        13.000           0.656
  20688771.511     1087069.428 6    852572.82921        18.000           1.469
  23136774.315    -6481201.043 6  -4892330.92121        13.000           0.531
 91  6 18 17  5 29.9990000  0  6G18G 2G11G16G19G 6
  22411665.784     9473869.247 6   7364153.14021        17.000           0.938
  21970106.503   -11951827.279 7  -9273670.87922        20.750           1.594
  22819420.714    -6902367.965 6  -5317144.73221        15.000           0.719
  23247626.019    -4247194.549 6  -3259317.51721        13.250           0.594
  20691581.730     1101820.715 6    864067.32821        16.750           1.344
  23130370.644    -6514862.883 6  -4918560.89321        13.250           0.594
 91  6 18 17  5 44.9990000  0  6G18G 2G11G16G19G 6
  22421075.573     9523312.323 6   7402680.15521        17.250           0.969
  21963498.839   -11986557.797 7  -9300733.59922        20.750           1.594
  22818254.800    -6908493.892 6  -5321918.18421        14.750           0.875
  23248470.948    -4242753.879 6  -3255857.27421        13.000           0.563
  20694394.847     1116620.047 6    875599.26222        17.500           1.531
  23123964.714    -6548517.834 6  -4944785.50021        13.000           0.469
 91  6 18 17  5 59.9990000  0  6G18G 2G11G16G19G 6
  22430495.339     9572811.650 6   7441251.00221        17.000           0.906
  21956901.339   -12021226.979 7  -9327748.53622        21.000           1.563
  22817117.737    -6914478.909 6  -5326581.83221        15.000           0.625
  23249340.487    -4238187.243 6  -3252298.87921        13.250           0.625
  20697224.909     1131471.392 6    887171.72921        15.750           1.438
  23117564.628    -6582161.869 6  -4971001.61821        13.250           0.563
 91  6 18 17  6 14.9990000  0  6G18G 2G11G16G19G 6
  22439923.870     9622362.778 6   7479862.20521        17.000           0.875
  21950312.792   -12055838.951 7  -9354718.88222        20.750           1.719
  22816004.956    -6920327.150 6  -5331138.91621        15.500           0.781
  23250233.737    -4233498.832 6  -3248645.60621        13.250           0.594
  20700054.323     1146370.462 6    898781.37921        17.500           1.438
  23111166.565    -6615799.140 6  -4997212.45521        13.250           0.469
 91  6 18 17  6 29.9990000  0  6G18G 2G11G16G19G 6
  22449363.573     9671966.495 6   7518514.38621        16.750           0.906
  21943739.323   -12090392.747 7  -9381643.90022        21.500           1.719
  22814917.151    -6926037.475 6  -5335588.52721        15.250           0.781
  23251148.706    -4228687.808 6  -3244896.77721        13.250           0.656
  20702901.698     1161318.157 6    910428.92222        16.250           1.531
  23104761.011    -6649428.732 6  -5023417.30821        13.000           0.563
 91  6 18 17  6 44.9990000  0  6G18G 2G11G16G19G 6
  22458812.644     9721625.095 6   7557209.34421        16.750           0.813
  21937175.253   -12124885.509 7  -9408521.36422        21.000           1.688
  22813857.847    -6931607.030 6  -5339928.44721        15.250           0.781
  23252090.034    -4223751.397 6  -3241050.25521        13.500           0.594
  20705753.472     1176317.252 6    922116.51321        17.250           1.469
  23098366.081    -6683047.873 6  -5049614.01421        13.000           0.531
 91  6 18 17  6 59.9990000  0  6G18G 2G11G16G19G 6
  22468272.362     9771334.025 6   7595943.51121        17.250           0.844
  21930622.737   -12159321.181 7  -9435354.33522        21.250           1.688
  22812823.487    -6937040.065 6  -5344161.98621        15.250           0.781
  23253050.089    -4218693.944 6  -3237109.40321        13.500           0.688
  20708618.480     1191363.524 6    933840.86621        16.500           1.438
  23091967.237    -6716660.892 6  -5075805.96121        13.000           0.500
 91  6 18 17  7 14.9990000  0  6G18G 2G11G16G19G 6
  22477742.409     9821095.149 6   7634718.36221        17.500           0.781
  21924080.230   -12193698.053 7  -9462141.48722        21.500           1.719
  22811816.378    -6942334.582 6  -5348287.58821        15.250           0.750
  23254037.440    -4213513.624 6  -3233072.82021        13.250           0.625
  20711488.737     1206458.823 6    945603.41922        17.000           1.500
  23085574.355    -6750265.798 6  -5101991.56221        13.000           0.594
 91  6 18 17  7 29.9990000  0  6G18G 2G11G16G19G 6
  22487221.573     9870913.359 6   7673537.68721        17.250           0.719
  21917551.261   -12228010.713 7  -9488878.61422        21.250           1.688
  22810835.917    -6947485.218 6  -5352301.07421        15.000           0.844
  23255047.198    -4208205.552 6  -3228936.69221        13.000           0.625
  20714376.612     1221608.602 6    957408.42921        16.750           1.469
  23079181.190    -6783857.366 6  -5128166.80621        13.000           0.594
 91  6 18 17  7 44.9990000  0  6G18G 2G11G16G19G 6
  22496712.394     9920784.822 6   7712398.51121        16.750           0.813
  21911033.073   -12262262.796 7  -9515568.52322        22.000           1.719
  22809883.292    -6952495.526 6  -5356205.21021        15.250           0.813
  23256079.714    -4202773.534 6  -3224703.98221        13.250           0.688
  20717265.261     1236809.181 6    969253.02821        17.250           1.469
  23072793.847    -6817439.194 6  -5154334.42821        13.000           0.625
 91  6 18 17  7 59.9990000  0  6G18G 2G11G16G19G 6
  22506214.011     9970710.189 6   7751301.33521        17.500           0.844
  21904526.980   -12296452.930 7  -9542210.16522        21.500           1.719
  22808955.620    -6957364.275 6  -5359999.03821        15.000           0.844
  23257137.284    -4197216.333 6  -3220373.71821        12.750           0.625
  20720167.659     1252061.678 6    981138.07621        17.250           1.438
  23066402.034    -6851010.133 6  -5180493.58421        13.000           0.500
 91  6 18 17  8 14.9990000  0  6G18G 2G11G16G19G 6
  22515724.042    10020685.763 6   7790243.29321        17.000           0.719
  21898032.065   -12330584.928 7  -9568806.50722        22.000           1.688
  22808056.948    -6962095.060 6  -5363685.36921        15.000           0.719
  23258219.480    -4191537.661 6  -3215948.80621        12.750           0.594
  20723080.386     1267362.194 6    993060.54321        17.250           1.469
  23060016.987    -6884573.957 6  -5206647.18221        12.750           0.625
 91  6 18 17  8 29.9990000  0  6G18G 2G11G16G19G 6
  22525242.605    10070712.346 6   7829224.99221        16.750           0.750
  21891548.089   -12364657.357 7  -9595356.43622        22.000           1.750
  22807181.651    -6966686.627 6  -5367263.21421        14.750           0.719
  23259323.237    -4185736.820 6  -3211428.69521        12.750           0.594
  20726005.987     1282712.009 6   1005021.42521        16.000           1.375
  23053632.292    -6918129.513 6  -5232794.34621        13.000           0.625
 91  6 18 17  8 44.9990000  0  6G18G 2G11G16G19G 6
  22534772.144    10120792.149 6   7868248.14321        16.750           0.719
  21885075.253   -12398667.464 7  -9621857.80222        21.750           1.781
  22806334.073    -6971136.314 6  -5370730.50921        15.000           0.813
  23260447.128    -4179811.264 6  -3206811.41621        12.750           0.719
  20728931.940     1298113.654 6   1017022.69321        17.500           1.344
  23047245.276    -6951674.169 6  -5258933.02121        13.000           0.625
 91  6 18 17  8 59.9990000  0  6G18G 2G11G16G19G 6
  22544312.417    10170923.506 6   7907311.48021        17.000           0.781
  21878615.698   -12432617.060 7  -9648312.01622        21.750           1.844
  22805515.690    -6975445.708 6  -5374088.48021        15.250           0.813
  23261603.480    -4173762.849 6  -3202098.39621        13.250           0.625
  20731872.573     1313565.670 6   1029063.20821        17.500           1.344
  23040865.128    -6985209.511 6  -5285064.44221        13.000           0.625
 91  6 18 17  9 14.9990000  0  6G18G 2G11G16G19G 6
  22553862.175    10221107.692 6   7946415.98921        16.750           0.750
  21872165.776   -12466504.248 7  -9674717.59622        21.500           1.719
  22804721.511    -6979613.191 6  -5377335.87721        15.500           0.844
  23262774.370    -4167589.963 6  -3197288.38421        13.000           0.688
  20734822.464     1329069.572 6   1041144.15922        17.750           1.500
  23034488.292    -7018734.044 6  -5311187.42321        13.500           0.656
 91  6 18 17  9 29.9990000  0  6G18G 2G11G16G19G 6
  22563421.003    10271342.567 6   7985559.98721        16.000           0.750
  21865730.105   -12500331.115 7  -9701076.17622        22.250           1.750
  22803954.737    -6983640.586 6  -5380474.11121        15.250           0.813
  23263974.698    -4161294.373 6  -3192382.76021        12.750           0.719
  20737783.972     1344623.307 6   1053263.93621        17.500           1.469
  23028110.808    -7052249.744 6  -5337303.53821        13.500           0.625
 91  6 18 17  9 44.9990000  0  6G18G 2G11G16G19G 6
  22572991.644    10321630.001 6   8024744.93221        16.250           0.656
  21859305.159   -12534095.141 7  -9727385.78222        22.250           1.781
  22803215.956    -6987525.389 6  -5383501.23021        15.500           0.844
  23265195.644    -4154874.302 6  -3187380.13621        12.000           0.719
  20740751.386     1360229.123 6   1065424.30221        17.750           1.406
  23021732.823    -7085754.154 6  -5363410.84521        13.500           0.688
 91  6 18 17  9 59.9990000  0  6G18G 2G11G16G19G 6
  22582571.034    10371972.948 6   8063973.14121        17.000           0.719
  21852892.183   -12567793.172 7  -9753643.97322        22.250           1.750
  22802504.065    -6991264.403 6  -5386414.74621        15.500           0.844
  23266439.683    -4148326.722 6  -3182278.15621        12.500           0.688
  20743734.644     1375890.134 6   1077627.67621        17.500           1.406
  23015357.347    -7119244.217 6  -5389506.97721        13.000           0.656
 91  6 18 17 10 14.9990000  0  6G18G 2G11G16G19G 6
  22592161.800    10422364.071 6   8103238.88621        16.750           0.656
  21846490.237   -12601432.112 7  -9779856.12022        22.750           1.844
  22801819.120    -6994864.689 6  -5389220.17221        15.000           0.906
  23267712.136    -4141658.441 6  -3177082.11421        12.750           0.688
  20746722.214     1391599.290 6   1089868.56321        18.000           1.406
  23008987.730    -7152726.984 6  -5415597.41021        13.250           0.594
 91  6 18 17 10 29.9990000  0  6G18G 2G11G16G19G 6
  22601759.495    10472807.031 6   8142545.03821        16.500           0.656
  21840101.651   -12635007.960 7                        23.250
  22801161.167    -6998322.416 6  -5391914.50821        14.750           0.813
  23269001.284    -4134866.177 6  -3171789.47121        12.500           0.563
  20749724.034     1407360.632 6   1102150.11721        16.750           1.375
  23002617.433    -7186198.544 6                        13.250
 91  6 18 17 10 44.9990000  0  6G18G 2G11G16G19G 6
  22611368.675    10523298.575 6   8181889.02521        17.000           0.844
  21833724.698   -12668523.564 7                        23.250
  22800530.097    -7001640.225 6  -5394499.81521        15.000           0.844
  23270315.089    -4127952.798 6  -3166402.45921        12.000           0.563
  20752728.722     1423171.375 6   1114470.16321        17.750           1.406
  22996250.222    -7219661.727 6                        13.250
 91  6 18 17 10 59.9990000  0  6G18G 2G11G16G19G 6
  22620987.456    10573840.181 6   8221272.04121        17.500           0.813
  21827358.183   -12701977.043 7                        22.750
  22799925.706    -7004816.306 6  -5396974.68221        15.000           0.844
  23271658.112    -4120916.743 6  -3160919.84621        12.250           0.531
  20755748.097     1439033.248 6   1126830.06321        17.250           1.375
  22989884.448    -7253114.770 6                        13.250
 91  6 18 17 11 14.9990000  0  6G18G 2G11G16G19G 6
  22630613.495    10624433.180 6   8260695.10021        16.500           0.688
  21821004.511   -12735367.002 7                        23.250
  22799347.065    -7007849.219 6  -5399338.00021        14.750           0.875
  23273017.128    -4113756.585 6  -3155340.52321        12.250           0.594
  20758775.761     1454947.506 6   1139230.76321        18.000           1.313
  22983519.073    -7286556.367 6                        13.250
 91  6 18 17 11 29.9990000  0  6G18G 2G11G16G19G 6
  22640250.753    10675075.428 6   8300156.51921        16.250           0.781
  21814663.042   -12768695.102 7  -9910190.82822        23.250           1.813
  22798799.144    -7010740.626 6  -5401591.04121        15.000           0.813
  23274406.487    -4106474.277 6  -3149666.03021        12.000           0.563
  20761817.370     1470912.381 6   1151670.91922        16.750           1.500
  22977157.698    -7319988.297 6  -5545930.79021        13.750           0.656
 91  6 18 17 11 44.9990000  0  6G18G 2G11G16G19G 6
  22649896.034    10725762.416 6   8339652.81821        16.000           0.656
  21808331.370   -12801965.757 7  -9936116.00222        23.750           1.906
  22798273.323    -7013494.851 6  -5403737.19421        14.500           0.750
  23275814.315    -4099074.387 5  -3143899.91021        11.750           0.563
  20764860.917     1486923.542 6   1164147.14122        17.750           1.500
  22970796.605    -7353414.832 6  -5571977.41521        13.750           0.625
 91  6 18 17 11 59.9990000  0  6G18G 2G11G16G19G 6
  22659550.362    10776495.447 6   8379184.98121        16.000           0.781
  21802011.534   -12835177.294 7  -9961995.10422        23.500           1.906
  22797775.855    -7016110.356 6  -5405775.25921        14.750           0.813
  23277241.792    -4091555.543 6  -3138041.07921        12.000           0.531
  20767916.815     1502982.561 6   1176660.65721        17.000           1.438
  22964438.097    -7386834.476 6  -5598018.67321        13.750           0.625
 91  6 18 17 12 14.9990000  0  6G18G 2G11G16G19G 6
  22669214.112    10827273.321 6   8418752.08321        16.000           0.813
  21795703.284   -12868330.385 7  -9987828.66022        23.750           1.875
  22797305.034    -7018587.749 6  -5407705.69421        14.500           0.781
  23278698.386    -4083918.568 6  -3132090.23021        12.500           0.563
  20770980.683     1519088.516 6   1189210.74022        17.500           1.500
  22958082.550    -7420247.951 6  -5624055.13821        13.750           0.594
 91  6 18 17 12 29.9990000  0  6G18G 2G11G16G19G 6
  22678883.073    10878094.920 6   8458353.26721        15.750           0.844
  21789404.245   -12901425.822 7 -10013617.30022        23.500           1.781
  22796860.526    -7020927.910 6  -5409529.20421        14.750           0.969
  23280176.503    -4076164.381 6  -3126048.02921        12.500           0.625
  20774056.894     1535240.638 6   1201796.79721        16.750           1.469
  22951725.792    -7453656.067 6  -5650087.41621        13.750           0.688
 91  6 18 17 12 44.9990000  0  6G18G 2G11G16G19G 6
  22688563.167    10928959.210 6   8497987.71921        15.500           0.719
  21783117.050   -12934464.275 7 -10039361.53222        23.500           1.938
  22796441.448    -7023131.568 6  -5411246.34121        14.750           0.844
  23281673.964    -4068294.106 6  -3119915.36821        12.500           0.594
  20777137.050     1551438.175 6   1214418.24921        17.500           1.438
  22945367.769    -7487059.686 6  -5676116.19121        13.750           0.656
 91  6 18 17 12 59.9990000  0  6G18G 2G11G16G19G 6
  22698251.870    10979870.032 6   8537658.41721        16.000           0.750
  21776842.433   -12967441.600 7 -10065058.12622        23.500           1.813
  22796047.698    -7025194.484 6  -5412853.81221        14.750           0.781
  23283190.745    -4060303.704 6  -3113689.09921        12.000           0.625
  20780230.214     1567685.141 6   1227078.21122        16.750           1.500
  22939008.964    -7520454.681 6  -5702138.24621        13.500           0.719
 91  6 18 17 13 14.9990000  0  6G18G 2G11G16G19G 6
  22707948.534    11030825.913 6   8577364.23221        15.750           0.813
  21770576.925   -13000358.828 7 -10090707.89722        23.250           2.000
  22795682.472    -7027117.757 6  -5414352.46721        15.000           0.875
  23284735.003    -4052194.403 6  -3107370.18921        12.250           0.594
  20783329.495     1583980.399 6   1239775.80622        17.250           1.500
  22932658.800    -7553842.175 6  -5728154.45321        14.000           0.688
 91  6 18 17 13 29.9990000  0  6G18G 2G11G16G19G 6
  22717652.464    11081825.022 6   8617103.73021        15.000           0.719
  21764324.855   -13033217.616 7 -10116312.12922        23.750           1.969
  22795344.659    -7028903.078 6  -5415743.63621        15.250           0.750
  23286302.401    -4043968.085 6  -3100960.09121        12.500           0.625
  20786440.464     1600322.253 6   1252509.70622        17.000           1.594
  22926305.394    -7587223.912 6  -5754166.17721        13.500           0.656
 91  6 18 17 13 44.9990000  0  6G18G 2G11G16G19G 6
  22727365.667    11132866.268 6   8656876.06121        15.250           0.813
  21758084.362   -13066018.629 7 -10141871.33922        24.000           1.969
  22795028.058    -7030550.997 6  -5417027.72521        14.500           0.875
  23287888.644    -4035625.723 6  -3094459.57821        12.000           0.625
  20789556.995     1616710.219 6   1265279.54622        17.250           1.594
  22919952.362    -7620600.521 6  -5780173.89321        13.750           0.750
 91  6 18 17 13 59.9990000  0  6G18G 2G11G16G19G 6
  22737086.456    11183952.242 6   8696683.25721        15.000           0.813
  21751852.198   -13098759.208 7 -10167383.46322        24.000           1.938
  22794741.534    -7032058.913 6  -5418202.72921        14.500           0.781
  23289496.776    -4027164.672 6  -3087866.57621        12.000           0.594
  20792688.222     1633146.699 6   1278087.18322        16.500           1.531
  22913606.081    -7653969.352 6  -5806175.55721        14.000           0.750
 91  6 18 17 14 14.9990000  0  6G18G 2G11G16G19G 6
  22746815.269    11235080.735 6   8736523.55921        14.750           0.750
  21745634.620   -13131440.639 7 -10192849.49522        24.000           1.906
  22794483.276    -7033428.530 6  -5419269.96021        15.000           0.938
  23291130.198    -4018586.777 6  -3081182.53121        12.000           0.531
  20795822.292     1649630.105 6   1290931.38522        17.500           1.563
  22907255.261    -7687332.213 6  -5832172.57121        14.000           0.750
 91  6 18 17 14 29.9990000  0  6G18G 2G11G16G19G 6
  22756555.909    11286255.839 6   8776400.19021        15.250           0.938
  21739426.081   -13164058.783 7 -10218266.21122        24.000           1.844
  22794247.730    -7034655.467 6  -5420226.01221        15.250           0.844
  23292783.065    -4009887.899 5  -3074404.20421        11.750           0.625
  20798971.472     1666164.782 6   1303815.53922        17.000           1.594
  22900912.722    -7720684.636 6  -5858161.45721        14.250           0.656
 91  6 18 17 14 44.9990000  0  6G18G 2G11G16G19G 6
  22766302.534    11337479.717 6   8816314.84021        14.750           0.750
  21733232.511   -13196611.150 7 -10243631.67822        24.000           1.906
  22794043.651    -7035737.238 6  -5421068.96021        15.000           0.750
  23294463.019    -4001065.807 5  -3067529.87921        11.750           0.688
  20802126.440     1682753.095 6   1316741.48422        17.500           1.563
  22894564.417    -7754024.107 6  -5884140.23521        14.250           0.781
 91  6 18 17 14 59.9990000  0  6G18G 2G11G16G19G 6
  22776060.097    11388759.411 6   8856272.97021        15.000           0.781
  21727051.495   -13229090.532 7 -10268940.27222        24.250           1.938
  22793865.901    -7036666.665 6  -5421793.19321        14.750           0.906
  23296166.151    -3992113.743 5  -3060554.27821        11.500           0.656
  20805295.815     1699402.177 6   1329714.78522        17.000           1.594
  22888226.597    -7787343.625 6  -5910103.47621        14.250           0.813
 91  6 18 17 15 14.9990000  0  6G18G 2G11G16G19G 6
  22785827.886    11440088.525 6   8896269.61521        15.000           0.875
  21720884.784   -13261502.730 7 -10294196.52122        24.000           1.844
  22793715.409    -7037449.663 6  -5422403.32321        15.000           0.781
  23297894.573    -3983037.616 5  -3053482.00321        11.500           0.563
  20808473.011     1716106.077 6   1342730.79422        17.500           1.500
  22881884.847    -7820649.125 6  -5936055.79721        14.250           0.781
 91  6 18 17 15 29.9990000  0  6G18G 2G11G16G19G 6
  22795605.362    11491467.938 6   8936305.45321        14.250           0.750
  21714729.214   -13293846.713 7 -10319399.61022        24.750           1.938
  22793594.675    -7038085.054 6  -5422898.43721        14.750           0.844
  23299647.605    -3973836.495 5  -3046312.34121        11.500           0.594
  20811664.894     1732865.757 6   1355790.27922        17.500           1.531
  22875553.808    -7853939.482 6  -5961996.31521        14.250           0.781
 91  6 18 17 15 44.9990000  0  6G18G 2G11G16G19G 6
  22805392.628    11542898.684 6   8976381.28321        14.250           0.844
  21708587.245   -13326121.028 7 -10344548.40922        24.250           1.969
  22793502.761    -7038571.421 6  -5423277.42721        14.750           0.781
  23301420.073    -3964508.969 5  -3039044.15621        11.750           0.625
  20814862.589     1749682.617 6   1368894.31722        17.750           1.563
  22869220.120    -7887213.296 6  -5987923.93921        14.250           0.813
 91  6 18 17 15 59.9990000  0  6G18G 2G11G16G19G 6
  22815187.253    11594377.336 6   9016494.45921        14.000           0.688
  21702459.487   -13358328.784 7 -10369645.34422        24.250           1.938
  22793437.183    -7038911.978 6  -5423542.79721        14.750           0.750
  23303220.097    -3955058.769 6  -3031680.40121        12.000           0.688
  20818073.495     1766553.459 6   1382040.41621        17.500           1.469
  22862890.120    -7920473.708 6  -6013841.12421        14.500           0.750
 91  6 18 17 16 14.9990000  0  6G18G 2G11G16G19G 6
  22824995.792    11645908.484 6   9056648.52121        14.250           0.719
  21696342.144   -13390465.028 7 -10394686.55822        24.500           1.969
  22793400.636    -7039101.798 6                        14.750
  23305044.519    -3945481.039 6  -3024217.26421        12.000           0.656
  20821294.800     1783483.298 6   1395232.48921        18.000           1.438
  22856565.394    -7953715.958 6  -6039744.15521        14.000           0.813
 91  6 18 17 16 29.9990000  0  6G18G 2G11G16G19G 6
  22834811.417    11697490.079 6   9096841.90521        13.750           0.688
  21690239.597   -13422531.765 7 -10419673.60522        24.250           2.063
  22793394.409    -7039142.895 6                        15.000
  23306888.480    -3935778.082 6  -3016656.55521        12.500           0.688
  20824528.495     1800470.109 6   1408468.95821        17.500           1.469
  22850244.573    -7986942.019 6  -6065634.57621        14.000           0.781
 91  6 18 17 16 44.9990000  0  6G18G 2G11G16G19G 6
  22844636.401    11749121.554 6   9137074.14721        14.000           0.656
  21684151.659   -13454529.078 7 -10444606.56522        24.500           2.063
  22793414.659    -7039035.424 6                        14.750
  23308761.347    -3925950.119 6  -3008998.43221        12.750           0.625
  20827770.495     1817513.624 6   1421749.60921        18.000           1.438
  22843922.855    -8020152.055 6  -6091512.51121        14.000           0.719
 91  6 18 17 16 59.9990000  0  6G18G 2G11G16G19G 6
  22854469.511    11800802.676 6   9177345.09121        13.500           0.781
  21678076.808   -13486456.528 7 -10469485.07522        24.250           2.125
  22793463.659    -7038779.063 6                        15.000
  23310657.276    -3915997.153 6  -3001242.89721        13.250           0.500
  20831026.050     1834614.209 6   1435074.73521        17.250           1.406
  22837605.370    -8053345.756 6  -6117377.70821        14.500           0.750
 91  6 18 17 17 14.9990000  0  6G18G 2G11G16G19G 6
  22864313.839    11852536.256 6   9217656.88021        13.500           0.813
  21672014.972   -13518311.376 7 -10494307.02022        24.500           2.125
  22793541.394    -7038370.906 6                        15.000
  23312568.042    -3905916.453 6  -2993387.83521        12.500           0.625
  20834290.308     1851774.670 6   1448446.50821        18.000           1.469
  22831291.628    -8086520.199 6  -6143227.90221        14.250           0.750
 91  6 18 17 17 29.9990000  0  6G18G 2G11G16G19G 6
  22874170.589    11904325.287 6   9258011.89821        14.000           0.750
  21665966.401   -13550090.146 7 -10519069.67922        23.750           2.000
  22793648.378    -7037807.628 6  -5422682.28621        15.000           0.844
  23314519.269    -3895704.678 6  -2985430.63821        13.250           0.594
  20837568.706     1868998.348 6   1461867.55021        17.250           1.375
  22824982.573    -8119672.076 6  -6169060.52021        14.500           0.719
 91  6 18 17 17 44.9990000  0  6G18G 2G11G16G19G 6
  22884033.276    11956160.414 6   9298402.83321        14.000           0.719
  21659933.503   -13581801.604 7 -10543779.88822        24.500           2.156
  22793783.534    -7037098.088 6  -5422129.40621        14.750           0.813
  23316483.636    -3885370.999 6  -2977378.43721        13.250           0.625
  20840855.675     1886276.148 6   1475330.76522        17.500           1.531
  22818678.573    -8152810.293 6  -6194882.49321        14.750           0.719
 91  6 18 17 17 59.9990000  0  6G18G 2G11G16G19G 6
  22893907.144    12008039.959 6   9338828.37921        14.250           0.625
  21653909.909   -13613447.136 7 -10568438.72722        23.500           2.156
  22793945.612    -7036243.799 6  -5421463.72821        15.500           0.750
  23318470.855    -3874917.323 6  -2969232.74021        13.000           0.563
  20844156.409     1903606.705 6   1488835.08621        16.750           1.438
  22812376.847    -8185936.399 6  -6220695.01821        15.250           0.781
 91  6 18 17 18 14.9990000  0  6G18G 2G11G16G19G 6
  22903786.800    12059966.189 6   9379290.31021        14.000           0.656
  21647901.175   -13645024.407 7 -10593044.37522        24.000           2.125
  22794136.581    -7035242.286 6  -5420683.33321        15.500           0.781
  23320484.097    -3864341.260 6  -2960991.68421        12.750           0.625
  20847460.839     1920992.377 6   1502382.35421        17.500           1.438
  22806075.503    -8219047.836 6  -6246496.12421        15.000           0.719
 91  6 18 17 18 29.9990000  0  6G18G 2G11G16G19G 6
  22913676.542    12111942.190 6   9419791.02621        13.500           0.719
  21641906.706   -13676529.922 7 -10617594.10622        24.750           2.156
  22794354.394    -7034090.221 6  -5419785.62621        15.500           0.750
  23322517.026    -3853639.582 6  -2952652.72921        12.500           0.563
  20850786.651     1938436.635 6   1515975.27622        15.750           1.500
  22799778.050    -8252141.283 6  -6272283.20621        15.250           0.750
 91  6 18 17 18 44.9990000  0  6G18G 2G11G16G19G 6
  22923579.909    12163970.120 6   9460332.17621        13.500           0.688
  21635925.456   -13707961.197 7 -10642085.99022        24.750           2.156
  22794602.511    -7032785.291 6  -5418768.79921        15.000           0.813
  23324579.308    -3842810.039 6  -2944214.16621        12.250           0.531
  20854112.456     1955941.740 6   1529615.60222        17.500           1.594
  22793482.151    -8285214.435 6  -6298054.48021        15.000           0.781
 91  6 18 17 18 59.9990000  0  6G18G 2G11G16G19G 6
  22933489.730    12216048.981 6   9500913.03321        13.500           0.563
  21629958.620   -13739319.038 7 -10666520.65522        25.000           2.188
  22794880.417    -7031328.080 6  -5417633.31421        15.250           0.813
  23326662.456    -3831853.430 6  -2935676.55421        12.000           0.625
  20857458.487     1973507.091 6   1543302.88322        16.500           1.563
  22787191.401    -8318267.868 6  -6323810.37721        15.000           0.813
 91  6 18 17 19 14.9990000  0  6G18G 2G11G16G19G 6
  22943407.206    12268174.420 6   9541530.19621        13.000           0.750
  21624004.722   -13770607.470 7 -10690901.23522        25.500           2.219
  22795186.855    -7029722.552 6  -5416382.26621        15.000           0.813
  23328771.730    -3820774.177 6  -2927043.40521        12.000           0.563
  20860807.737     1991128.725 6   1557034.01721        17.250           1.469
  22780903.480    -8351305.687 6  -6349554.11921        15.000           0.719
 91  6 18 17 19 29.9990000  0  6G18G 2G11G16G19G 6
  22953338.519    12320349.912 6   9582186.33321        13.500           0.688
  21618064.956   -13801822.675 7 -10715224.75322        25.000           2.063
  22795520.792    -7027965.053 6  -5415012.78721        15.000           0.750
  23330905.253    -3809569.128 6  -2918312.22521        12.000           0.531
  20864174.284     2008810.375 6   1570811.91521        16.750           1.438
  22774622.159    -8384324.086 6  -6375282.72821        15.000           0.781
 91  6 18 17 19 44.9990000  0  6G18G 2G11G16G19G 6
  22963276.144    12372569.016 6   9622876.47221        13.250           0.719
  21612136.214   -13832970.527 7 -10739495.78722        25.000           2.125
  22795883.878    -7026061.677 6  -5413529.64421        15.250           0.781
  23333059.167    -3798244.188 6  -2909487.63321        12.000           0.594
  20867548.448     2026545.785 6   1584631.69921        17.500           1.375
  22768343.347    -8417329.210 6  -6401000.99021        14.500           0.750
 91  6 18 17 19 59.9990000  0  6G18G 2G11G16G19G 6
  22973218.480    12424830.355 6   9663599.51621        13.500           0.594
  21606221.245   -13864052.148 7 -10763715.21822        24.750           2.125
  22796272.378    -7024013.472 6  -5411933.64621        15.500           0.813
  23335239.214    -3786800.400 6  -2900570.41921        12.250           0.563
  20870936.050     2044333.947 6   1598492.59321        16.500           1.438
  22762063.589    -8450322.056 6  -6426709.67521        14.750           0.750
 91  6 18 17 20 14.9990000  0  6G18G 2G11G16G19G 6
  22983175.097    12477138.559 6   9704359.08821        13.500           0.688
  21600322.073   -13895062.571 7 -10787879.16422        24.750           2.031
  22796690.995    -7021815.673 6  -5410221.07321        15.250           0.781
  23337438.839    -3775233.318 6  -2891557.14821        12.250           0.594
  20874329.300     2062179.676 6   1612398.34822        17.500           1.531
  22755786.573    -8483297.887 6  -6452405.11121        14.500           0.781
 91  6 18 17 20 29.9990000  0  6G18G 2G11G16G19G 6
  22993136.073    12529492.898 6   9745154.59521        13.250           0.594
  21594434.378   -13926002.115 7 -10811987.87722        25.000           2.219
  22797138.605    -7019468.657 6  -5408392.22821        15.250           0.813
  23339661.159    -3763543.568 6  -2882448.26821        12.250           0.688
  20877735.355     2080082.633 6   1626348.69222        17.500           1.563
  22749514.800    -8516256.938 6  -6478087.46721        14.500           0.750
 91  6 18 17 20 44.9990000  0  6G18G 2G11G16G19G 6
  23003106.761    12581892.236 6   9785985.17421        12.750           0.656
  21588559.105   -13956871.770 7 -10836042.13322        25.000           2.156
  22797612.972    -7016973.434 6  -5406447.90421        15.750           0.875
  23341912.097    -3751732.458 6  -2873244.84421        13.000           0.563
  20881152.605     2098041.684 6   1640342.74521        17.750           1.469
  22743249.214    -8549200.277 6  -6503757.58521        14.250           0.813
 91  6 18 17 20 59.9990000  0  6G18G 2G11G16G19G 6
  23013088.511    12634336.593 6   9826850.82121        12.750           0.656
  21582699.019   -13987671.080 7 -10860041.58422        24.750           2.094
  22798117.308    -7014329.453 6  -5404387.66321        16.000           0.781
  23344187.769    -3739799.686 6  -2863946.60221        13.000           0.656
  20884586.409     2116057.230 6   1654380.82321        16.250           1.406
  22736978.769    -8582127.368 6  -6529415.04721        14.750           0.781
 91  6 18 17 21 14.9990000  0  6G18G 2G11G16G19G 6
  23023075.722    12686826.393 6   9867751.89021        12.500           0.688
  21576850.417   -14018399.293 7 -10883985.63022        24.750           2.094
  22798646.886    -7011536.114 6  -5402211.04021        15.250           0.813
  23346476.315    -3727744.725 6  -2854553.15621        13.000           0.688
  20888018.925     2134129.950 6   1668463.45222        17.750           1.500
  22730720.276    -8615037.670 6  -6555059.41921        14.750           0.781
 91  6 18 17 21 29.9990000  0  6G18G 2G11G16G19G 6
  23033070.011    12739360.945 5   9908687.82421        11.500           0.656
  21571016.870   -14049056.574 7 -10907874.40122        24.500           2.188
  22799207.464    -7008593.754 6  -5399918.28521        15.750           0.844
  23348792.526    -3715567.839 6  -2845064.70721        13.000           0.656
  20891470.425     2152259.653 6   1682590.48321        18.000           1.438
  22724459.276    -8647931.376 6  -6580690.85721        15.000           0.875
 91  6 18 17 21 44.9990000  0  6G18G 2G11G16G19G 6
  23043078.925    12791937.313 6   9949656.32421        12.750           0.625
  21565196.112   -14079645.562 7 -10931709.95322        24.750           2.063
  22799795.151    -7005505.076 6  -5397511.53221        15.500           0.719
  23351133.855    -3703271.977 6  -2835483.53921        13.500           0.500
  20894931.034     2170443.468 6   1696759.67622        18.000           1.500
  22718203.847    -8680811.204 6  -6606311.48821        15.000           0.781
 91  6 18 17 21 59.9990000  0  6G18G 2G11G16G19G 6
  23053091.433    12844559.137 6   9990660.29621        12.750           0.688
  21559388.042   -14110162.591 7 -10955489.44722        24.250           2.125
  22800410.620    -7002266.396 6  -5394987.88621        15.500           0.844
  23353496.230    -3690854.021 6  -2825807.22421        13.000           0.594
  20898403.651     2188685.128 6   1710973.95122        17.500           1.563
  22711949.058    -8713673.346 6  -6631918.32921        15.250           0.781
 91  6 18 17 22 14.9990000  0  6G18G 2G11G16G19G 6
  23063113.870    12897228.254 6  10031701.07421        12.750           0.625
  21553595.620   -14140605.492 7 -10979211.16222        24.500           2.313
  22801057.112    -6998875.551 6  -5392345.67121        15.250           0.781
  23355886.175    -3678311.617 6  -2816033.95321        13.250           0.531
  20901884.542     2206986.948 6   1725235.10321        18.000           1.406
  22705701.534    -8746515.693 6  -6657509.75221        15.000           0.813
 91  6 18 17 22 29.9990000  0  6G18G 2G11G16G19G 6
  23073149.175    12949942.942 6  10072777.38121        13.000           0.656
  21547815.909   -14170975.528 7 -11002876.11722        23.750           2.156
  22801730.464    -6995333.863 6  -5389585.91821        15.250           0.875
  23358293.675    -3665646.315 6  -2806164.90721        13.000           0.594
  20905379.237     2225347.649 6   1739542.12922        17.250           1.531
  22699453.690    -8779339.507 6  -6683086.74021        15.250           0.875
 91  6 18 17 22 44.9990000  0  6G18G 2G11G16G19G 6
  23083185.206    13002701.722 6  10113888.04921        12.500           0.594
  21542049.730   -14201273.711 7 -11026485.07622        24.000           2.219
  22802433.347    -6991642.419 6  -5386709.46421        15.500           0.813
  23360722.597    -3652859.414 6  -2796201.10521        13.250           0.469
  20908882.800     2243766.074 6   1753894.14021        17.750           1.469
  22693212.636    -8812145.888 6  -6708650.13721        15.000           0.844
 91  6 18 17 22 59.9990000  0  6G18G 2G11G16G19G 6
  23093231.589    13055505.941 5  10155034.10321        11.750           0.688
  21536300.300   -14231498.412 7 -11050036.77422        24.500           2.250
  22803164.519    -6987799.813 6  -5383715.22621        15.000           0.813
  23363182.105    -3639949.878 6  -2786141.75321        13.250           0.438
  20912403.597     2262243.620 6   1768292.21821        16.750           1.406
  22686971.972    -8844933.302 6  -6734198.74721        15.250           0.781
 91  6 18 17 23 14.9990000  0  6G18G 2G11G16G19G 6
  23103292.706    13108357.543 6  10196217.08321        12.500           0.594
  21530563.019   -14261647.631 7 -11073529.65422        24.000           2.250
  22803925.386    -6983803.899 6  -5380601.52821        15.000           0.875
  23365663.433    -3626915.693 6  -2775985.26621        12.750           0.531
  20915927.581     2280782.289 6   1782737.92521        17.750           1.406
  22680734.956    -8877699.702 6  -6759730.98621        15.250           0.906
 91  6 18 17 23 29.9990000  0  6G18G 2G11G16G19G 6
  23113358.003    13161256.510 6  10237436.98621        12.250           0.625
  21524839.026   -14291720.838 7 -11096963.30022        24.000           2.281
  22804713.776    -6979654.213 6  -5377368.01521        15.000           0.844
  23368167.628    -3613756.525 6  -2765731.38221        12.250           0.438
  20919468.683     2299382.603 6   1797231.66622        17.500           1.531
  22674506.425    -8910444.499 6  -6785246.40021        15.250           0.906
 91  6 18 17 23 44.9990000  0  6G18G 2G11G16G19G 6
  23123429.933    13214202.231 5  10278693.30321        11.250           0.531
  21519131.097   -14321718.566 7 -11120338.13122        24.500           2.250
  22805532.917    -6975351.371 6  -5374015.15521        15.000           0.813
  23370695.112    -3600473.156 6  -2755380.74021        12.250           0.563
  20923018.222     2318044.088 6   1811773.08022        17.750           1.500
  22668281.409    -8943168.344 6  -6810745.48121        15.750           0.938
 91  6 18 17 23 59.9990000  0  6G18G 2G11G16G19G 6
  23133519.034    13267199.294 6  10319989.63321        12.500           0.531
  21513437.862   -14351635.659 7 -11143650.13922        24.000           2.188
  22806380.987    -6970890.274 6  -5370538.96821        15.250           0.875
  23373248.534    -3587060.955 6  -2744929.68221        12.250           0.500
  20926585.237     2336771.903 6   1826366.17222        16.750           1.531
  22662056.378    -8975866.011 6  -6836224.16621        16.000           0.875
 91  6 18 17 24 14.9990000  0  6G18G 2G11G16G19G 6
  23143612.409    13320240.716 6  10361320.54821        12.250           0.469
  21507760.073   -14381478.715 7 -11166904.45022        24.000           2.250
  22807260.573    -6966277.751 6  -5366944.79721        15.250           0.875
  23375824.706    -3573526.959 6  -2734383.74521        12.500           0.406
  20930158.276     2355559.206 6   1841005.62122        18.250           1.500
  22655835.573    -9008544.417 6  -6861687.84521        15.750           0.813
 91  6 18 17 24 29.9990000  0  6G18G 2G11G16G19G 6
  23153711.636    13373330.615 6  10402689.20721        12.000           0.563
  21502095.034   -14411243.633 7 -11190097.88122        23.750           2.219
  22808167.776    -6961509.635 6  -5363229.38821        15.250           0.844
  23378421.222    -3559866.730 5  -2723739.44521        11.750           0.563
  20933746.050     2374410.184 6   1855694.68822        17.250           1.531
  22649622.620    -9041199.190 6  -6887133.10021        15.750           0.781
 91  6 18 17 24 44.9990000  0  6G18G 2G11G16G19G 6
  23163826.917    13426465.372 6  10444092.82621        13.000           0.500
  21496445.237   -14440933.461 7 -11213232.79422        24.250           2.188
  22809103.909    -6956589.102 6  -5359395.20221        15.500           0.813
  23381044.183    -3546083.540 5  -2712999.30721        11.750           0.406
  20937344.112     2393321.698 6   1870430.92721        17.500           1.438
  22643412.464    -9073833.412 6  -6912562.34721        15.750           0.938
 91  6 18 17 24 59.9990000  0  6G18G 2G11G16G19G 6
  23173946.573    13479648.331 6  10485534.03021        12.000           0.531
  21490810.058   -14470544.334 7 -11236306.18522        24.500           2.094
  22810069.714    -6951512.518 6  -5355439.41821        15.250           0.906
  23383694.917    -3532174.130 6  -2702160.83021        12.000           0.438
  20940956.737     2412297.457 6   1885217.22122        16.500           1.500
  22637205.284    -9106443.429 6  -6937972.73321        15.250           0.781
 91  6 18 17 25 14.9990000  0  6G18G 2G11G16G19G 6
  23184071.745    13532876.538 5  10527010.46621        11.500           0.625
  21485190.573   -14500079.142 7 -11259320.30122        24.750           2.156
  22811065.784    -6946282.619 6  -5351364.16521        15.250           0.875
  23386362.417    -3518141.664 6  -2691226.47921        12.000           0.563
  20944576.440     2431334.692 6   1900051.42622        17.500           1.531
  22631006.097    -9139031.984 6  -6963366.38521        15.500           0.906
 91  6 18 17 25 29.9990000  0  6G18G 2G11G16G19G 6
  23194214.815    13586151.397 6  10568523.23621        12.750           0.500
  21479585.464   -14529535.957 7 -11282273.64622        24.750           2.219
  22812087.940    -6940897.687 6  -5347168.11321        15.000           0.875
  23389058.683    -3503984.382 6  -2680194.84621        12.000           0.500
  20948213.042     2450434.936 6   1914934.72421        17.000           1.469
  22624808.433    -9171597.403 6  -6988742.01821        15.000           0.875
 91  6 18 17 25 44.9990000  0  6G18G 2G11G16G19G 6
  23204361.355    13639473.337 6  10610072.74621        13.250           0.500
  21473995.105   -14558914.159 7 -11305165.73522        25.000           2.219
  22813143.784    -6935357.162 6  -5342850.82021        15.250           0.875
  23391772.526    -3489702.086 6  -2669065.80921        12.000           0.563
  20951856.972     2469598.939 6   1929867.70922        17.000           1.500
  22618615.714    -9204138.978 6  -7014099.06621        14.750           0.938
 91  6 18 17 25 59.9990000  0  6G18G 2G11G16G19G 6
  23214511.972    13692835.682 5  10651653.71921        11.750           0.500
  21468417.214   -14588220.391 7 -11328001.74322        24.500           2.250
  22814227.151    -6929667.659 6  -5338417.44621        15.750           0.688
  23394513.823    -3475301.560 6  -2657844.65221        12.750           0.438
  20955517.081     2488820.037 6   1944845.17721        17.000           1.406
  22612425.901    -9236663.229 6  -7039442.61521        15.000           0.906
 91  6 18 17 26 14.9990000  0  6G18G 2G11G16G19G 6
  23224677.839    13746241.018 6  10693268.15821        12.250           0.563
  21462855.503   -14617451.339 7 -11350779.08422        25.000           2.281
  22815338.917    -6923826.136 6  -5333865.60621        15.500           0.844
  23397279.831    -3460779.935 6  -2646529.11621        12.750           0.500
  20959186.206     2508101.564 6   1959869.73722        17.250           1.594
  22606241.987    -9269167.099 6  -7064770.29121        15.000           1.031
 91  6 18 17 26 29.9990000  0  6G18G 2G11G16G19G 6
  23234848.870    13799690.941 6  10734917.36321        13.000           0.438
  21457307.019   -14646605.323 7 -11373496.45922        24.750           2.219
  22816478.855    -6917830.940 6  -5329194.02021        15.500           0.938
  23400067.417    -3446135.763 6  -2635118.07821        12.750           0.563
  20962871.214     2527445.037 6   1974942.56921        16.250           1.469
  22600060.448    -9301648.867 6  -7090080.73721        15.000           1.000
 91  6 18 17 26 44.9990000  0  6G18G 2G11G16G19G 6
  23245024.417    13853183.281 6  10776599.64721        12.250           0.563
  21451772.230   -14675683.873 7 -11396155.05622        25.000           2.188
  22817647.745    -6911683.741 6  -5324404.00321        15.500           0.938
  23402875.792    -3431370.817 6  -2623612.96221        12.750           0.469
  20966559.151     2546848.866 6   1990062.42322        17.000           1.500
  22593885.495    -9334110.095 6  -7115375.17521        15.250           0.969
 91  6 18 17 26 59.9990000  0  6G18G 2G11G16G19G 6
  23255214.089    13906716.081 6  10818313.41521        12.500           0.563
  21446252.855   -14704688.977 7 -11418756.41622        24.750           2.250
  22818847.370    -6905386.512 6  -5319497.06721        15.750           0.906
  23405704.300    -3416487.162 6  -2612015.33221        12.250           0.563
  20970264.620     2566311.047 6   2005227.75121        16.750           1.375
  22587711.269    -9366552.690 6  -7140655.10421        15.250           0.938
 91  6 18 17 27 14.9990000  0  6G18G 2G11G16G19G 6
  23265412.894    13960294.117 6  10860062.46121        13.000           0.531
  21440750.253   -14733615.260 7 -11441296.35622        24.750           2.281
  22820074.534    -6898934.016 6  -5314469.15521        15.750           0.688
  23408567.136    -3401479.690 6  -2600321.21921        12.750           0.594
  20973978.714     2585836.962 6   2020442.74921        17.250           1.438
  22581540.073    -9398971.296 6  -7165916.32521        15.500           0.969
 91  6 18 17 27 29.9990000  0  6G18G 2G11G16G19G 6
  23275613.339    14013912.557 6  10901842.98121        12.500           0.500
  21435260.112   -14762466.982 7 -11463778.20022        25.250           2.281
  22821330.815    -6892330.676 6  -5309323.69521        15.500           0.844
  23411441.730    -3386353.132 6  -2588534.30521        12.500           0.531
  20977706.284     2605422.351 6   2035704.08622        16.500           1.500
  22575377.026    -9431370.318 6  -7191162.30221        15.500           1.000
 91  6 18 17 27 44.9990000  0  6G18G 2G11G16G19G 6
  23285822.784    14067570.167 6  10943654.00821        12.000           0.563
  21429781.886   -14791245.459 7 -11486202.97022        25.250           2.188
  22822616.175    -6885577.851 6  -5304061.75621        15.500           0.844
  23414346.800    -3371109.200 6  -2576655.92221        12.500           0.531
  20981442.542     2625065.723 6   2051010.60021        16.750           1.406
  22569216.347    -9463751.075 6  -7216394.04021        15.750           1.000
 91  6 18 17 27 59.9990000  0  6G18G 2G11G16G19G 6
  23296043.565    14121263.395 6  10985492.79421        13.250           0.531
  21424321.003   -14819953.903 7 -11508573.16522        25.250           2.156
  22823930.362    -6878678.787 6  -5298685.86321        15.750           0.844
  23417261.331    -3355751.272 5  -2564688.71221        11.250           0.375
  20985191.323     2644764.032 6   2066359.92021        16.250           1.375
  22563054.214    -9496116.547 6  -7241613.86721        16.250           0.969
 91  6 18 17 28 14.9990000  0  6G18G 2G11G16G19G 6
  23306264.769    14174998.523 6  11027364.23721        12.250           0.438
  21418870.565   -14848585.839 7 -11530883.75222        25.250           2.188
  22825271.519    -6871627.132 6  -5293191.07021        15.750           0.719
  23420208.886    -3340272.912 5  -2552627.68221        11.500           0.469
  20988951.542     2664523.553 6   2081756.93821        17.250           1.406
  22556902.784    -9528460.514 6  -7266816.94121        16.000           0.906
 91  6 18 17 28 29.9990000  0  6G18G 2G11G16G19G 6
  23316499.409    14228772.954 6  11069266.30121        12.000           0.563
  21413437.612   -14877143.605 7 -11553136.53722        25.500           2.375
  22826641.948    -6864425.199 6  -5287579.18221        15.750           0.875
  23423176.972    -3324676.540 5  -2540474.69021        11.500           0.406
  20992724.495     2684341.962 6   2097199.85322        16.500           1.531
  22550747.144    -9560785.100 6  -7292004.91921        15.500           0.906
 91  6 18 17 28 44.9990000  0  6G18G 2G11G16G19G 6
  23326743.456    14282587.923 6  11111199.95021        12.500           0.563
  21408017.128   -14905625.298 7 -11575330.04722        25.250           2.313
  22828041.347    -6857071.460 6  -5281848.99321        15.750           0.844
  23426170.925    -3308961.034 6  -2528228.86421        12.000           0.406
  20996506.019     2704220.951 6   2112689.96621        17.250           1.344
  22544604.362    -9593088.667 6  -7317176.50421        15.750           0.906
 91  6 18 17 28 59.9990000  0  6G18G 2G11G16G19G 6
  23336992.589    14336444.557 6  11153166.08321        12.500           0.563
  21402611.808   -14934029.377 7 -11597463.07922        25.250           2.250
  22829470.815    -6849564.328 6  -5275999.28621        16.000           0.750
  23429183.651    -3293124.890 5  -2515889.02821        11.500           0.438
  21000302.151     2724162.000 6   2128228.44121        16.750           1.313
  22538459.761    -9625369.640 6  -7342330.49221        15.250           0.938
 91  6 18 17 29 14.9990000  0  6G18G 2G11G16G19G 6
  23347242.472    14390341.178 5  11195163.33521        11.500           0.469
  21397220.073   -14962357.384 7 -11619536.82822        25.250           2.469
  22830926.222    -6841905.625 6  -5270031.47521        15.500           0.781
  23432223.151    -3277170.464 6  -2503457.02121        12.250           0.375
  21004106.886     2744163.527 6   2143814.03721        17.000           1.438
  22532321.683    -9657629.693 6  -7367468.17921        15.750           1.000
 91  6 18 17 29 29.9990000  0  6G18G 2G11G16G19G 6
  23357510.136    14444274.655 6  11237189.32821        12.500           0.563
  21391844.230   -14990612.246 7 -11641553.58622        25.000           2.344
  22832413.081    -6834098.103 6  -5263947.69321        15.750           0.813
  23435273.128    -3261100.169 5  -2490934.73321        11.500           0.313
  21007925.112     2764222.859 6   2159444.68421        16.500           1.406
  22526184.292    -9689871.447 6  -7392591.59721        16.250           1.031
 91  6 18 17 29 44.9990000  0  6G18G 2G11G16G19G 6
  23367780.573    14498243.034 6  11279242.53121        12.500           0.438
  21386479.964   -15018795.487 7 -11663514.53522        25.500           2.438
  22833927.073    -6826143.430 6  -5257749.25321        15.500           0.719
  23438359.753    -3244915.975 5  -2478323.68721        11.250           0.406
  21011750.417     2784338.295 6   2175119.03921        17.000           1.438
  22520053.737    -9722096.477 6  -7417701.99421        16.250           0.938
 91  6 18 17 29 59.9990000  0  6G18G 2G11G16G19G 6
  23378054.823    14552252.913 5  11321328.05321        11.750           0.406
  21381132.464   -15046900.094 7 -11685414.21322        25.750           2.438
  22835469.315    -6818034.886 6  -5251430.91821        15.250           0.813
  23441457.636    -3228611.437 5  -2465618.86321        11.250           0.469
  21015592.589     2804516.628 6   2190842.41521        16.500           1.438
  22513925.128    -9754298.008 6  -7442794.07421        16.250           1.000
 91  6 18 17 30 14.9990000  0  6G18G 2G11G16G19G 6
  23388341.878    14606296.548 5  11363439.88121        11.750           0.344
  21375798.620   -15074933.782 7 -11707258.62822        25.750           2.313
  22837040.714    -6809780.141 6  -5244998.65021        15.250           0.781
  23444582.331    -3212194.327 5  -2452826.31421        11.000           0.344
  21019440.464     2824750.250 6   2206608.86521        16.750           1.469
  22507799.222    -9786483.596 6  -7467873.73621        16.250           1.031
 91  6 18 17 30 29.9990000  0  6G18G 2G11G16G19G 6
  23398634.933    14660377.066 6  11405580.44621        12.250           0.438
  21370477.534   -15102892.843 7 -11729044.89622        26.250           2.344
  22838639.480    -6801375.706 6  -5238449.74721        15.000           0.813
  23447729.948    -3195661.151 5  -2439943.36521        11.000           0.375
  21023307.065     2845042.921 6   2222421.33221        15.750           1.375
  22501678.698    -9818649.589 6  -7492938.12821        16.250           1.094
 91  6 18 17 30 44.9990000  0  6G18G 2G11G16G19G 6
  23408928.714    14714495.755 5  11447750.76821        11.000           0.500
  21365171.355   -15130775.821 7 -11750771.87722        26.000           2.375
  22840267.511    -6792820.025 6  -5231782.99421        15.250           0.813
  23450897.003    -3179010.786 5  -2426969.07221        11.500           0.438
  21027176.573     2865396.085 6   2238280.93221        16.750           1.438
  22495564.331    -9850794.498 6  -7517986.09221        16.500           0.969
 91  6 18 17 30 59.9990000  0  6G18G 2G11G16G19G 6
  23419235.698    14768652.025 5  11489950.33921        11.000           0.438
  21359880.730   -15158582.962 7 -11772439.76322        26.500           2.406
  22841923.753    -6784113.557 6  -5224998.74321        15.000           0.781
  23454088.347    -3162243.961 5  -2413904.01821        11.500           0.438
  21031064.440     2885809.201 6   2254187.24921        15.000           1.438
  22489449.589    -9882918.618 6  -7543017.85521        16.250           1.063
 91  6 18 17 31 14.9990000  0  6G18G 2G11G16G19G 6
  23429552.120    14822845.820 5  11532179.18021        11.750           0.438
  21354603.956   -15186313.774 7 -11794048.17322        26.500           2.281
  22843609.612    -6775256.068 6  -5218096.80821        15.250           0.844
  23457299.339    -3145360.545 5  -2400748.15121        11.250           0.344
  21034955.995     2906282.808 6   2270140.69722        16.250           1.500
  22483338.815    -9915021.562 6  -7568033.11821        16.000           1.000
 91  6 18 17 31 29.9990000  0  6G18G 2G11G16G19G 6
  23439870.151    14877078.877 5  11574438.61221        11.500           0.438
  21349342.995   -15213966.030 7 -11815595.37022        26.750           2.375
  22845324.112    -6766245.355 6  -5211075.48421        15.000           0.813
  23460533.964    -3128358.310 5  -2387499.67221        11.250           0.406
  21038867.917     2926819.202 6   2286143.07722        15.250           1.500
  22477234.940    -9947101.005 6  -7593030.06721        16.000           1.094
 91  6 18 17 31 44.9990000  0  6G18G 2G11G16G19G 6
  23450194.628    14931352.453 5  11616729.62121        10.750           0.469
  21344095.565   -15241538.865 7 -11837080.68122        26.500           2.438
  22847068.347    -6757080.508 6  -5203934.05921        15.250           0.844
  23463797.550    -3111236.831 5  -2374158.28321        11.750           0.469
  21042784.206     2947419.128 6   2302194.96021        16.250           1.469
  22471133.480    -9979155.992 6  -7618007.96321        16.000           1.031
 91  6 18 17 31 59.9990000  0  6G18G 2G11G16G19G 6
  23460534.065    14985664.669 5  11659050.72221        11.250           0.469
  21338863.253   -15269033.338 7 -11858504.93422        26.500           2.406
  22848840.753    -6747762.776 6  -5196673.50021        14.750           0.875
  23467078.323    -3093997.379 5  -2360724.97221        11.500           0.469
  21046719.206     2968081.370 6   2318295.40222        15.750           1.500
  22465040.722   -10011187.693 6  -7642967.71221        16.000           1.000
 91  6 18 17 32 14.9990000  0  6G18G 2G11G16G19G 6
  23470877.933    15040014.558 5  11701401.17821        11.250           0.500
  21333644.792   -15296450.310 7 -11879868.79022        26.250           2.469
  22850645.730    -6738293.218 6  -5189294.62621        15.000           0.906
  23470377.894    -3076640.885 5  -2347200.44121        11.500           0.438
  21050659.612     2988805.177 6   2334443.81222        16.000           1.563
  22458948.253   -10043196.914 6  -7667909.94621        16.500           1.031
 91  6 18 17 32 29.9990000  0  6G18G 2G11G16G19G 6
  23481223.862    15094404.023 5  11743782.48421        10.750           0.406
  21328443.472   -15323787.634 7 -11901170.58322        26.000           2.469
  22852475.144    -6728669.586 6  -5181795.70721        15.500           0.969
  23473699.847    -3059165.469 5  -2333583.26121        11.750           0.469
  21054619.495     3009592.722 6   2350641.88522        15.250           1.500
  22452860.940   -10075181.473 6  -7692832.96521        16.750           1.000
 91  6 18 17 32 44.9990000  0  6G18G 2G11G16G19G 6
  23491582.917    15148831.795 5  11786193.62621        10.750           0.500
  21323255.964   -15351046.151 7 -11922410.97122        26.000           2.469
  22854336.815    -6718893.009 6  -5174177.60121        15.750           0.906
  23477049.198    -3041572.672 5  -2319874.60021        11.750           0.375
  21058583.987     3030443.078 6   2366888.90722        16.250           1.531
  22446779.878   -10107142.194 6  -7717737.41221        16.500           0.906
 91  6 18 17 32 59.9990000  0  6G18G 2G11G16G19G 6
  23501950.800    15203298.396 5  11828635.02021        11.500           0.531
  21318084.269   -15378225.122 7 -11943589.37522        25.500           2.469
  22856224.831    -6708962.999 6  -5166439.94021        15.750           0.969
  23480427.761    -3023861.857 6  -2306073.99621        12.000           0.406
  21062562.901     3051356.915 6   2383185.39222        15.750           1.563
  22440701.362   -10139078.407 6  -7742622.75921        16.250           1.063
 91  6 18 17 33 14.9990000  0  6G18G 2G11G16G19G 6
  23512319.042    15257799.913 5  11871103.64621        10.500           0.406
  21312926.870   -15405327.812 7 -11964708.33622        26.250           2.375
  22858143.097    -6698882.800 6  -5158585.24721        15.250           0.906
  23483810.058    -3006036.508 5  -2292184.15121        11.500           0.375
  21066555.190     3072330.713 6   2399528.59822        16.000           1.531
  22434629.370   -10170993.542 6  -7767491.67521        16.750           1.063
 91  6 18 17 33 29.9990000  0  6G18G 2G11G16G19G 6
  23522697.058    15312340.336 5  11913602.55021        10.000           0.406
  21307783.144   -15432350.136 7 -11985764.68222        26.000           2.375
  22860092.394    -6688648.405 6  -5150610.40821        15.250           0.875
  23487229.870    -2988093.006 5  -2278202.21521        11.750           0.500
  21070562.433     3093368.778 6   2415921.87922        14.750           1.500
  22428561.511   -10202883.288 6  -7792340.81721        16.750           1.063
 91  6 18 17 33 44.9990000  0  6G18G 2G11G16G19G 6
  23533084.433    15366919.377 5  11956131.56221        11.000           0.531
  21302656.315   -15459292.007 7 -12006758.32323        26.250           2.500
  22862066.144    -6678259.747 6  -5142515.35821        15.250           0.844
  23490664.151    -2970031.600 5  -2264128.41621        11.500           0.438
  21074573.706     3114471.243 6   2432365.35222        16.000           1.531
  22422499.706   -10234747.554 6  -7817170.10021        16.250           1.125
 91  6 18 17 33 59.9990000  0  6G18G 2G11G16G19G 6
  23543477.136    15421535.731 5  11998689.66421        10.500           0.313
  21297545.214   -15486154.566 7 -12027690.17423        26.500           2.500
  22864073.308    -6667718.193 6  -5134301.16021        15.500           0.875
  23494126.855    -2951853.750 6  -2249963.88521        12.000           0.344
  21078601.815     3135636.833 6   2448858.00221        16.500           1.469
  22416438.269   -10266587.505 6  -7841980.43521        15.750           1.156
 91  6 18 17 34 14.9990000  0  6G18G 2G11G16G19G 6
  23553877.222    15476187.974 5  12041275.72321        10.000           0.406
  21292449.839   -15512938.815 7 -12048561.00323        26.750           2.531
  22866108.675    -6657024.876 6  -5125968.71721        15.750           0.906
  23497602.612    -2933560.433 5  -2235709.36121        11.500           0.313
  21082641.698     3156864.408 6   2465398.95921        16.250           1.406
  22410383.487   -10298404.007 6  -7866772.49721        15.750           1.094
 91  6 18 17 34 29.9990000  0  6G18G 2G11G16G19G 6
  23564282.550    15530877.778 5  12083891.02421         9.500           0.344
  21287367.628   -15539642.844 7 -12069369.32022        27.000           2.469
  22868174.190    -6646177.860 6  -5117516.49721        15.750           0.906
  23501109.870    -2915150.024 5  -2221363.62621        11.250           0.344
  21086691.542     3178156.125 6   2481989.89421        16.000           1.469
  22404335.261   -10330195.159 6  -7891544.80921        16.000           1.156
 91  6 18 17 34 44.9990000  0  6G18G 2G11G16G19G 6
  23574699.769    15585606.311 5  12126536.52021        10.000           0.313
  21282299.839   -15566264.972 7 -12090113.82123        26.500           2.563
  22870267.839    -6635175.793 6  -5108943.46421        15.500           0.906
  23504630.081    -2896621.110 5  -2206925.52521        11.500           0.344
  21090756.737     3199513.491 6   2498631.99221        16.500           1.313
  22398292.034   -10361959.463 6  -7916296.20021        16.250           1.094
 91  6 18 17 34 59.9990000  0  6G18G 2G11G16G19G 6
  23585120.909    15640371.221 5  12169210.37521         9.750           0.344
  21277250.815   -15592807.387 7 -12110796.20423        26.750           2.500
  22872388.448    -6624021.024 6  -5100251.45021        15.500           0.813
  23508187.253    -2877976.375 5  -2192397.18621        11.500           0.406
  21094833.237     3220934.128 6   2515323.38522        16.000           1.531
  22392249.534   -10393699.000 6  -7941028.28921        16.500           1.125
 91  6 18 17 35 14.9990000  0  6G18G 2G11G16G19G 6
  23595549.003    15695172.782 5  12211912.80721         9.750           0.406
  21272212.776   -15619269.510 7 -12131416.02722        26.000           2.469
  22874541.690    -6612713.017 6  -5091440.02721        15.500           0.781
  23511752.675    -2859215.643 5  -2177778.45321        11.000           0.313
  21098922.433     3242418.510 6   2532064.44721        16.500           1.406
  22386216.542   -10425413.282 6  -7965740.69721        16.750           1.063
 91  6 18 17 35 29.9990000  0  6G18G 2G11G16G19G 6
  23605983.878    15750007.613 5  12254641.12321         9.500           0.375
  21267194.058   -15645654.211 7 -12151975.51422        26.750           2.406
  22876721.683    -6601255.016 6  -5082511.72121        15.250           0.844
  23515342.190    -2840342.311 5  -2163071.98321        10.750           0.375
  21103024.894     3263963.786 6   2548852.96221        15.500           1.469
  22380183.831   -10457105.248 6  -7990435.72721        17.000           1.063
 91  6 18 17 35 44.9990000  0  6G18G 2G11G16G19G 6
  23616426.730    15804880.200 5  12297398.86221         9.000           0.375
  21262187.581   -15671957.164 7 -12172471.30923        26.250           2.500
  22878932.878    -6589642.422 6  -5073462.95221        15.750           0.813
  23518954.472    -2821351.770 5  -2148274.17721        10.750           0.469
  21107133.300     3285574.659 6   2565692.59721        16.500           1.375
  22374160.089   -10488770.333 6  -8015109.80221        17.500           1.188
 91  6 18 17 35 59.9990000  0  6G18G 2G11G16G19G 6
  23626874.683    15859788.288 5  12340184.26521         8.500           0.344
  21257198.644   -15698179.923 7 -12192904.61022        26.250           2.438
  22881169.151    -6577876.971 6  -5064295.07821        15.500           0.969
  23522595.284    -2802245.773 5  -2133386.42821        10.750           0.438
  21111258.847     3307249.361 6   2582581.95621        15.750           1.375
  22368138.620   -10520410.046 6  -8039764.11521        17.250           1.094
 91  6 18 17 36 14.9990000  0  6G18G 2G11G16G19G 6
  23637328.237    15914735.479 5  12383000.13121         9.000           0.375
  21252222.964   -15724318.643 7 -12213272.43122        26.250           2.469
  22883439.464    -6565954.957 6  -5055005.20621        15.250           0.813
  23526248.948    -2783021.023 5  -2118406.12321        10.000           0.344
  21115395.487     3328991.850 6   2599524.14521        16.500           1.438
  22362125.315   -10552020.504 6  -8064395.62121        17.500           1.125
 91  6 18 17 36 29.9990000  0  6G18G 2G11G16G19G 6
  23647793.940    15969718.222 5  12425843.70121         9.000           0.406
  21247266.737   -15750376.478 7 -12233577.22322        26.500           2.469
  22885739.190    -6553879.851 6  -5045596.02721        15.750           0.813
  23529943.620    -2763681.028 5  -2103336.03821        10.500           0.406
  21119548.730     3350798.541 6   2616516.36421        15.500           1.250
  22356111.980   -10583604.926 6  -8089006.84321        17.000           1.156
 91  6 18 17 36 44.9990000  0  6G18G 2G11G16G19G 6
  23658261.722    16024729.203 5  12468709.28421         8.500           0.375
  21242320.542   -15776360.759 7 -12253824.70222        26.500           2.469
  22888062.128    -6541658.989 6  -5036073.29421        15.250           0.844
  23533637.605    -2744233.359 5  -2088182.03421        10.250           0.500
  21123706.901     3372662.263 6   2633553.02321        16.500           1.313
  22350105.675   -10615170.719 6  -8113603.55121        17.000           1.063
 91  6 18 17 36 59.9990000  0  6G18G 2G11G16G19G 6
  23668733.581    16079771.519 5  12511599.27421         8.750           0.313
  21237390.909   -15802268.031 7 -12274012.17222        26.250           2.438
  22890416.815    -6529289.229 6  -5026434.52821        15.500           1.000
  23537352.472    -2724674.859 5  -2072941.67821        10.000           0.469
  21127877.612     3394586.295 6   2650636.67422        16.250           1.500
  22344104.105   -10646714.389 6  -8138183.02121        17.500           1.094
 91  6 18 17 37 14.9990000  0  6G18G 2G11G16G19G 6
  23679216.901    16134846.914 5  12554515.04121         9.000           0.344
  21232476.440   -15828095.779 7 -12294137.67722        26.250           2.375
  22892799.925    -6516768.284 6  -5016677.95321        15.500           0.750
  23541103.269    -2705003.714 5  -2057613.54121        10.750           0.406
  21132062.362     3416573.140 6   2667769.27021        16.750           1.344
  22338104.769   -10678233.491 6  -8162743.34621        17.500           1.094
 91  6 18 17 37 29.9990000  0  6G18G 2G11G16G19G 6
  23689704.855    16189950.495 5  12597452.77121         9.250           0.219
  21227574.847   -15853848.543 7 -12314204.75222        26.250           2.469
  22895210.956    -6504100.741 6  -5006807.14921        15.500           0.906
  23544857.659    -2685224.474 5  -2042201.17321        10.250           0.406
  21136258.823     3438618.319 6   2684947.32321        16.000           1.344
  22332112.409   -10709732.510 6  -8187288.01721        17.500           1.125
 91  6 18 17 37 44.9990000  0  6G18G 2G11G16G19G 6
  23700195.003    16245087.682 5  12640416.69921         9.500           0.250
  21222689.058   -15879520.936 7 -12334209.19722        26.250           2.469
  22897648.745    -6491281.195 6  -4996817.89721        15.250           0.844
  23548650.300    -2665331.699 5  -2026700.36121        10.250           0.469
  21140463.964     3460727.262 6   2702175.06321        16.500           1.281
  22326124.198   -10741205.915 6  -8211812.73921        18.000           1.094
 91  6 18 17 37 59.9990000  0  6G18G 2G11G16G19G 6
  23710691.925    16300254.478 5  12683403.70421         9.000           0.281
  21217819.128   -15905116.673 7 -12354153.91322        26.250           2.469
  22900117.855    -6478313.532 6  -4986713.22621        15.500           0.875
  23552454.362    -2645329.786 5  -2011114.48821        10.250           0.406
  21144682.987     3482896.166 6   2719449.52321        16.250           1.281
  22320137.917   -10772657.394 6  -8236320.36721        17.750           1.063
 91  6 18 17 38 14.9990000  0  6G18G 2G11G16G19G 6
  23721197.792    16355453.082 5  12726415.49021         9.500           0.313
  21212964.440   -15930633.305 7 -12374036.98722        26.250           2.375
  22902612.612    -6465195.471 6  -4976491.36821        15.000           0.938
  23556278.995    -2625216.446 5  -1995441.79321        10.500           0.469
  21148913.300     3505127.329 6   2736772.49421        16.750           1.313
  22314155.019   -10804084.557 6  -8260809.04721        17.250           1.031
 91  6 18 17 38 29.9990000  0  6G18G 2G11G16G19G 6
  23731707.972    16410681.998 5  12769450.88321         9.500           0.250
  21208123.706   -15956072.384 7 -12393859.63522        26.250           2.438
  22905137.714    -6451928.704 6  -4966153.64021        15.250           0.875
  23560134.901    -2604993.511 5  -1979683.68121        11.000           0.375
  21153156.190     3527419.431 6   2754142.96021        16.500           1.469
  22308179.901   -10835488.772 6  -8285279.84521        17.500           1.094
 91  6 18 17 38 44.9990000  0  6G18G 2G11G16G19G 6
  23742222.815    16465941.879 5  12812510.41321         9.250           0.250
  21203297.987   -15981432.531 7 -12413620.77223        26.750           2.500
  22907688.808    -6438511.919 6  -4955699.01321        14.750           0.844
  23564003.597    -2584659.848 5  -1963839.30121        11.000           0.406
  21157408.448     3549773.701 6   2771561.85721        16.500           1.375
  22302207.690   -10866868.752 6  -8309731.76721        17.250           0.906
 91  6 18 17 38 59.9990000  0  6G18G 2G11G16G19G 6
  23752744.308    16521234.776 5  12855595.65721         9.250           0.375
  21198486.245   -16006711.151 7 -12433318.39022        26.250           2.469
  22910272.589    -6424942.691 6  -4945125.59921        15.250           0.844
  23567897.456    -2564213.239 5  -1947906.92221        11.250           0.469
  21161678.206     3572192.675 6   2789031.18121        15.750           1.438
  22296241.948   -10898221.872 6  -8334162.75221        17.500           1.063
 91  6 18 17 39 14.9990000  0  6G18G 2G11G16G19G 6
  23763271.862    16576555.078 5  12898702.26021         8.750           0.375
  21193689.339   -16031913.641 7 -12452956.68123        26.500           2.500
  22912883.433    -6411226.595 6  -4934437.73121        15.000           0.813
  23571803.542    -2543659.507 5  -1931891.05921        11.000           0.438
  21165952.495     3594670.779 6   2806546.57521        16.750           1.406
  22290280.800   -10929553.406 6  -8358576.91521        17.500           1.094
 91  6 18 17 39 29.9990000  0  6G18G 2G11G16G19G 6
  23773804.245    16631907.332 5  12941833.76221         8.000           0.281
  21188908.901   -16057035.409 7 -12472532.07323        26.500           2.531
  22915520.417    -6397359.213 6  -4923631.99321        15.000           0.750
  23575733.628    -2522994.400 5  -1915788.42221        10.750           0.313
  21170242.698     3617212.698 6   2824111.69321        16.500           1.375
  22284323.495   -10960858.891 6  -8382970.78521        17.500           1.094
 91  6 18 17 39 44.9990000  0  6G18G 2G11G16G19G 6
  23784345.222    16687288.849 5  12984988.04621         8.250           0.313
  21184144.847   -16082078.787 7 -12492046.38123        26.250           2.563
  22918190.120    -6383343.026 6  -4912710.30621        15.250           0.781
  23579689.792    -2502220.308 5  -1899600.82121        10.500           0.406
  21174542.714     3639816.113 6   2841724.73321        16.250           1.406
  22278370.808   -10992140.634 6  -8407346.15221        17.500           1.125
 91  6 18 17 39 59.9990000  0  6G18G 2G11G16G19G 6
  23794885.378    16742695.338 5  13028161.80521         8.250           0.313
  21179393.401   -16107047.376 7 -12511502.41123        26.000           2.594
  22920883.987    -6369181.960 6  -4901675.71521        14.750           0.813
  23583656.917    -2481341.230 5  -1883331.45121        10.250           0.469
  21178856.417     3662477.227 6   2859382.73421        16.000           1.438
  22272421.761   -11023402.343 6  -8431705.90521        17.750           1.156
 91  6 18 17 40 14.9990000  0  6G18G 2G11G16G19G 6
  23805438.050    16798130.501 5  13071357.92721         8.500           0.375
  21174658.823   -16131937.227 7 -12530897.09023        26.250           2.531
  22923604.276    -6354872.131 6  -4890525.20921        14.500           0.781
  23587658.089    -2460353.568 5  -1866977.45721        10.500           0.406
  21183179.730     3685199.980 6   2877088.76021        16.500           1.438
  22266475.565   -11054639.906 6  -8456046.84821        17.750           1.188
 91  6 18 17 40 29.9990000  0  6G18G 2G11G16G19G 6
  23815991.308    16853594.449 5  13114576.44921         8.000           0.406
  21169935.948   -16156748.103 7 -12550230.22323        26.500           2.656
  22926359.073    -6340413.446 6  -4879258.70521        14.750           0.719
  23591671.073    -2439257.480 5  -1850538.98921        10.500           0.406
  21187516.831     3707984.782 6   2894843.14222        16.000           1.531
  22260537.714   -11085853.032 6  -8480368.74921        18.000           1.125
 91  6 18 17 40 44.9990000  0  6G18G 2G11G16G19G 6
  23826551.761    16909086.386 5  13157816.79521         7.750           0.313
  21165229.347   -16181480.734 7 -12569502.39322        26.750           2.469
  22929138.636    -6325806.622 6  -4867876.77521        14.500           0.719
  23595701.065    -2418053.745 5  -1834016.63321        10.500           0.344
  21191863.151     3730830.914 6   2912645.30821        16.250           1.375
  22254604.698   -11117042.306 6  -8504672.05521        17.750           1.219
 91  6 18 17 40 59.9990000  0  6G18G 2G11G16G19G 6
  23837117.511    16964603.533 5  13201076.76921         7.750           0.313
  21160536.339   -16206137.480 7 -12588715.43223        26.500           2.719
  22931946.386    -6311054.355 6  -4856381.51221        14.750           0.750
  23599754.659    -2396745.423 5  -1817412.78821        10.250           0.406
  21196224.456     3753735.844 6   2930493.29121        15.750           1.375
  22248672.581   -11148210.121 6  -8528958.64921        17.500           1.219
 91  6 18 17 41 14.9990000  0  6G18G 2G11G16G19G 6
  23847685.339    17020147.873 5  13244357.93421         7.500           0.313
  21155859.995   -16230716.131 7 -12607867.61523        26.250           2.625
  22934780.019    -6296154.415 6  -4844771.17521        14.750           0.781
  23603835.300    -2375330.246 5  -1800725.67321        10.750           0.438
  21200592.495     3776701.868 6   2948388.88121        16.500           1.469
  22242743.644   -11179354.178 6  -8553226.72921        17.750           1.000
 91  6 18 17 41 29.9990000  0  6G18G 2G11G16G19G 6
  23858259.511    17075716.193 5  13287657.79821         7.500           0.313
  21151196.933   -16255219.266 7 -12626960.95723        26.500           2.625
  22937642.948    -6281109.549 6  -4833047.90921        14.500           0.750
  23607923.480    -2353811.203 5  -1783957.61821        10.000           0.500
  21204975.933     3799726.289 6   2966329.97821        16.250           1.469
  22236822.855   -11210477.102 6  -8577478.33821        17.750           1.219
 91  6 18 17 41 44.9990000  0  6G18G 2G11G16G19G 6
  23868836.980    17131306.046 5  13330974.40021         8.000           0.281
  21146547.315   -16279648.804 7 -12645996.94823        26.000           2.594
  22940532.855    -6265922.030 6  -4821213.48621        14.750           0.813
  23612046.917    -2332190.471 5  -1767110.32421        10.750           0.469
  21209367.276     3822807.155 6   2984315.05221        16.500           1.469
  22230905.605   -11241580.959 6  -8601715.09221        17.750           1.094
 91  6 18 17 41 59.9990000  0  6G18G 2G11G16G19G 6
  23879423.925    17186921.765 5  13374311.21021         8.250           0.344
  21141914.253   -16304000.741 7 -12664972.47323        26.000           2.750
  22943453.073    -6250587.871 6  -4809264.80321        15.000           0.781
  23616175.315    -2310464.390 5  -1750180.95021        10.500           0.500
  21213771.065     3845948.486 6   3002347.24621        16.250           1.469
  22224987.933   -11272661.446 6  -8625933.63921        17.750           1.219
 91  6 18 17 42 14.9990000  0  6G18G 2G11G16G19G 6
  23890009.980    17242565.938 5  13417670.16821         8.250           0.375
  21137295.058   -16328272.284 7 -12683885.35323        25.750           2.594
  22946399.323    -6235104.425 6  -4797199.79421        14.750           0.781
  23620332.003    -2288630.319 5  -1733167.42921        10.750           0.500
  21218186.237     3869153.114 6   3020428.76521        16.750           1.469
  22219081.253   -11303715.767 6  -8650131.79221        18.250           1.250
 91  6 18 17 42 29.9990000  0  6G18G 2G11G16G19G 6
  23900604.737    17298238.200 5  13461051.01221         8.000           0.375
  21132691.878   -16352463.033 7 -12702735.27623        26.000           2.625
  22949371.636    -6219471.623 6  -4785018.39921        14.500           0.813
  23624506.519    -2266688.264 5  -1716069.76221        10.000           0.469
  21222614.565     3892421.241 6   3038559.75821        16.250           1.375
  22213175.167   -11334743.529 6  -8674309.25121        18.250           1.125
 91  6 18 17 42 44.9990000  0  6G18G 2G11G16G19G 6
  23911206.401    17353938.386 5  13504453.61321         8.250           0.313
  21128105.136   -16376573.058 7 -12721522.29623        26.250           2.688
  22952376.847    -6203689.436 6  -4772720.59121        14.500           0.844
  23628705.503    -2244638.799 5  -1698888.41121        10.500           0.469
  21227053.331     3915752.926 6   3056740.27921        16.500           1.438
  22207275.362   -11365744.730 6  -8698466.01621        17.750           1.219
 91  6 18 17 42 59.9990000  0  6G18G 2G11G16G19G 6
  23921810.120    17409665.010 5  13547876.81421         8.000           0.344
  21123531.276   -16400603.465 7 -12740247.28023        26.000           2.656
  22955407.394    -6187759.387 6  -4760307.56921        15.250           0.813
  23632918.378    -2222483.327 5  -1681624.42421        11.000           0.375
  21231508.761     3939146.977 6   3074969.39221        15.250           1.469
  22201380.480   -11396720.571 6  -8722603.01721        17.750           1.313
 91  6 18 17 43 14.9990000  0  6G18G 2G11G16G19G 6
  23932417.886    17465416.382 5  13591319.29221         7.750           0.375
  21118974.112   -16424555.369 7 -12758911.08723        26.250           2.656
  22958467.511    -6171682.723 6  -4747780.30821        14.750           0.781
  23637158.042    -2200223.175 5  -1664278.88921        11.250           0.438
  21235968.620     3962602.111 6   3093246.10721        16.250           1.438
  22195491.589   -11427672.087 6  -8746721.06521        17.750           1.281
 91  6 18 17 43 29.9990000  0  6G18G 2G11G16G19G 6
  23943030.050    17521193.748 5  13634782.04121         7.500           0.375
  21114431.776   -16448427.507 7 -12777512.74323        26.250           2.719
  22961553.980    -6155458.312 6  -4735137.91721        14.500           0.750
  23641409.003    -2177857.533 5  -1646851.14221        10.500           0.531
  21240449.940     3986119.629 6   3111571.43421        14.750           1.469
  22189606.222   -11458597.898 6  -8770819.08421        18.250           1.188
 91  6 18 17 43 44.9990000  0  6G18G 2G11G16G19G 6
  23953651.972    17576994.158 5  13678262.71321         7.500           0.313
  21109902.901   -16472222.616 7 -12796054.38223        26.250           2.719
  22964670.417    -6139088.985 6  -4722382.60221        14.500           0.781
  23645688.448    -2155389.307 5  -1629343.48721        10.750           0.469
  21244929.612     4009696.867 6   3129943.28921        16.250           1.406
  22183727.058   -11489500.753 6  -8794899.21521        17.750           1.250
 91  6 18 17 43 59.9990000  0  6G18G 2G11G16G19G 6
  23964274.769    17632815.381 5  13721759.63421         8.000           0.406
  21105389.323   -16495942.529 7 -12814537.41823        25.750           2.656
  22967810.769    -6122576.747 6  -4709515.93721        14.500           0.875
  23649984.261    -2132820.440 5  -1611757.40121        11.250           0.469
  21249431.909     4033332.002 6   3148360.26022        15.250           1.563
  22177849.206   -11520382.380 6  -8818962.80421        18.250           1.188
 91  6 18 17 44 14.9990000  0  6G18G 2G11G16G19G 6
  23974902.011    17688657.336 5  13765272.70021         7.750           0.344
  21100889.925   -16519586.961 7 -12832961.64523        25.750           2.719
  22970983.917    -6105921.593 6  -4696537.89021        14.750           0.844
  23654296.737    -2110151.238 5  -1594093.13421        10.750           0.375
  21253935.511     4057025.376 6   3166822.62321        16.250           1.375
  22171976.847   -11551242.509 6  -8843009.63921        18.250           1.250
 91  6 18 17 44 29.9990000  0  6G18G 2G11G16G19G 6
  23985531.433    17744523.648 5  13808804.74021         7.750           0.219
  21096403.526   -16543152.176 7 -12851324.14323        25.750           2.813
  22974176.659    -6089119.850 6  -4683445.63321        14.250           0.813
  23658631.042    -2087378.044 5  -1576347.79921        11.000           0.375
  21258458.855     4080780.668 6   3185333.22221        15.750           1.469
  22166111.042   -11582077.230 6  -8867036.68621        18.250           1.250
 91  6 18 17 44 44.9990000  0  6G18G 2G11G16G19G 6
  23996166.628    17800411.328 5  13852353.43221         8.000           0.313
  21091934.917   -16566640.902 7 -12869627.03523        25.750           2.781
  22977404.019    -6072174.416 6  -4670241.40621        14.250           0.844
  23662981.394    -2064503.972 5  -1558523.88421        10.500           0.438
  21262988.456     4104595.202 6   3203889.98621        16.250           1.438
  22160246.347   -11612889.216 6  -8891046.00021        18.500           1.250
 91  6 18 17 44 59.9990000  0  6G18G 2G11G16G19G 6
  24006804.776    17856320.085 5  13895918.55821         8.250           0.313
  21087480.409   -16590053.037 7 -12887870.24923        26.250           2.781
  22980654.315    -6055085.292 6  -4656925.21321        14.750           0.844
  23667348.581    -2041529.238 5  -1540621.53521         9.500           0.406
  21267534.987     4128468.976 6   3222492.91521        15.250           1.375
  22154386.323   -11643678.293 6  -8915037.47921        18.500           1.188
 91  6 18 17 45 14.9990000  0  6G18G 2G11G16G19G 6
  24017448.597    17912251.403 5  13939501.26821         8.250           0.219
  21083039.667   -16613386.722 7 -12906052.33623        26.250           2.781
  22983932.722    -6037850.835 6  -4643495.77421        14.250           0.813
  23671747.362    -2018452.337 5  -1522639.58121         9.750           0.406
  21272086.667     4152403.880 6   3241143.47421        16.250           1.406
  22148531.792   -11674442.638 6  -8939009.66821        18.500           1.250
 91  6 18 17 45 29.9990000  0  6G18G 2G11G16G19G 6
  24028096.683    17968202.991 5  13983099.76021         8.500           0.406
  21078614.878   -16636643.731 7 -12924174.67223        26.250           2.813
  22987240.355    -6020473.238 6  -4629954.79721        14.250           0.781
  23676159.261    -1995275.447 5  -1504579.71121        10.500           0.500
  21276652.776     4176397.724 6   3259839.95821        16.000           1.438
  22142683.440   -11705184.317 6  -8962964.20421        18.250           1.313
 91  6 18 17 45 44.9990000  0  6G18G 2G11G16G19G 6
  24038750.753    18024176.023 5  14026714.94521         8.750           0.375
  21074202.769   -16659822.969 7 -12942236.40823        26.000           2.750
  22990575.878    -6002951.400 6  -4616301.41121        14.750           0.719
  23680588.558    -1971998.196 5  -1486441.61321        11.000           0.375
  21281228.870     4200451.944 6   3278583.49221        15.750           1.344
  22136838.050   -11735901.836 6  -8986899.92021        18.500           1.281
 91  6 18 17 45 59.9990000  0  6G18G 2G11G16G19G 6
  24049404.245    18080166.282 5  14070343.55821         9.000           0.344
  21069805.386   -16682928.532 7 -12960240.73423        25.750           2.719
  22993937.081    -5985289.580 6  -4602538.96521        15.250           0.750
  23685032.440    -1948624.412 5  -1468228.29321        10.250           0.406
  21285821.394     4224562.576 6   3297370.98521        14.500           1.406
  22130996.847   -11766599.347 6  -9010820.03921        18.500           1.344
 91  6 18 17 46 14.9990000  0  6G18G 2G11G16G19G 6
  24060062.362    18136177.136 5  14113988.22421         8.750           0.344
  21065423.886   -16705956.335 7 -12978184.46423        26.250           2.844
  22997323.425    -5967483.982 6  -4588664.48421        14.750           0.906
  23689504.901    -1925150.351 5  -1449936.83921        10.750           0.406
  21290417.589     4248733.562 6   3316205.50621        15.750           1.375
  22125161.081   -11797272.626 6  -9034721.27621        19.000           1.281
 91  6 18 17 46 29.9990000  0  6G18G 2G11G16G19G 6
  24070724.792    18192209.125 5  14157649.35821         8.500           0.344
  21061056.495   -16728905.546 7 -12996066.96223        26.500           2.875
  23000739.276    -5949533.920 6  -4574677.42721        14.750           0.813
  23693986.753    -1901575.808 5  -1431567.11821         9.750           0.250
  21295028.683     4272965.571 6   3335087.57521        16.250           1.344
  22119328.683   -11827920.915 6  -9058603.04021        19.500           1.344
 91  6 18 17 46 44.9990000  0  6G18G 2G11G16G19G 6
  24081390.058    18248260.056 5  14201325.26221         8.000           0.156
  21056704.081   -16751777.993 7 -13013889.63523        26.500           2.875
  23004183.495    -5931441.358 6  -4560579.33521        15.000           0.750
  23698496.737    -1877902.530 5  -1413120.41621        10.500           0.375
  21299652.183     4297256.796 6   3354015.78921        16.250           1.438
  22113499.862   -11858545.904 6  -9082466.65121        19.000           1.406
 91  6 18 17 46 59.9990000  0  6G18G 2G11G16G19G 6
  24092060.886    18304330.172 5  14245016.09721         8.750           0.281
  21052366.456   -16774573.469 7 -13031652.34123        27.250           2.844
  23007652.495    -5913206.166 6  -4546370.10821        15.000           0.813
  23703015.612    -1854130.809 5  -1394597.03021        10.500           0.469
  21304285.847     4321607.515 6   3372990.36221        15.500           1.344
  22107676.128   -11889147.235 6  -9106311.82921        19.000           1.281
 91  6 18 17 47 14.9990000  0  6G18G 2G11G16G19G 6
  24102735.026    18360424.153 5  14288725.54021         8.000           0.344
  21048044.714   -16797286.976 7 -13049351.16423        27.000           2.813
  23011151.730    -5894823.507 6  -4532045.96421        15.000           0.781
  23707557.784    -1830255.846 5  -1375993.19721        10.250           0.438
  21308931.511     4346022.839 6   3392015.27421        15.750           1.250
  22101858.386   -11919719.776 6  -9130134.57321        19.250           1.281
 91  6 18 17 47 29.9990000  0  6G18G 2G11G16G19G 6
  24113414.815    18416540.947 5  14332452.76521         7.500           0.281
  21043737.800   -16819919.006 7 -13066986.50423        27.250           2.844
  23014675.808    -5876294.258 6  -4517607.59521        15.250           0.781
  23712122.276    -1806278.535 5  -1357309.60021        10.500           0.344
  21313591.464     4370501.916 6   3411089.87221        15.250           1.250
  22096044.073   -11950264.247 6  -9153935.44021        18.750           1.406
 91  6 18 17 47 44.9990000  0  6G18G 2G11G16G19G 6
  24124098.315    18472677.562 5  14376195.40321         7.500           0.313
  21039446.183   -16842472.311 7 -13084560.50223        27.250           2.906
  23018228.987    -5857621.409 6  -4503057.33321        15.250           0.875
  23716702.315    -1782202.191 5  -1338548.84121        10.250           0.375
  21318257.401     4395041.981 6   3430211.98321        15.250           1.313
  22090237.612   -11980783.386 6  -9177716.57421        18.750           1.438
 91  6 18 17 47 59.9990000  0  6G18G 2G11G16G19G 6
  24134781.081    18528838.887 5  14419957.33321         7.750           0.156
  21035171.503   -16864941.734 7 -13102069.13123        27.750           2.781
  23021814.276    -5838799.978 6  -4488391.29721        15.250           0.875
  23721302.636    -1758021.920 5  -1319707.12021        10.250           0.375
  21322943.237     4419648.267 6   3449385.69721        14.250           1.344
  22084436.823   -12011271.946 6  -9201473.88021        18.500           1.406
 91  6 18 17 48 14.9990000  0  6G18G 2G11G16G19G 6
  24145472.917    18585022.519 5  14463736.63521         7.750           0.125
  21030910.214   -16887329.506 7 -13119514.14223        27.250           2.906
  23025422.214    -5819832.280 6  -4473611.27721        14.750           0.844
  23725923.909    -1733740.110 5  -1300786.24921        11.000           0.344
  21327636.425     4444318.663 6   3468609.36821        15.250           1.281
  22078641.315   -12041731.937 6  -9225208.92221        18.750           1.438
 91  6 18 17 48 29.9990000  0  6G18G 2G11G16G19G 6
  24156169.644    18641225.790 5  14507531.22321         8.000           0.250
  21026664.886   -16909637.995 7 -13136897.36923        27.500           2.875
  23029056.847    -5800720.883 6  -4458719.29021        14.500           0.813
  23730565.730    -1709359.547 5  -1281788.42621        11.000           0.344
  21332344.487     4469050.696 6   3487881.07021        14.500           1.250
  22072848.784   -12072165.617 6  -9248923.46422        19.000           1.500
 91  6 18 17 48 44.9990000  0  6G18G 2G11G16G19G 6
  24166870.019    18697451.036 5  14551342.94421         8.000           0.219
  21022435.761   -16931864.660 7 -13154216.85223        27.750           2.875
  23032722.808    -5781463.214 6  -4443713.32921        14.250           0.844
  23735221.808    -1684877.935 5  -1262711.86721        10.500           0.438
  21337061.089     4493847.042 6   3507202.88221        15.000           1.219
  22067063.206   -12102570.370 6  -9272615.46921        19.000           1.375
 91  6 18 17 48 59.9990000  0  6G18G 2G11G16G19G 6
  24177573.769    18753696.133 5  14595170.14921         8.250           0.156
  21018220.222   -16954011.283 7 -13171473.95123        27.750           2.813
  23036417.855    -5762061.234 6  -4428594.91521        15.000           0.781
  23739899.784    -1660297.206 5  -1243558.10921        10.250           0.406
  21341795.667     4518705.748 6   3526573.28921        14.000           1.313
  22061283.034   -12132947.917 6  -9296286.27321        18.750           1.406
 91  6 18 17 49 14.9990000  0  6G18G 2G11G16G19G 6
  24188279.440    18809959.921 5  14639011.89521         8.000           0.219
  21014022.198   -16976078.643 7 -13188669.28923        27.500           2.844
  23040135.605    -5742516.067 6  -4413364.93021        14.750           0.719
  23744599.558    -1635618.603 5  -1224328.05921        10.500           0.313
  21346532.253     4543626.081 6   3545991.70721        15.000           1.375
  22055506.487   -12163299.149 6  -9319936.57222        18.500           1.500
 91  6 18 17 49 29.9990000  0  6G18G 2G11G16G19G 6
  24198990.644    18866244.106 5  14682869.55221         7.750           0.219
  21009837.948   -16998064.673 7 -13205801.25423        27.750           2.781
  23043878.925    -5722825.929 6  -4398021.97221        14.500           0.750
  23749312.128    -1610840.460 5  -1205020.44721        10.500           0.250
  21351288.862     4568610.116 6   3565459.77121        14.500           1.188
  22049736.698   -12193621.850 6  -9343564.63221        18.500           1.344
 91  6 18 17 49 44.9990000  0  6G18G 2G11G16G19G 6
  24209703.894    18922548.368 4  14726742.82521         7.250           0.188
  21005669.901   -17019969.722 7 -13222870.11723        27.750           2.906
  23047656.675    -5702991.356 6  -4382566.46321        14.750           0.625
  23754049.175    -1585963.300 5  -1185635.67021        11.250           0.500
  21356054.417     4593657.479 6   3584977.17821        15.000           1.250
  22043973.183   -12223916.244 6  -9367170.63921        18.500           1.406
 91  6 18 17 49 59.9990000  0  6G18G 2G11G16G19G 6
  24220424.073    18978870.603 4  14770630.11021         7.250           0.125
  21001516.597   -17041795.430 7 -13239877.15823        27.750           2.906
  23051457.722    -5683014.161 6  -4366999.84221        14.500           0.750
  23758796.581    -1560989.094 5  -1166175.28121        10.500           0.281
  21360834.300     4618766.442 6   3604542.59021        14.250           1.313
  22038211.542   -12254184.011 6  -9390755.90121        18.750           1.469
 91  6 18 17 50 14.9990000  0  6G18G 2G11G16G19G 6
  24231145.222    19035214.520 4  14814534.27421         6.500           0.281
  20997378.683   -17063537.602 8 -13256819.09923        28.000           2.906
  23055286.901    -5662890.381 6  -4351318.98021        14.750           0.719
  23763562.776    -1535914.084 5                         9.250
  21365623.675     4643940.981 6                        15.250
  22032457.870   -12284420.948 6  -9414317.13521        19.250           1.406
 91  6 18 17 50 29.9990000  0  6G18G 2G11G16G19G 6
  24241871.417    19091579.022 3  14858454.49021         5.750           0.156
  20993257.761   -17085197.167 8 -13273696.67823        28.000           2.938
  23059142.651    -5642621.080 6  -4335524.72821        14.000           0.813
  23768361.292    -1510739.473 5                         9.750
  21370427.612     4669180.297 6                        15.000
  22026710.175   -12314627.786 6  -9437854.91921        19.500           1.438
 91  6 18 17 50 44.9990000  0  6G18G 2G11G16G19G 6
  24252598.862    19147963.647 3  14902390.38321         6.000           0.281
  20989151.901   -17106774.428 8 -13290510.11923        28.000           2.938
  23063030.628    -5622206.616 6  -4319617.36921        14.500           0.719
  23773172.612    -1485465.900 5                         9.250
  21375240.620     4694484.348 6                        15.250
  22020966.284   -12344804.715 6  -9461369.40021        19.000           1.406
 91  6 18 17 50 59.9990000  0  6G18G 2G11G16G19G 6
  24263333.581    19204365.865 4  14946339.98521         6.250           0.281
  20985059.831   -17128271.593 7 -13307261.15323        27.750           2.906
  23066940.862    -5601649.586 6  -4303598.92021        14.250           0.656
  23777997.534    -1460096.012 5                        10.000
  21380068.605     4719850.717 6                        15.250
  22015231.925   -12374953.994 6  -9484862.32822        19.250           1.500
 91  6 18 17 51 14.9990000  0  6G18G 2G11G16G19G 6
  24274070.558    19260787.550 3  14990304.74321         6.000           0.250
  20980986.175   -17149686.499 7 -13323948.08523        27.750           2.969
  23070880.722    -5580948.007 6  -4287467.83121        14.500           0.750
  23782832.409    -1434627.645 5                         9.250
  21384908.011     4745281.581 6                        15.250
  22009497.722   -12405073.305 6  -9508331.91121        19.000           1.406
 91  6 18 17 51 29.9990000  0  6G18G 2G11G16G19G 6
  24284809.355    19317232.345 3  15034287.51421         6.000           0.250
  20976926.894   -17171015.141 8 -13340567.80023        28.000           3.000
  23074848.136    -5560098.100 6  -4271221.15721        14.250           0.813
  23787715.128    -1409057.459 5                         9.750
  21389763.565     4770780.972 6                        14.500
  22003774.144   -12435158.728 6  -9531775.08421        19.250           1.469
 91  6 18 17 51 44.9990000  0  6G18G 2G11G16G19G 6
  24295554.886    19373694.001 4  15078283.43521         6.250           0.219
  20972882.542   -17192263.569 8 -13357125.00823        28.000           2.875
  23078843.206    -5539106.076 6  -4254863.75621        14.000           0.656
  23792596.737    -1383391.715 5  -1027787.93721         9.250           0.188
  21394621.792     4796342.813 6   3742913.66621        15.250           1.219
  21998055.276   -12465216.122 6  -9555196.41421        19.250           1.469
 91  6 18 17 51 59.9990000  0  6G18G 2G11G16G19G 6
  24306303.378    19430170.797 4  15122291.16121         6.750           0.188
  20968854.753   -17213432.930 8 -13373620.60523        28.250           3.031
  23082865.073    -5517973.437 6  -4238396.77021        14.250           0.813
  23797494.362    -1357631.966 5  -1007715.43521         9.000           0.156
  21399500.636     4821965.740 6   3762879.56421        14.750           1.344
  21992339.472   -12495246.694 6  -9578596.84421        19.250           1.406
 91  6 18 17 52 14.9990000  0  6G18G 2G11G16G19G 6
  24317053.831    19486662.295 4  15166310.33321         6.250           0.250
  20964841.675   -17234523.656 7 -13390054.93023        27.750           2.938
  23086912.972    -5496700.556 6  -4221820.51821        14.250           0.813
  23802420.659    -1331778.819 5   -987570.18321         8.750           0.375
  21404388.253     4847649.612 6   3782892.95721        15.500           1.375
  21986628.644   -12525250.547 6  -9601976.45621        19.000           1.469
 91  6 18 17 52 29.9990000  0  5G 2G11G16G19G 6
  20960842.644   -17255537.820 7 -13406429.59923        27.000           2.844
  23090985.565    -5475289.707 6  -4205136.74121        14.750           0.688
  23807358.284    -1305834.836 5   -967354.14521         9.250           0.281
  21409287.222     4873392.367 6   3802952.22521        16.000           1.344
  21980924.769   -12555229.781 7  -9625336.88621        20.000           1.375
 91  6 18 17 52 44.9990000  0  5G 2G11G16G19G 6
  20956858.261   -17276474.999 7 -13422744.27423        27.000           2.969
  23095084.448    -5453740.587 6  -4188345.23721        14.250           0.750
  23812303.214    -1279799.829 5   -947067.14921         8.750           0.344
  21414196.706     4899194.377 6   3823057.67021        16.000           1.375
  21975223.698   -12585183.883 6  -9648677.73121        19.500           1.406
 91  6 18 17 52 59.9990000  0  5G 2G11G16G19G 6
  20952888.300   -17297335.526 7 -13438999.22223        27.000           2.906
  23099213.839    -5432053.905 6  -4171446.53321        14.500           0.750
  23817276.550    -1253674.358 5   -926709.66721         8.750           0.281
  21419117.714     4925055.083 6   3843208.85021        16.000           1.281
  21969529.870   -12615113.188 7  -9671999.25421        20.250           1.469
 91  6 18 17 53 14.9990000  0  5G 2G11G16G19G 6
  20948933.597   -17318117.979 7 -13455193.33223        27.500           2.781
  23103366.308    -5410228.392 6  -4154439.66021        14.500           0.750
  23822271.730    -1227457.325 5   -906280.85621         9.000           0.313
  21424050.284     4950976.003 6   3863406.95421        16.000           1.375
  21963839.565   -12645016.066 6  -9695300.18721        19.750           1.469
 91  6 18 17 53 29.9990000  0  5G 2G11G16G19G 6
  20944993.253   -17338821.032 7 -13471325.58123        27.500           2.969
  23107545.948    -5388263.013 6  -4137323.79621        14.750           0.781
  23827278.323    -1201147.953 5   -885780.06921         8.750           0.281
  21428995.065     4976958.479 6   3883653.01421        15.250           1.344
  21958155.526   -12674891.257 6  -9718579.54222        19.500           1.563
 91  6 18 17 53 44.9990000  0  5G 2G11G16G19G 6
  20941070.714   -17359442.105 8 -13487393.93723        28.000           2.781
  23111754.050    -5366155.454 6  -4120097.13521        14.750           0.719
  23832296.714    -1174743.654 5   -865205.33621         8.250           0.250
  21433950.292     5003005.087 6   3903949.05621        15.750           1.219
  21952475.487   -12704736.110 6  -9741835.25121        19.750           1.469
 91  6 18 17 53 59.9990000  0  5G 2G11G16G19G 6
  20937161.151   -17379981.174 7 -13503398.40723        27.500           2.938
  23115988.097    -5343905.860 6  -4102759.80521        15.000           0.688
  23837341.784    -1148245.152 5   -844557.19621         8.250           0.219
  21438921.284     5029115.844 6   3924295.07521        15.250           1.313
  21946801.519   -12734550.405 6  -9765067.16221        19.750           1.469
 91  6 18 17 54 14.9990000  0  5G 2G11G16G19G 6
  20933268.800   -17400439.281 7 -13519339.77523        27.500           2.844
  23120251.667    -5321515.557 6  -4085312.82021        15.500           0.781
  23842405.230    -1121653.598 5   -823836.51021         8.500           0.281
  21443899.198     5055289.652 6   3944690.23721        15.250           1.375
  21941134.269   -12764335.186 7  -9788276.06322        20.250           1.594
 91  6 18 17 54 29.9990000  0  5G 2G11G16G19G 6
  20929390.706   -17420816.882 7 -13535218.42023        26.750           2.719
  23124535.722    -5298985.104 6  -4067756.64121        15.250           0.719
  23847481.394    -1094969.763 5   -803043.96921         9.000           0.375
  21448894.745     5081525.990 6   3965134.11621        15.250           1.313
  21935470.925   -12794090.846 7  -9811462.27721        20.000           1.438
 91  6 18 17 54 44.9990000  0  5G 2G11G16G19G 6
  20925528.558   -17441115.176 7 -13551035.26123        26.750           2.844
  23128849.800    -5276315.817 6  -4050092.27021        15.000           0.750
  23852577.612    -1068195.164 5   -782180.69421         8.750           0.344
  21453896.706     5107823.734 6   3985625.84421        15.500           1.188
  21929814.237   -12823818.417 7  -9834626.60321        20.000           1.469
 91  6 18 17 54 59.9990000  0  5G 2G11G16G19G 6
  20921681.698   -17461331.079 7 -13566787.90523        27.750           2.875
  23133188.058    -5253504.968 6  -4032317.60021        14.500           0.688
  23857689.323    -1041327.032 5   -761244.52621         9.000           0.281
  21458914.144     5134185.886 6   4006167.76221        14.750           1.156
  21924162.597   -12853514.798 6  -9857766.62622        19.750           1.500
 91  6 18 17 55 14.9990000  0  5G 2G11G16G19G 6
  20917849.636   -17481468.560 7 -13582479.44323        27.750           3.000
  23137557.651    -5230556.571 6  -4014435.74521        15.000           0.688
  23862824.597    -1014369.682 5   -740238.81621         9.250           0.313
  21463941.362     5160608.673 6   4026756.92921        15.250           1.125
  21918517.339   -12883183.759 6  -9880885.28321        19.750           1.438
 91  6 18 17 55 29.9990000  0  5G 2G11G16G19G 6
  20914032.433   -17501527.417 7 -13598109.71023        27.500           2.969
  23141950.276    -5207470.656 6  -3996446.73921        15.250           0.750
  23867963.823     -987323.177 5   -719163.65521         9.500           0.313
  21468984.472     5187092.233 6   4047393.44521        14.250           1.219
  21912876.159   -12912825.010 6  -9903982.35222        19.500           1.594
 91  6 18 17 55 44.9990000  0  5G 2G11G16G19G 6
  20910229.972   -17521507.016 7 -13613678.22123        27.750           2.938
  23146368.878    -5184247.065 6  -3978350.43121        14.750           0.750
  23873129.237     -960187.455 5   -698018.95821         9.250           0.219
  21474033.269     5213637.121 6   4068077.75921        15.500           1.125
  21907241.362   -12942438.006 6  -9927057.39122        19.500           1.563
 91  6 18 17 55 59.9990000  0  5G 2G11G16G19G 6
  20906444.253   -17541404.888 7 -13629183.05123        27.500           3.094
  23150817.089    -5160883.568 6  -3960145.13221        15.500           0.656
  23878306.308     -932960.500 5   -676803.20421         8.250           0.250
  21479099.472     5240245.609 6   4088811.62521        14.000           1.219
  21901611.386   -12972020.311 6  -9950108.52821        19.750           1.469
 91  6 18 17 56 14.9990000  0  5G 2G11G16G19G 6
  20902671.815   -17561223.415 8 -13644626.04923        28.000           3.063
  23155289.808    -5137382.681 6  -3941832.76221        15.000           0.750
  23883507.565     -905644.722 5   -655518.23021         8.750           0.250
  21484171.823     5266915.450 6   4109593.30521        15.750           1.219
  21895986.917   -13001574.078 6  -9973137.42621        19.000           1.375
 91  6 18 17 56 29.9990000  0  5G 2G11G16G19G 6
  20898915.347   -17580963.886 8 -13660008.23023        28.000           2.875
  23159786.183    -5113745.725 6  -3923414.37621        14.750           0.781
  23888721.737     -878241.483 5   -634165.11621         9.000           0.188
  21489260.597     5293645.502 6   4130421.88921        14.750           1.000
  21890370.425   -13031100.312 6  -9996144.86922        19.500           1.500
 91  6 18 17 56 44.9990000  0  5G 2G11G16G19G 6
  20895175.526   -17600620.725 7 -13675325.24123        27.250           2.938
  23164310.214    -5089967.369 6  -3904885.79321        14.750           0.625
  23893957.901     -850745.658 5   -612739.81521         9.500           0.188
  21494357.105     5320441.363 6   4151301.76021        15.000           1.063
  21884757.855   -13060593.416 6 -10019126.49322        19.750           1.563
 91  6 18 17 56 59.9990000  0  5G 2G11G16G19G 6
  20891451.730   -17620186.308 7 -13690571.14423        27.000           3.031
  23168864.628    -5066040.225 6  -3886241.28621        15.250           0.688
  23899207.519     -823150.261 5   -591236.96421         9.500           0.188
  21499473.269     5347310.552 6   4172238.77221        15.250           1.188
  21879152.355   -13090045.664 6 -10042076.28022        19.750           1.594
 91  6 18 17 57 14.9990000  0  5G 2G11G16G19G 6
  20887744.300   -17639669.388 7 -13705752.75823        27.250           3.031
  23173443.823    -5041973.295 6  -3867487.85221        14.750           0.688
  23904478.519     -795464.358 5   -569663.57221         9.500           0.188
  21504595.644     5374244.300 6   4193226.08521        15.500           1.156
  21873553.542   -13119465.764 6 -10065001.02422        19.750           1.531
 91  6 18 17 57 29.9990000  0  5G 2G11G16G19G 6
  20884052.886   -17659069.400 7 -13720869.65023        27.500           2.875
  23178049.659    -5017766.314 6  -3848625.27821        14.750           0.719
  23909762.089     -767687.395 5   -548019.20521         9.000           0.219
  21509735.839     5401242.977 6   4214263.99621        14.500           1.156
  21867962.269   -13148853.138 6 -10087900.26021        19.750           1.438
 91  6 18 17 57 44.9990000  0  5G 2G11G16G19G 6
  20880377.011   -17678390.327 7 -13735924.90723        27.500           3.063
  23182683.745    -4993423.409 6  -3829656.79721        14.750           0.781
  23915069.003     -739823.801 5   -526307.35221         9.000           0.219
  21514881.745     5428302.852 6   4235349.58621        15.500           1.219
  21862374.456   -13178211.593 6 -10110776.96322        19.250           1.531
 91  6 18 17 57 59.9990000  0  5G 2G11G16G19G 6
  20876714.870   -17697627.449 7 -13750914.86823        27.250           2.938
  23187342.464    -4968940.198 6  -3810578.97721        14.500           0.688
  23920385.636     -711869.435 5   -504524.76221         9.000           0.281
  21520044.855     5455428.504 6   4256486.44021        15.500           1.125
  21856794.855   -13207536.396 6 -10133627.44222        19.000           1.594
 91  6 18 17 58 14.9990000  0  5G 2G11G16G19G 6
  20873071.386   -17716780.892 8 -13765839.62123        28.000           2.875
  23192026.276    -4944317.057 6  -3791392.12621        14.250           0.750
  23925720.980     -683824.662 5   -482671.72421         9.250           0.281
  21525218.050     5482619.738 6   4277674.39621        15.500           1.219
  21851220.144   -13236827.626 6 -10156451.76022        19.000           1.531
 91  6 18 17 58 29.9990000  0  5G 2G11G16G19G 6
  20869440.683   -17735850.512 7 -13780699.06223        27.500           2.844
  23196740.112    -4919554.057 6  -3772096.30821        14.500           0.688
  23931072.589     -655689.814 5   -460748.52221         9.250           0.281
  21530409.440     5509876.608 6   4298913.48721        14.250           1.063
  21845654.815   -13266084.959 6 -10179249.67122        19.000           1.563
 91  6 18 17 58 44.9990000  0  5G 2G11G16G19G 6
  20865827.159   -17754842.109 7 -13795497.70723        26.750           3.000
  23201477.347    -4894657.050 6  -3752696.05021        14.750           0.688
  23936443.401     -627470.765 5   -438759.68621         9.250           0.281
  21535604.511     5537193.619 6   4320199.44621        15.250           1.094
  21840090.558   -13295314.003 6 -10202025.53922        19.500           1.688
 91  6 18 17 58 59.9990000  0  5G 2G11G16G19G 6
  20862228.706   -17773752.822 7 -13810233.32323        26.750           3.000
  23206242.339    -4869623.393 6  -3733189.31921        14.500           0.781
  23941831.855     -599164.920 5   -416703.22521         9.750           0.281
  21540812.183     5564573.582 6   4341534.45921        15.250           1.188
  21834534.323   -13324511.795 6 -10224777.04922        19.250           1.656
 91  6 18 17 59 14.9990000  0  5G 2G11G16G19G 6
  20858644.933   -17792584.201 7 -13824907.11923        27.000           2.938
  23211029.456    -4844454.971 6  -3713577.57921        14.500           0.656
  23947229.425     -570774.274 5   -394580.68721         9.250           0.219
  21546036.901     5592014.734 6   4362917.15421        16.000           1.219
  21828984.065   -13353679.908 6 -10247505.43622        19.000           1.531
 91  6 18 17 59 29.9990000  0  5G 2G11G16G19G 6
  20855077.823   -17811335.652 7 -13839518.63323        27.250           3.000
  23215846.862    -4819151.432 6  -3693860.55421        14.500           0.688
  23952653.237     -542298.586 5   -372391.88321         8.750           0.219
  21551269.870     5619517.693 6   4384348.00621        15.250           1.125
  21823441.378   -13382817.619 6 -10270210.13422        19.500           1.688
 91  6 18 17 59 44.9990000  0  5G 2G11G16G19G 6
  20851524.597   -17830006.202 7 -13854067.11123        27.000           3.063
  23220686.284    -4793712.042 6  -3674037.67121        14.750           0.781
  23958084.909     -513737.372 5   -350136.42521         9.250           0.281
  21556515.151     5647083.550 6   4405827.87021        15.500           1.188
  21817901.331   -13411923.795 6 -10292890.26222        19.250           1.688
 91  6 18 17 59 59.9990000  0  5G 2G11G16G19G 6
  20847986.769   -17848595.590 7 -13868552.34623        27.250           2.969
  23225552.886    -4768136.643 6  -3654108.80221        14.750           0.625
  23963536.495     -485090.470 5   -327814.20221         9.500           0.188
  21561773.261     5674712.584 6   4427356.96021        15.000           1.031
  21812367.706   -13440998.104 6 -10315545.55122        19.250           1.688
 91  6 18 18  0 14.9990000  0  5G 2G11G16G19G 6
  20844465.175   -17867103.891 7 -13882974.38723        27.250           3.000
  23230446.597    -4742425.507 6  -3634074.16621        15.000           0.781
  23969003.362     -456358.258 5   -305425.49821         9.000           0.219
  21567042.378     5702404.639 6   4448935.16421        15.000           1.219
  21806841.636   -13470040.479 7 -10338175.95822        20.000           1.688
 91  6 18 18  0 29.9990000  0  5G 2G11G16G19G 6
  20840958.862   -17885529.614 7 -13897332.08623        27.250           3.063
  23235363.917    -4716577.626 6  -3613932.97621        15.000           0.750
  23974495.597     -427539.725 5   -282969.55421         9.750           0.250
  21572327.597     5730161.274 6   4470563.68421        14.250           1.188
  21801321.792   -13499049.429 7 -10360780.32022        20.250           1.594
 91  6 18 18  0 44.9990000  0  5G 2G11G16G19G 6
  20837467.964   -17903876.942 7 -13911628.70123        27.750           2.938
  23240306.198    -4690597.385 6  -3593688.66421        14.250           0.625
  23979987.550     -398639.535 5   -260449.99521         9.250           0.281
  21577618.026     5757978.224 6   4492239.20821        14.750           1.219
  21795807.448   -13528029.078 7 -10383361.85422        20.250           1.656
 91  6 18 18  0 59.9990000  0  5G 2G11G16G19G 6
  20833991.612   -17922138.811 7 -13925858.72423        27.250           2.906
  23245278.026    -4664478.008 6  -3573335.91621        14.250           0.656
  23985504.042     -369650.983 5   -237861.54421         9.000           0.281
  21582925.636     5785862.539 6   4513967.21221        14.750           1.156
  21790299.698   -13556972.315 7 -10405915.01222        20.250           1.531
 91  6 18 18  1 14.9990000  0  5G 2G11G16G19G 6
  20830533.769   -17940316.656 7 -13940023.27223        27.250           2.906
  23250275.956    -4638221.109 6  -3552876.02121        14.250           0.656
  23991044.917     -340575.554 5   -215205.43221         9.500           0.313
  21588243.081     5813812.769 6   4535746.58521        15.250           1.250
  21784798.862   -13585880.392 7 -10428440.77422        20.250           1.563
 91  6 18 18  1 29.9990000  0  5G 2G11G16G19G 6
  20827088.058   -17958415.796 7 -13954126.49423        26.750           2.844
  23255297.964    -4611832.153 6  -3532313.21721        14.250           0.719
  23996585.112     -311418.958 5   -192486.04321         8.250           0.313
  21593575.472     5841823.609 6   4557573.19421        14.000           1.219
  21779303.183   -13614758.296 7 -10450943.02022        20.500           1.625
 91  6 18 18  1 44.9990000  0  5G 2G11G16G19G 6
  20823659.612   -17976436.194 7 -13968168.35323        27.500           2.844
  23260346.339    -4585311.242 6  -3511647.58021        14.250           0.625
  24002150.214     -282181.569 5   -169703.72421         8.750           0.313
  21598915.237     5869895.077 6   4579447.04421        14.750           1.125
  21773812.948   -13643606.038 7 -10473421.76722        20.000           1.719
 91  6 18 18  1 59.9990000  0  5G 2G11G16G19G 6
  20820246.206   -17994374.480 7 -13982146.23523        27.250           2.875
  23265416.901    -4558655.356 6  -3490876.77121        14.250           0.625
  24007730.745     -252860.275 5   -146856.01621         8.500           0.313
  21604270.292     5898030.578 6   4601370.78121        15.000           1.156
  21768329.909   -13672420.150 7 -10495874.31322        20.250           1.656
 91  6 18 18  2 14.9990000  0  5G 2G11G16G19G 6
  20816848.370   -18012232.108 7 -13996061.26723        27.250           2.750
  23270515.417    -4531865.844 6  -3470001.85021        14.500           0.594
  24013322.425     -223456.665 5   -123944.17121         8.500           0.375
  21609634.339     5926228.872 6   4623343.45721        15.000           1.219
  21762854.136   -13701201.790 7 -10518301.54822        20.750           1.625
 91  6 18 18  2 29.9990000  0  5G 2G11G16G19G 6
  20813465.065   -18030009.939 7 -14009914.11323        27.250           2.750
  23275637.245    -4504944.226 6  -3449023.97821        14.000           0.563
  24018935.667     -193972.389 5   -100969.43121         8.750           0.281
  21615015.269     5954488.787 6   4645364.14221        14.500           1.250
  21757381.948   -13729951.949 7 -10540704.25022        20.750           1.656
 91  6 18 18  2 44.9990000  0  5G 2G11G16G19G 6
  20810096.878   -18047706.282 7 -14023703.47423        27.250           2.844
  23280785.800    -4477889.006 6  -3427942.01721        14.000           0.656
  24024564.894     -164405.788 5    -77930.59221         9.250           0.406
  21620404.112     5982812.073 6   4667434.21421        14.750           1.281
  21751917.823   -13758668.745 7 -10563080.96722        20.750           1.625
 91  6 18 18  2 59.9990000  0  5G 2G11G16G19G 6
  20806744.964   -18065327.922 7 -14037434.61423        27.000           2.781
  23285958.456    -4450707.086 6  -3406761.31921        14.500           0.594
  24030204.495     -134763.892 5    -54833.06021         8.750           0.250
  21625803.347     6011192.041 6   4689548.45221        14.500           1.094
  21746457.933   -13787358.797 7 -10585436.83822        20.750           1.688
 91  6 18 18  3 14.9990000  0  5G 2G11G16G19G 6
  20803405.019   -18082873.243 7 -14051106.28823        26.750           2.906
  23291154.815    -4423397.243 6  -3385480.95021        14.500           0.688
  24035859.230     -105045.587 5    -31675.99821         9.000           0.281
  21631215.011     6039630.143 6   4711707.98521        14.750           1.219
  21741003.503   -13816020.559 7 -10607770.65922        20.750           1.781
 91  6 18 18  3 29.9990000  0  5G 2G11G16G19G 6
  20800082.581   -18100337.409 7 -14064714.72323        27.000           2.969
  23296377.894    -4395954.732 6  -3364097.20021        14.250           0.656
  24041526.003      -75246.189 5     -8455.75621         9.000           0.375
  21636639.003     6068131.256 6   4733916.62121        14.750           1.281
  21735557.034   -13844648.854 7 -10630078.40422        21.000           1.781
 91  6 18 18  3 44.9990000  0  5G 2G11G16G19G 6
  20796775.198   -18117716.236 7 -14078256.66123        27.250           2.906
  23301625.878    -4368375.520 6  -3342606.92221        14.250           0.594
  24047215.698      -45362.048 5     14830.54321         9.250           0.344
  21642073.190     6096699.749 6   4756177.76821        14.250           1.219
  21730114.956   -13873239.386 7 -10652356.72322        20.500           1.750
 91  6 18 18  3 59.9990000  0  5G 2G11G16G19G 6
  20793483.847   -18135018.262 7 -14091738.74823        27.250           2.875
  23306899.300    -4340668.659 6  -3321017.18921        14.000           0.625
  24052917.675      -15401.868 5     38176.09621         9.500           0.375
  21647523.745     6125327.012 6   4778484.70421        13.250           1.250
  21724681.136   -13901800.741 7 -10674612.30722        21.000           1.688
 91  6 18 18  4 14.9990000  0  5G 2G11G16G19G 6
  20790205.112   -18152244.397 7 -14105161.71123        27.000           2.938
  23312192.065    -4312835.180 6  -3299328.78621        14.500           0.594
  24058635.386       14632.687 5     61579.59621        10.000           0.406
  21652981.175     6154012.060 6   4800836.66321        14.250           1.094
  21719250.284   -13930333.648 7 -10696845.72922        21.000           1.750
 91  6 18 18  4 29.9990000  0  5G 2G11G16G19G 6
  20786941.394   -18169392.576 7 -14118523.92323        26.750           2.781
  23317514.589    -4284873.163 6  -3277540.21521        14.500           0.563
  24064359.370       44743.464 5     85042.49821         9.500           0.313
  21658452.175     6182757.084 6   4823235.36521        14.250           1.063
  21713826.862   -13958835.802 7 -10719055.18922        21.250           1.688
 91  6 18 18  4 44.9990000  0  5G 2G11G16G19G 6
  20783694.855   -18186458.153 7 -14131821.76723        27.250           2.844
  23322861.464    -4256778.257 6  -3255648.10221        14.000           0.594
  24070107.558       74935.144 5    108568.44121         9.750           0.313
  21663935.276     6211566.523 6   4845684.26221        14.250           1.188
  21708410.112   -13987302.615 7 -10741237.10722        20.750           1.719
 91  6 18 18  4 59.9990000  0  5G 2G11G16G19G 6
  20780461.542   -18203445.037 7 -14145058.29723        27.000           2.906
  23328233.511    -4228554.720 6  -3233655.77921        14.250           0.625
  24075865.659      105203.418 5    132154.04621         9.500           0.344
  21669427.034     6240436.645 6   4868180.44121        13.750           1.125
  21702998.081   -14015737.794 7 -10763394.37522        21.000           1.750
 91  6 18 18  5 14.9990000  0  5G 2G11G16G19G 6
  20777244.190   -18220351.880 7 -14158232.45623        26.750           2.813
  23333627.323    -4200201.362 6  -3211562.28321        14.250           0.500
  24081646.190      135549.131 5    155799.99721        10.250           0.344
  21674932.253     6269368.955 6   4890725.07621        14.250           1.125
  21697594.370   -14044139.855 7 -10785525.83922        21.250           1.719
 91  6 18 18  5 29.9990000  0  5G 2G11G16G19G 6
  20774042.769   -18237179.290 7 -14171344.71823        27.000           2.813
  23339047.269    -4171719.066 6  -3189368.31121        14.250           0.625
  24087431.300      165971.255 5    179505.49921         9.750           0.313
  21680451.933     6298362.663 6   4913317.56421        14.000           1.219
  21692195.737   -14072509.321 7 -10807631.90222        21.500           1.750
 91  6 18 18  5 44.9990000  0  5G 2G11G16G19G 6
  20770855.628   -18253925.352 7 -14184393.59423        26.750           2.813
  23344491.675    -4143106.162 6  -3167072.55821        14.250           0.531
  24093234.003      196471.374 5    203271.78621        10.000           0.344
  21685979.769     6327419.558 6   4935959.28521        14.000           1.094
  21686803.605   -14100844.132 7 -10829710.95722        21.250           1.750
 91  6 18 18  5 59.9990000  0  5G 2G11G16G19G 6
  20767684.409   -18270589.410 7 -14197378.57023        27.000           2.688
  23349962.878    -4114362.245 6  -3144674.74621        14.000           0.563
  24099053.315      227049.563 5    227098.89621         9.000           0.313
  21691521.347     6356540.352 6   4958650.79321        14.000           1.125
  21681419.823   -14129143.580 7 -10851762.46222        21.250           1.750
 91  6 18 18  6 14.9990000  0  5G 2G11G16G19G 6
  20764528.269   -18287174.122 7 -14210301.71723        26.750           2.750
  23355456.105    -4085490.412 6  -3122177.23321        14.250           0.688
  24104890.464      257702.957 5    250984.60621         9.500           0.250
  21697075.534     6385722.240 6   4981389.90621        14.000           1.031
  21676039.964   -14157410.299 7 -10873788.45922        21.250           1.875
 91  6 18 18  6 29.9990000  0  5G 2G11G16G19G 6
  20761387.925   -18303676.729 7 -14223160.88723        27.000           2.719
  23360974.831    -4056488.090 6  -3099578.05221        14.250           0.625
  24110736.362      288434.032 5    274930.82921         9.250           0.313
  21702640.628     6414967.982 6   5004178.78421        14.000           1.031
  21670666.433   -14185641.452 7 -10895786.74722        21.250           1.750
 91  6 18 18  6 44.9990000  0  5G 2G11G16G19G 6
  20758262.065   -18320099.087 7 -14235957.52923        27.000           2.813
  23366520.120    -4027357.341 6  -3076878.78421        14.250           0.625
  24116594.948      319240.768 5    298936.04521         8.500           0.281
  21708217.292     6444275.895 6   5027016.09921        14.250           1.094
  21665300.964   -14213838.605 7 -10917758.53622        21.250           1.781
 91  6 18 18  6 59.9990000  0  5G 2G11G16G19G 6
  20755152.690   -18336445.958 7 -14248695.34823        27.250           2.688
  23372088.058    -3998103.097 6                        14.000
  24122476.370      350117.938 5    322996.14221         9.000           0.281
  21713804.862     6473641.284 6                        13.750
  21659942.401   -14242006.302 7 -10939707.38522        21.500           1.688
 91  6 18 18  7 14.9990000  0  5G 2G11G16G19G 6
  20752056.081   -18352716.576 7 -14261373.74523        27.250           2.688
  23377677.448    -3968725.005 6                        13.750
  24128358.042      381066.258 5    347111.67121         7.500           0.156
  21719405.753     6503064.926 6                        14.500
  21654586.417   -14270143.790 7 -10961632.67622        21.500           1.656
 91  6 18 18  7 29.9990000  0  5G 2G11G16G19G 6
  20748974.792   -18368906.522 7 -14273989.28723        27.250           2.906
  23383289.284    -3939218.875 6                        13.000
  24134266.167      412089.444 5    371285.52121         7.500           0.188
  21725015.261     6532551.040 6                        13.750
  21649240.284   -14298246.503 7 -10983530.88122        21.500           1.688
 91  6 18 18  7 44.9990000  0  5G 2G11G16G19G 6
  20745909.323   -18385014.908 7 -14286541.26923        27.500           2.844
  23388931.464    -3909583.813 6  -2985107.32021        13.250           0.656
  24140179.800      443188.374 4    395518.39621         7.000           0.250
  21730639.628     6562100.647 6   5118827.51121        14.500           1.031
  21643897.605   -14326313.260 7 -11005401.06622        21.000           1.750
 91  6 18 18  7 59.9990000  0  4G 2G11G19G 6
  20742859.425   -18401041.178 7 -14299029.27023        26.750           2.813
  23394595.698    -3879819.723 6  -2961914.54721        13.000           0.688
  21736276.534     6591714.161 6   5141902.96421        13.750           0.969
  21638563.605   -14354343.473 7 -11027242.77721        21.500           1.469
 91  6 18 18  8 14.9990000  0  4G 2G11G19G 6
  20739827.386   -18416981.160 7 -14311450.03023        26.750           2.750
  23400282.714    -3849922.561 6  -2938618.08321        12.750           0.594
  21741922.597     6621395.900 6   5165031.56421        15.000           1.063
  21633238.308   -14382332.823 7 -11049052.64622        21.750           1.688
 91  6 18 18  8 29.9990000  0  4G 2G11G19G 6
  20736810.151   -18432835.418 7 -14323803.98823        26.750           2.750
  23406001.237    -3819893.211 6  -2915218.61721        13.250           0.625
  21747586.901     6651145.307 6   5188212.90921        13.500           1.000
  21627919.386   -14410281.756 7 -11070831.02122        22.000           1.594
 91  6 18 18  8 44.9990000  0  4G 2G11G19G 6
  20733807.198   -18448613.324 7 -14336098.45923        27.000           2.656
  23411736.769    -3789741.394 6  -2891723.72621        12.750           0.750
  21753254.831     6680952.933 6   5211439.60621        14.750           1.031
  21622606.706   -14438199.479 7 -11092585.07822        21.250           1.625
 91  6 18 18  8 59.9990000  0  4G 2G11G19G 6
  20730819.644   -18464309.126 7 -14348328.95223        26.750           2.781
  23417497.675    -3759461.727 6  -2868129.20621        12.500           0.656
  21758941.519     6710824.418 6   5234716.06621        13.750           1.063
  21617300.964   -14466080.294 7 -11114310.37322        21.500           1.688
 91  6 18 18  9 14.9990000  0  4G 2G11G19G 6
  20727849.105   -18479919.819 7 -14360493.12423        26.750           2.813
  23423282.917    -3729051.385 6  -2844432.85621        12.250           0.688
  21764636.769     6740762.795 6   5258044.65121        14.750           1.031
  21612003.167   -14493920.934 7 -11136004.36422        21.750           1.688
 91  6 18 18  9 29.9990000  0  4G 2G11G19G 6
  20724894.589   -18495447.660 7 -14372592.73523        27.250           2.594
  23429099.651    -3698512.695 6  -2820636.50321        12.250           0.594
  21770345.690     6770766.044 6   5281423.78221        14.250           1.094
  21606713.495   -14521723.421 7 -11157668.62322        21.500           1.688
 91  6 18 18  9 44.9990000  0  4G 2G11G19G 6
  20721956.503   -18510891.093 7 -14384626.57723        27.000           2.750
  23434933.237    -3667844.538 6  -2796739.26821        12.000           0.625
  21776068.495     6800835.517 6   5304854.51421        14.750           1.063
  21601429.378   -14549486.274 7 -11179302.00322        21.750           1.719
 91  6 18 18  9 59.9990000  0  4G 2G11G19G 6
  20719034.558   -18526253.336 7 -14396597.15223        27.000           2.625
  23440794.253    -3637050.433 6  -2772743.87921        12.250           0.563
  21781803.105     6830968.037 6   5328334.38121        13.500           0.969
  21596154.440   -14577212.546 7 -11200906.87622        22.000           1.750
 91  6 18 18 10 14.9990000  0  4G 2G11G19G 6
  20716125.105   -18541530.778 7 -14408501.65623        27.000           2.563
  23446675.550    -3606126.900 6  -2748647.65821        12.000           0.594
  21787549.386     6861167.345 6   5351866.27821        14.500           1.063
  21590885.495   -14604898.447 7 -11222480.29122        22.000           1.781
 91  6 18 18 10 29.9990000  0  4G 2G11G19G 6
  20713234.120   -18556730.188 7 -14420345.34223        27.500           2.625
  23452583.065    -3575080.945 5  -2724456.02321        11.500           0.563
  21793305.183     6891426.613 6   5375444.90821        14.500           1.000
  21585622.558   -14632550.462 7 -11244027.29522        22.000           1.781
 91  6 18 18 10 44.9990000  0  4G 2G11G19G 6
  20710358.019   -18571845.346 7 -14432123.38823        27.250           2.594
  23458515.175    -3543906.491 5  -2700164.28021        11.500           0.563
  21799077.917     6921752.141 6   5399075.16421        14.250           1.031
  21580369.190   -14660162.282 7 -11265542.98522        22.000           1.813
 91  6 18 18 10 59.9990000  0  4G 2G11G19G 6
  20707498.362   -18586878.953 7 -14443837.88023        27.500           2.594
  23464473.589    -3512606.379 5  -2675774.59621        11.750           0.563
  21804864.058     6952141.269 6   5422754.98021        13.000           1.094
  21575121.573   -14687736.290 7 -11287029.21122        21.750           1.813
 91  6 18 18 11 14.9990000  0  4G 2G11G19G 6
  20704652.253   -18601831.630 7 -14455489.31823        27.500           2.656
  23470453.620    -3481181.780 6  -2651287.91721        12.000           0.500
  21810654.675     6982593.153 6   5446483.69021        14.000           1.156
  21569881.386   -14715273.159 7 -11308486.49622        21.750           1.813
 91  6 18 18 11 29.9990000  0  4G 2G11G19G 6
  20701822.753   -18616699.301 7 -14467074.51223        27.500           2.656
  23476458.042    -3449629.003 6  -2626701.36921        12.250           0.563
  21816463.636     7013111.822 6   5470264.43921        14.250           1.063
  21564649.534   -14742768.798 7 -11329911.65222        22.250           1.813
 91  6 18 18 11 44.9990000  0  4G 2G11G19G 6
  20699009.386   -18631484.228 7 -14478595.22623        27.750           2.688
  23482485.737    -3417950.439 5  -2602016.80421        11.750           0.531
  21822282.362     7043695.228 6   5494095.63721        14.000           1.031
  21559425.042   -14770225.228 7 -11351306.25922        22.000           1.875
 91  6 18 18 11 59.9990000  0  4G 2G11G19G 6
  20696210.495   -18646192.104 7 -14490055.91123        27.500           2.688
  23488535.620    -3386152.041 6  -2577238.86221        12.000           0.563
  21828114.440     7074337.598 6   5517972.78621        14.000           1.063
  21554206.698   -14797647.933 7 -11372674.58922        21.750           1.906
 91  6 18 18 12 14.9990000  0  4G 2G11G19G 6
  20693426.808   -18660816.334 7 -14501451.40923        27.750           2.688
  23494611.644    -3354227.525 6  -2552362.63621        12.250           0.500
  21833958.800     7105045.462 6   5541900.95721        14.250           1.156
  21548994.073   -14825030.383 7 -11394011.54222        21.500           1.781
 91  6 18 18 12 29.9990000  0  4G 2G11G19G 6
  20690659.112   -18675360.375 7 -14512784.42423        27.500           2.719
  23500709.487    -3322180.734 6  -2527391.13321        12.500           0.594
  21839815.776     7135815.424 6   5565877.52021        13.750           1.156
  21543791.823   -14852375.854 7 -11415319.68222        22.000           1.844
 91  6 18 18 12 44.9990000  0  4G 2G11G19G 6
  20687907.034   -18689822.218 7 -14524053.38923        27.750           2.656
  23506834.261    -3290009.767 6  -2502322.86121        12.500           0.563
  21845679.698     7166649.576 6   5589904.10821        13.500           1.125
  21538595.964   -14879681.991 7 -11436597.18222        22.250           1.750
 91  6 18 18 12 59.9990000  0  4G 2G11G19G 6
  20685170.073   -18704202.292 7 -14535258.64023        27.500           2.656
  23512979.894    -3257715.292 6  -2477158.37521        13.000           0.531
  21851562.972     7197547.445 6   5613980.33821        13.000           1.125
  21533407.237   -14906949.243 7 -11457844.37422        22.000           1.813
 91  6 18 18 13 14.9990000  0  4G 2G11G19G 6
  20682449.761   -18718497.480 7 -14546397.74223        27.500           2.625
  23519149.800    -3225294.584 6  -2451895.50821        13.000           0.594
  21857453.878     7228512.076 6   5638108.58821        13.750           1.125
  21528227.089   -14934174.322 7 -11479058.70122        22.000           1.938
 91  6 18 18 13 29.9990000  0  4G 2G11G19G 6
  20679744.065   -18732712.557 7 -14557474.42423        27.500           2.625
  23525341.019    -3192752.622 6  -2426538.16921        13.500           0.563
  21863355.003     7259538.622 6   5662285.09021        13.250           1.125
  21523052.659   -14961361.767 7 -11500243.71322        22.000           2.063
 91  6 18 18 13 44.9990000  0  4G 2G11G19G 6
  20677054.237   -18746848.224 7 -14568489.22923        27.250           2.656
  23531556.534    -3160090.465 6  -2401087.15821        13.500           0.500
  21869271.808     7290626.397 6   5686509.29421        13.750           1.125
  21517885.589   -14988512.259 7 -11521399.92222        21.750           2.000
 91  6 18 18 13 59.9990000  0  4G 2G11G19G 6
  20674381.276   -18760898.800 7 -14579437.72723        27.000           2.625
  23537795.690    -3127302.533 6  -2375538.14921        13.750           0.563
  21875203.847     7321781.302 6   5710785.81221        13.000           1.125
  21512727.737   -15015619.821 7 -11542522.68322        22.250           2.031
 91  6 18 18 14 14.9990000  0  4G 2G11G19G 6
  20671721.448   -18774871.694 7 -14590325.68823        26.750           2.625
  23544056.331    -3094396.643 6  -2349897.23421        13.500           0.531
  21881141.417     7352995.796 6   5735108.76721        13.750           1.063
  21507575.089   -15042691.833 7 -11563617.73922        22.250           1.938
 91  6 18 18 14 29.9990000  0  4G 2G11G19G 6
  20669078.698   -18788764.021 7 -14601150.87523        26.750           2.625
  23550341.058    -3061370.128 6  -2324162.31721        13.750           0.500
  21887092.331     7384272.725 6   5759480.37221        13.000           1.031
  21502432.089   -15069725.152 7 -11584682.65622        22.000           2.000
 91  6 18 18 14 44.9990000  0  4G 2G11G19G 6
  20666450.159   -18802575.777 7 -14611913.28223        26.750           2.656
  23556648.503    -3028223.281 6  -2298333.64021        13.750           0.563
  21893058.870     7415612.175 6   5783900.68321        13.500           1.094
  21497293.730   -15096719.728 7 -11605717.37822        21.750           2.031
 91  6 18 18 14 59.9990000  0  4G 2G11G19G 6
  20663837.839   -18816307.398 7 -14622613.23623        27.000           2.656
  23562979.097    -2994956.649 6  -2272411.61821        14.000           0.563
  21899034.097     7447013.803 6   5808369.45421        13.250           1.156
  21492165.214   -15123675.642 7 -11626721.96622        22.000           2.031
 91  6 18 18 15 14.9990000  0  4G 2G11G19G 6
  20661239.745   -18829958.339 7 -14633250.33423        26.500           2.688
  23569336.065    -2961570.109 6  -2246396.16021        14.000           0.500
  21905019.737     7478478.083 6   5832887.03821        13.750           1.125
  21487043.151   -15150592.428 7 -11647696.08122        22.000           2.000
 91  6 18 18 15 29.9990000  0  4G 2G11G19G 6
  20658657.667   -18843532.193 7 -14643827.35723        26.750           2.688
  23575708.417    -2928067.501 6  -2220290.26621        14.000           0.500
  21911018.894     7510001.373 6   5857450.61521        13.750           1.094
  21481927.667   -15177473.404 7 -11668642.27822        21.750           2.063
 91  6 18 18 15 44.9990000  0  4G 2G11G19G 6
  20656089.034   -18857029.369 7 -14654344.63323        26.750           2.750
  23582106.433    -2894449.471 6  -2194094.43721        13.750           0.500
  21917029.245     7541583.384 6   5882059.93821        13.750           1.188
  21476818.855   -15204318.795 7 -11689560.74722        21.750           2.000
 91  6 18 18 15 59.9990000  0  4G 2G11G19G 6
  20653536.261   -18870449.434 7 -14664801.81923        27.250           2.688
  23588522.487    -2860715.966 6  -2167808.61221        13.750           0.531
  21923047.745     7573224.296 6   5906715.16521        13.750           1.063
  21471716.042   -15231128.097 7 -11710451.10122        21.750           2.125
 91  6 18 18 16 14.9990000  0  4G 2G11G19G 6
  20650998.292   -18883787.130 7 -14675194.82923        27.250           2.688
  23594966.495    -2826861.823 6  -2141428.80521        13.750           0.563
  21929083.956     7604929.628 6   5931420.58021        14.000           1.156
  21466622.745   -15257895.839 7 -11731309.07022        22.000           2.031
 91  6 18 18 16 29.9990000  0  4G 2G11G19G 6
  20648475.003   -18897046.534 7 -14685526.82423        26.750           2.594
  23601432.097    -2792891.364 6  -2114958.35421        13.500           0.438
  21935129.151     7636695.240 6   5956172.97221        13.250           1.094
  21461536.706   -15284625.869 7 -11752137.64722        22.250           2.000
 91  6 18 18 16 44.9990000  0  4G 2G11G19G 6
  20645966.831   -18910221.505 7 -14695793.03223        26.500           2.625
  23607918.823    -2758798.919 6  -2088392.85921        13.500           0.594
  21941186.370     7668527.060 6   5980976.95621        13.750           1.063
  21456459.550   -15311312.051 7 -11772932.06222        22.250           2.031
 91  6 18 18 16 59.9990000  0  4G 2G11G19G 6
  20643473.526   -18923319.675 7 -14705999.39523        26.250           2.594
  23614430.269    -2724592.426 6  -2061738.47621        13.500           0.406
  21947252.503     7700417.612 6   6005826.70621        13.250           1.094
  21451387.136   -15337961.834 7 -11793698.10722        22.250           2.063
 91  6 18 18 17 14.9990000  0  4G 2G11G19G 6
  20640997.456   -18936335.728 7 -14716141.76923        27.000           2.688
  23620961.065    -2690266.796 6  -2034991.26621        14.000           0.625
  21953333.042     7732372.293 6   6030726.42021        13.750           1.063
  21446323.901   -15364569.659 7 -11814431.47022        22.250           2.219
 91  6 18 18 17 29.9990000  0  4G 2G11G19G 6
  20638535.605   -18949272.040 7 -14726222.00923        26.500           2.625
  23627515.011    -2655824.540 6  -2008153.18721        13.500           0.469
  21959425.870     7764388.630 6   6055674.18521        13.250           1.031
  21441267.276   -15391137.795 7 -11835133.90122        22.250           2.063
 91  6 18 18 17 44.9990000  0  4G 2G11G19G 6
  20636087.128   -18962134.025 7 -14736244.33123        27.500           2.625
  23634090.581    -2621271.601 6  -1981228.85321        14.000           0.563
  21965530.964     7796461.173 6   6080665.73321        13.750           0.969
  21436218.847   -15417671.472 7 -11855809.48722        22.250           2.188
 91  6 18 18 17 59.9990000  0  4G 2G11G19G 6
  20633653.636   -18974917.954 7 -14746205.82923        27.000           2.594
  23640685.315    -2586604.410 6  -1954215.49421        13.000           0.500
  21971646.698     7828593.737 6   6105704.06221        13.500           1.031
  21431177.761   -15444166.946 7 -11876455.29422        22.250           2.094
 91  6 18 18 18 14.9990000  0  4G 2G11G19G 6
  20631235.401   -18987625.493 7 -14756107.80423        27.250           2.594
  23647304.128    -2551824.900 6  -1927114.61421        13.250           0.688
  21977769.815     7860784.553 6   6130787.78521        14.000           1.000
  21426143.534   -15470625.555 7 -11897072.38422        23.250           2.094
 91  6 18 18 18 29.9990000  0  4G 2G11G19G 6
  20628832.003   -19000255.229 7 -14765949.15823        27.000           2.594
  23653944.065    -2516932.025 6  -1899925.40621        12.750           0.531
  21983909.081     7893035.097 6   6155918.04121        13.750           0.969
  21421115.355   -15497045.781 7 -11917659.56522        23.250           2.094
 91  6 18 18 18 44.9990000  0  4G 2G11G19G 6
  20626444.261   -19012808.329 7 -14775730.78623        26.750           2.594
  23660607.323    -2481927.157 6  -1872648.92921        12.750           0.531
  21990054.683     7925344.166 6   6181093.91021        13.750           0.844
  21416093.995   -15523428.535 7 -11938217.54122        23.000           2.188
 91  6 18 18 18 59.9990000  0  4G 2G11G19G 6
  20624071.347   -19025283.366 7 -14785451.58623        26.750           2.688
  23667290.347    -2446809.027 6  -1845284.19721        12.500           0.469
  21996214.839     7957713.344 6   6206316.61821        13.000           1.063
  21411082.253   -15549772.230 7 -11958745.08322        23.000           2.063
 91  6 18 18 19 14.9990000  0  4G 2G11G19G 6
  20621711.589   -19037682.156 7 -14795112.97523        26.750           2.625
  23673993.065    -2411579.646 6  -1817832.76421        12.250           0.500
  22002385.214     7990140.774 6   6231584.71121        13.500           0.906
  21406076.323   -15576078.434 7 -11979243.41522        23.250           2.188
 91  6 18 18 19 29.9990000  0  4G 2G11G19G 6
  20619366.386   -19050006.491 7 -14804716.35223        27.500           2.625
  23680717.159    -2376241.438 6  -1790296.53221        12.500           0.469
  22008567.612     8022624.370 6   6256896.56721        13.500           1.063
  21401077.136   -15602349.031 7 -11999714.00222        23.250           2.188
 91  6 18 18 19 44.9990000  0  4G 2G11G19G 6
  20617035.862   -19062253.133 7 -14814259.18123        27.750           2.688
  23687463.612    -2340791.274 6  -1762673.06221        12.000           0.469
  22014760.886     8055167.695 6   6282254.96621        12.750           1.000
  21396084.605   -15628580.468 7 -12020154.06922        22.500           2.125
 91  6 18 18 19 59.9990000  0  4G 2G11G19G 6
  20614720.253   -19074427.598 8 -14823745.76923        28.000           2.656
  23694231.511    -2305235.110 5  -1734966.99821        11.750           0.531
  22020962.948     8087765.156 6   6307655.55421        12.500           0.906
  21391098.386   -15654778.141 7 -12040567.83522        22.250           2.156
 91  6 18 18 20 14.9990000  0  4G 2G11G19G 6
  20612418.409   -19086524.672 8 -14833172.05323        28.000           2.719
  23701018.214    -2269567.942 5  -1707174.45021        11.500           0.500
  22027178.714     8120421.937 6   6333102.35821        13.000           0.875
  21386121.284   -15680936.834 7 -12060951.21922        22.500           2.156
 91  6 18 18 20 29.9990000  0  4G 2G11G19G 6
  20610130.597   -19098543.391 8 -14842537.28423        28.000           2.719
  23707823.894    -2233788.993 5  -1679294.78921        11.000           0.375
  22033407.261     8153139.044 6   6358596.17521        12.000           0.969
  21381150.862   -15707055.168 7 -12081303.15222        22.500           2.219
 91  6 18 18 20 44.9990000  0  4G 2G11G19G 6
  20607856.690   -19110487.979 8 -14851844.74923        28.250           2.719
  23714652.886    -2197902.847 5  -1651331.58821        11.000           0.375
  22039640.565     8185912.248 6   6384133.70721        13.000           0.938
  21376187.901   -15733137.148 7 -12101626.76222        22.250           2.219
 91  6 18 18 20 59.9990000  0  4G 2G11G19G 6
  20605597.839   -19122359.673 8 -14861095.41223        28.250           2.688
  23721500.534    -2161911.090 5  -1623286.09621        10.750           0.563
  22045891.300     8218740.150 6   6409713.85721        12.250           0.969
  21371231.034   -15759184.096 7 -12121923.07422        23.250           2.188
 91  6 18 18 21 14.9990000  0  4G 2G11G19G 6
  20603353.597   -19134154.763 7 -14870286.38923        27.750           2.625
  23728374.136    -2125810.231 5  -1595155.60521        10.750           0.563
  22052146.503     8251626.564 6   6435339.59821        13.250           1.031
  21366282.042   -15785191.930 7 -12142188.90822        23.000           2.188
 91  6 18 18 21 29.9990000  0  4G 2G11G19G 6
  20601122.933   -19145872.777 7 -14879417.30323        27.000           2.594
  23735265.503    -2089600.015 5  -1566939.88021        11.250           0.531
  22058417.269     8284572.021 6   6461011.34721        12.500           1.063
  21361340.417   -15811160.013 7 -12162423.76822        22.750           2.125
 91  6 18 18 21 44.9990000  0  4G 2G11G19G 6
  20598906.972   -19157517.928 7 -14888491.44123        27.500           2.563
  23742175.308    -2053284.917 5  -1538642.43721        11.250           0.531
  22064693.425     8317572.385 6   6486725.87521        13.500           1.000
  21356406.534   -15837092.284 7 -12182630.71822        23.500           2.094
 91  6 18 18 21 59.9990000  0  4G 2G11G19G 6
  20596704.745   -19169088.365 7 -14897507.36023        27.000           2.594
  23749106.894    -2016863.490 5  -1510262.15621        11.500           0.438
  22070986.230     8350629.523 6   6512484.65221        13.000           0.969
  21351478.394   -15862986.923 7 -12202808.34722        23.500           2.188
 91  6 18 18 22 14.9990000  0  4G 2G11G19G 6
  20594518.636   -19180582.395 7 -14906463.74423        27.750           2.719
  23756053.933    -1980334.323 5  -1481797.90621        11.000           0.469
  22077286.698     8383745.028 6   6538288.91221        13.250           0.938
  21346558.276   -15888842.006 7 -12222955.15922        23.500           2.156
 91  6 18 18 22 29.9990000  0  4G 2G11G19G 6
  20592346.261   -19191997.542 7 -14915358.65823        27.000           2.688
  23763028.683    -1943695.249 5  -1453248.01221        11.250           0.563
  22083603.065     8416921.405 6   6564140.59221        13.000           1.000
  21341646.800   -15914654.905 7 -12243069.09922        22.500           2.156
 91  6 18 18 22 44.9990000  0  4G 2G11G19G 6
  20590189.855   -19203331.921 7 -14924190.63623        27.000           2.563
  23770023.183    -1906944.596 5  -1424611.17421        11.750           0.438
  22089925.112     8450160.594 6   6590041.22321        13.250           1.000
  21336742.198   -15940423.463 7 -12263148.47922        22.500           2.156
 91  6 18 18 22 59.9990000  0  4G 2G11G19G 6
  20588047.925   -19214588.917 7 -14932962.31523        27.000           2.781
  23777035.933    -1870085.927 5  -1395890.16921        11.500           0.531
  22096261.409     8483459.203 6   6615988.15321        13.500           0.969
  21331846.722   -15966150.821 7 -12283195.76422        22.500           2.125
 91  6 18 18 23 14.9990000  0  4G 2G11G19G 6
  20585919.628   -19225771.335 7 -14941675.88523        27.250           2.719
  23784070.401    -1833122.585 5  -1367087.60021        11.750           0.625
  22102610.300     8516814.172 6   6641979.00021        13.750           1.094
  21326958.667   -15991839.939 7 -12303213.24922        22.250           2.031
 91  6 18 18 23 29.9990000  0  4G 2G11G19G 6
  20583807.253   -19236873.405 7 -14950326.84423        27.500           2.719
  23791127.136    -1796048.961 6  -1338199.10021        12.000           0.563
  22108972.269     8550231.345 6   6668018.31921        12.500           1.094
  21322077.730   -16017484.665 7 -12323196.14122        22.250           2.031
 91  6 18 18 23 44.9990000  0  4G 2G11G19G 6
  20581708.605   -19247901.999 7 -14958920.55423        27.500           2.688
  23798197.855    -1758872.193 5  -1309230.21621        11.500           0.500
  22115337.948     8583703.992 6   6694100.85921        13.500           1.063
  21317205.261   -16043091.612 7 -12343149.60022        22.500           2.156
 91  6 18 18 23 59.9990000  0  4G 2G11G19G 6
  20579624.065   -19258854.648 8 -14967455.08123        28.000           2.781
  23805295.675    -1721590.087 5  -1280179.27521        11.750           0.625
  22121716.581     8617234.710 6   6720228.65421        13.500           1.000
  21312339.175   -16068658.104 7 -12363071.54022        22.250           2.031
 91  6 18 18 24 14.9990000  0  4G 2G11G19G 6
  20577552.253   -19269733.962 7 -14975932.46523        27.500           2.688
  23812408.144    -1684205.649 5  -1251048.58421        11.750           0.469
  22128110.198     8650820.846 6   6746399.62221        13.250           0.938
  21307481.956   -16094186.642 7 -12382963.89722        22.500           2.094
 91  6 18 18 24 29.9990000  0  4G 2G11G19G 6
  20575498.284   -19280534.338 7 -14984348.33823        27.500           2.750
  23819544.417    -1646713.401 6  -1221833.86121        12.000           0.594
  22134510.815     8684468.081 6   6772618.21421        13.000           1.031
  21302632.409   -16119671.410 7 -12402822.14422        22.500           2.156
 91  6 18 18 24 44.9990000  0  4G 2G11G19G 6
  20573457.636   -19291256.831 7 -14992703.52823        27.250           2.625
  23826696.347    -1609114.673 5  -1192536.18521        11.750           0.563
  22140927.323     8718175.187 6   6798883.45121        13.250           1.000
  21297791.394   -16145113.264 7 -12422646.96022        22.750           1.969
 91  6 18 18 24 59.9990000  0  4G 2G11G19G 6
  20571433.261   -19301899.792 7 -15000996.73623        27.750           2.656
  23833871.011    -1571408.213 5  -1163154.57121        11.750           0.406
  22147354.042     8751943.804 6   6825196.61421        13.000           0.875
  21292958.589   -16170510.414 7 -12442436.93422        23.000           2.031
 91  6 18 18 25 14.9990000  0  4G 2G11G19G 6
  20569422.550   -19312463.760 7 -15009228.39823        27.000           2.594
  23841069.870    -1533594.869 6  -1133689.64821        12.250           0.438
  22153791.761     8785773.363 6   6851557.27321        13.250           0.938
  21288134.683   -16195863.283 7 -12462192.41122        22.000           1.969
 91  6 18 18 25 29.9990000  0  4G 2G11G19G 6
  20567426.472   -19322949.890 7 -15017399.40123        27.500           2.656
  23848284.995    -1495676.120 6  -1104142.61021        12.000           0.531
  22160242.761     8819662.541 6   6877964.37921        12.750           0.969
  21283317.745   -16221172.833 7 -12481914.12722        22.000           1.938
 91  6 18 18 25 44.9990000  0  4G 2G11G19G 6
  20565447.253   -19333357.361 7 -15025509.11823        27.000           2.750
  23855520.573    -1457651.379 6  -1074512.97021        12.750           0.500
  22166700.198     8853612.396 6   6904418.76821        13.000           1.000
  21278508.972   -16246438.115 7 -12501601.35022        22.500           2.000
 91  6 18 18 25 59.9990000  0  4G 2G11G19G 6
  20563481.269   -19343686.745 7 -15033557.98423        27.000           2.719
  23862775.175    -1419521.511 6  -1044801.42121        12.500           0.469
  22173173.839     8887622.369 6   6930920.00221        13.500           0.906
  21273710.901   -16271659.339 7 -12521254.24422        22.500           2.031
 91  6 18 18 26 14.9990000  0  4G 2G11G19G 6
  20561531.589   -19353932.359 7 -15041541.57723        27.000           2.563
  23870053.698    -1381281.298 6  -1015003.89321        12.500           0.469
  22179656.300     8921698.013 6   6957472.40821        13.250           0.938
  21268919.792   -16296830.701 7 -12540868.28022        22.500           1.906
 91  6 18 18 26 29.9990000  0  4G 2G11G19G 6
  20559597.886   -19364100.550 7 -15049464.84223        27.500           2.594
  23877349.167    -1342937.176 6   -985125.39921        12.250           0.469
  22186155.128     8955833.039 6   6984071.08721        12.750           0.875
  21264137.183   -16321958.436 7 -12560448.32822        22.250           2.000
 91  6 18 18 26 44.9990000  0  4G 2G11G19G 6
  20557676.847   -19374190.707 7 -15057327.30323        27.000           2.656
  23884665.644    -1304488.811 6   -955165.67321        12.500           0.313
  22192659.097     8990028.171 6   7010716.60421        13.000           1.313
  21259365.323   -16347041.671 7 -12579993.69822        22.750           1.969
 91  6 18 18 26 59.9990000  0  4G 2G11G19G 6
  20555770.605   -19384200.468 7 -15065127.11423        26.750           2.719
  23892002.964    -1265934.301 6   -925123.24021        12.500           0.469
  22199178.964     9024285.669 6   7037410.70821        13.000           1.188
  21254601.230   -16372077.866 7 -12599502.42122        22.500           1.906
 91  6 18 18 27 14.9990000  0  4G 2G11G19G 6
  20553881.237   -19394131.001 7 -15072865.19023        27.500           2.656
  23899360.519    -1227275.051 6   -894999.19021        12.250           0.500
  22205709.425     9058604.407 6   7064152.55021        13.500           1.313
  21249846.089   -16397067.976 7 -12618975.22022        22.250           1.906
 91  6 18 18 27 29.9990000  0  4G 2G11G19G 6
  20552005.894   -19403986.142 7 -15080544.51623        26.500           2.656
  23906736.300    -1188515.176 6   -864796.73521        12.500           0.469
  22212251.339     9092980.489 6   7090939.06321        13.000           1.156
  21245097.917   -16422015.600 7 -12638414.92022        22.250           1.938
 91  6 18 18 27 44.9990000  0  4G 2G11G19G 6
  20550145.956   -19413761.226 7 -15088161.46123        27.250           2.656
  23914132.487    -1149650.403 6   -834512.54121        12.500           0.469
  22218802.495     9127418.433 6   7117773.77821        13.000           1.219
  21240359.386   -16446916.070 7 -12657817.87522        22.750           2.000
 91  6 18 18 27 59.9990000  0  4G 2G11G19G 6
  20548301.292   -19423452.197 7 -15095712.86723        27.500           2.688
  23921548.612    -1110676.818 6   -804143.55321        12.250           0.469
  22225369.972     9161922.386 6   7144659.93521        12.750           1.250
  21235631.862   -16471764.945 7 -12677180.63022        22.750           1.938
 91  6 18 18 28 14.9990000  0  4G 2G11G19G 6
  20546471.190   -19433067.529 7 -15103205.32923        27.000           2.719
  23928983.151    -1071603.166 6   -773696.58021        12.000           0.438
  22231947.597     9196483.992 6   7171591.01421        13.250           1.281
  21230911.815   -16496570.540 7 -12696509.65722        22.750           2.000
 91  6 18 18 28 29.9990000  0  4G 2G11G19G 6
  20544657.378   -19442606.914 7 -15110638.61123        27.500           2.688
  23936438.136    -1032429.468 5   -743171.66921        11.750           0.438
  22238534.245     9231103.631 6   7198567.30721        12.750           1.344
  21226198.487   -16521332.268 7 -12715804.50222        22.250           2.031
 91  6 18 18 28 44.9990000  0  4G 2G11G19G 6
  20542856.058   -19452068.438 7 -15118011.22923        27.250           2.625
  23943911.823     -993154.162 6   -712567.55921        12.250           0.406
  22245133.901     9265783.072 6   7225590.20021        12.750           1.219
  21221497.956   -16546048.297 7 -12735063.73822        22.250           2.094
 91  6 18 18 28 59.9990000  0  4G 2G11G19G 6
  20541070.870   -19461453.196 7 -15125324.02323        27.500           2.656
  23951405.128     -953778.703 6   -681885.41021        12.750           0.406
  22251747.644     9300521.188 6   7252658.81321        12.250           1.344
  21216801.136   -16570719.364 7 -12754287.93422        22.500           2.000
 91  6 18 18 29 14.9990000  0  4G 2G11G19G 6
  20539298.847   -19470763.195 7 -15132578.56823        27.250           2.688
  23958918.862     -914305.448 6   -651127.05321        13.250           0.344
  22258365.800     9335315.860 6   7279771.50621        12.500           1.094
  21212113.917   -16595347.394 7 -12773478.59922        22.000           2.000
 91  6 18 18 29 29.9990000  0  4G 2G11G19G 6
  20537541.722   -19479994.465 7 -15139771.76123        27.250           2.656
  23966446.534     -874730.559 6   -620289.50321        12.500           0.406
  22264999.222     9370171.356 6   7306931.58521        12.250           1.313
  21207437.284   -16619928.009 7 -12792632.32022        22.250           2.188
 91  6 18 18 29 44.9990000  0  4G 2G11G19G 6
  20535799.847   -19489148.787 7 -15146904.99623        27.250           2.688
  23973998.089     -835056.153 6   -589374.40721        12.250           0.438
  22271643.519     9405085.822 6   7334137.62021        12.500           1.094
  21202767.378   -16644462.908 7 -12811750.41922        22.500           2.188
 91  6 18 18 29 59.9990000  0  4G 2G11G19G 6
  20534072.112   -19498219.946 7 -15153973.43123        27.000           2.656
  23981566.230     -795276.324 6   -558377.19821        12.000           0.563
  22278299.128     9440065.282 6   7361394.29421        12.000           1.250
  21198109.495   -16668945.733 7 -12830827.93422        22.750           2.125
 91  6 18 18 30 14.9990000  0  4G 2G11G19G 6
  20532361.542   -19507216.690 7 -15160983.87723        27.500           2.750
  23989155.378     -755400.066 5   -527304.83121        11.500           0.438
  22284965.995     9475101.165 6   7388694.94021        12.250           1.156
  21193459.417   -16693384.913 7 -12849871.44622        22.750           2.094
 91  6 18 18 30 29.9990000  0  4G 2G11G19G 6
  20530663.628   -19516140.427 7 -15167937.43623        27.500           2.656
  23996760.730     -715428.869 5   -496158.49221        11.750           0.406
  22291644.519     9510192.159 6   7416038.52621        12.000           1.156
  21188816.628   -16717781.611 7 -12868881.85322        22.750           2.063
 91  6 18 18 30 44.9990000  0  4G 2G11G19G 6
  20528979.917   -19524989.874 7 -15174833.10923        27.750           2.750
  24004385.972     -675362.084 6   -464937.66221        12.000           0.375
  22298332.120     9545339.245 5   7443425.82021        11.750           1.188
  21184182.081   -16742134.574 7 -12887858.18122        23.000           2.125
 91  6 18 18 30 59.9990000  0  4G 2G11G19G 6
  20527309.823   -19533766.097 7 -15181671.72123        27.750           2.688
  24012028.472     -635201.003 5   -433643.34321        11.750           0.563
  22305032.042     9580541.463 5   7470856.06121        11.750           1.094
  21179555.683   -16766444.508 7 -12906800.97422        22.750           2.188
 91  6 18 18 31 14.9990000  0  4G 2G11G19G 6
  20525655.245   -19542465.811 7 -15188450.70823        27.500           2.688
  24019688.386     -594942.778 5   -402273.37221        11.250           0.406
  22311739.933     9615802.068 5   7498331.82121        11.750           1.156
  21174938.894   -16790707.923 7 -12925707.52022        22.250           2.125
 91  6 18 18 31 29.9990000  0  4G 2G11G19G 6
  20524012.315   -19551092.788 8 -15195173.03423        28.250           2.594
  24027367.761     -554591.195 5   -370830.62721        11.750           0.469
  22318460.495     9651117.546 5   7525850.31821        11.750           1.063
  21170329.690   -16814928.381 7 -12944580.59722        22.500           2.063
 91  6 18 18 31 44.9990000  0  4G 2G11G19G 6
  20522385.511   -19559644.003 7 -15201836.31523        27.750           2.781
  24035063.355     -514143.708 5   -339313.12421        11.250           0.438
  22325193.315     9686490.769 6   7553413.82121        12.000           1.031
  21165729.394   -16839102.679 7 -12963417.71122        23.000           2.156
 91  6 18 18 31 59.9990000  0  4G 2G11G19G 6
  20520772.472   -19568123.669 8 -15208443.84223        28.250           2.594
  24042777.245     -473604.905 5   -307724.48721        11.250           0.500
  22331933.878     9721917.412 5   7581018.95921        11.750           0.969
  21161136.753   -16863234.981 7 -12982222.09122        22.750           2.125
 91  6 18 18 32 14.9990000  0  4G 2G11G19G 6
  20519172.019   -19576529.507 8 -15214993.84823        28.250           2.625
  24050510.706     -432972.606 5   -276062.98921        11.000           0.406
  22338685.948     9757399.718 6   7608667.46421        12.000           0.969
  21156552.995   -16887322.675 7 -13000991.72022        23.000           2.156
 91  6 18 18 32 29.9990000  0  4G 2G11G19G 6
  20517586.870   -19584860.595 8 -15221485.60323        28.250           2.688
  24058261.011     -392246.364 5   -244328.28521        11.000           0.375
  22345449.956     9792938.492 6   7636359.95521        12.000           1.094
  21151979.097   -16911364.583 7 -13019725.66322        23.500           2.281
 91  6 18 18 32 44.9990000  0  4G 2G11G19G 6
  20516016.925   -19593114.926 8 -15227917.54423        28.500           2.594
  24066029.683     -351424.507 5   -212519.07621        11.000           0.344
  22352222.362     9828535.894 5   7664098.15321        11.750           1.031
  21147413.175   -16935358.642 7 -13038422.33022        23.250           2.219
 91  6 18 18 32 59.9990000  0  4G 2G11G19G 6
  20514459.105   -19601297.355 8 -15234293.46323        28.000           2.594
  24073814.089     -310511.985 5   -180639.21721        11.000           0.563
  22359009.831     9864187.146 5   7691878.30121        11.750           1.125
  21142853.980   -16959309.367 7 -13057085.22522        23.250           2.250
 91  6 18 18 33 14.9990000  0  4G 2G11G19G 6
  20512917.136   -19609404.828 8 -15240610.97123        28.500           2.719
  24081616.683     -269506.181 5   -148686.68121        10.500           0.375
  22365802.706     9899895.412 6   7719702.87221        12.000           0.969
  21138306.112   -16983213.505 7 -13075711.82322        23.250           2.313
 91  6 18 18 33 29.9990000  0  4G 2G11G19G 6
  20511386.815   -19617435.375 8 -15246868.54023        28.250           2.531
  24089439.565     -228405.414 5   -116660.11521        11.000           0.375
  22372613.878     9935662.510 5   7747573.29121        11.500           1.063
  21133766.440   -17007068.913 7 -13094300.44722        23.000           2.281
 91  6 18 18 33 44.9990000  0  4G 2G11G19G 6
  20509873.862   -19625393.122 8 -15253069.37723        28.250           2.656
  24097276.792     -187214.068 5    -84563.01121        11.000           0.344
  22379426.042     9971484.513 5   7775486.50021        11.750           1.000
  21129234.456   -17030879.351 7 -13112854.02822        22.500           2.250
 91  6 18 18 33 59.9990000  0  4G 2G11G19G 6
  20508374.386   -19633273.897 8 -15259210.24123        28.250           2.594
  24105134.245     -145928.264 5    -52392.28121        11.250           0.406
  22386255.894    10007365.476 5   7803445.64521        11.500           1.000
  21124712.980   -17054640.564 7 -13131369.25822        23.000           2.281
 91  6 18 18 34 14.9990000  0  4G 2G11G19G 6
  20506888.089   -19641079.405 8 -15265292.45523        28.500           2.688
  24113006.722     -104550.038 5    -20149.52321        11.000           0.438
  22393089.651    10043303.636 5   7831449.35821        11.750           1.031
  21120201.433   -17078354.152 7 -13149847.37422        23.000           2.313
 91  6 18 18 34 29.9990000  0  4G 2G11G19G 6
  20505418.823   -19648803.495 8 -15271311.22223        28.250           2.594
  24120899.065      -63073.579 5     12169.76621        10.750           0.469
  22399943.847    10079305.121 5   7859502.41621        11.000           1.031
  21115699.144   -17102013.707 7 -13168283.38322        22.750           2.375
 91  6 18 18 34 44.9990000  0  4G 2G11G19G 6
  20503963.659   -19656450.348 8 -15277269.80723        28.000           2.594
  24128809.745      -21503.341 5     44562.12721        10.500           0.469
  22406804.440    10115365.780 5   7887601.57821        11.500           1.031
  21111206.034   -17125623.150 7 -13186680.34822        23.000           2.344
 91  6 18 18 34 59.9990000  0  4G 2G11G19G 6
  20502524.417   -19664016.446 8 -15283165.46623        28.250           2.594
  24136741.472       20163.974 5     77030.13621        10.750           0.375
  22413683.417    10151489.243 5   7915749.68221        11.500           1.000
  21106724.706   -17149178.822 7 -13205035.40822        22.500           2.281
 91  6 18 18 35 14.9990000  0  4G 2G11G19G 6
  20501100.901   -19671504.455 8 -15289000.27723        28.750           2.656
  24144686.526       61925.410 5    109571.48421        11.000           0.500
  22420565.190    10187672.676 5   7943944.52321        11.750           0.969
  21102250.144   -17172683.039 7 -13223350.37722        22.500           2.438
 91  6 18 18 35 29.9990000  0  4G 2G11G19G 6
  20499688.769   -19678913.669 8 -15294773.69123        28.000           2.656
  24152651.425      103781.277 5    142186.42921        10.750           0.344
  22427461.987    10223916.805 6   7972186.65121        12.000           0.969
  21097787.956   -17196134.889 7 -13241624.54222        22.750           2.313
 91  6 18 18 35 44.9990000  0  4G 2G11G19G 6
  20498293.730   -19686247.469 8 -15300488.34123        28.250           2.531
  24160636.347      145727.759 5    174871.96521        11.250           0.438
  22434368.839    10260217.964 6   8000473.22121        12.000           0.969
  21093334.409   -17219537.835 7 -13259860.59622        22.500           2.375
